<?xml version="1.0" encoding="UTF-8" standalone="no" ?>
<gpx xmlns="http://www.topografix.com/GPX/1/1" xmlns:xsi="http://www.w3.org/2001/XMLSchema-instance" xsi:schemaLocation="http://www.topografix.com/GPX/1/1 http://www.topografix.com/GPX/1/1/gpx.xsd" version="1.1" creator="VisuGPX - https://www.visugpx.com">
  <metadata>
    <name>Vtt 17082016</name>
    <desc><![CDATA[Sortie reverotte/radegonde]]></desc>
  </metadata>
  <trk>
    <name><![CDATA[Cycling 8/17/16 2:01 pm]]></name>
    <trkseg>
      <trkpt lat="47.18364" lon="6.40275">
        <ele>662</ele>
        <time>2016-08-17T14:01:49Z</time>
      </trkpt>
      <trkpt lat="47.18364" lon="6.40275">
        <ele>662</ele>
        <time>2016-08-17T14:01:49Z</time>
      </trkpt>
      <trkpt lat="47.18458" lon="6.40321">
        <ele>661</ele>
        <time>2016-08-17T14:06:12Z</time>
      </trkpt>
      <trkpt lat="47.1847" lon="6.40331">
        <ele>661</ele>
        <time>2016-08-17T14:06:16Z</time>
      </trkpt>
      <trkpt lat="47.18481" lon="6.40345">
        <ele>663</ele>
        <time>2016-08-17T14:06:20Z</time>
      </trkpt>
      <trkpt lat="47.18491" lon="6.40361">
        <ele>663</ele>
        <time>2016-08-17T14:06:24Z</time>
      </trkpt>
      <trkpt lat="47.18498" lon="6.40384">
        <ele>663</ele>
        <time>2016-08-17T14:06:28Z</time>
      </trkpt>
      <trkpt lat="47.18502" lon="6.40405">
        <ele>663</ele>
        <time>2016-08-17T14:06:32Z</time>
      </trkpt>
      <trkpt lat="47.18502" lon="6.4043">
        <ele>664</ele>
        <time>2016-08-17T14:06:36Z</time>
      </trkpt>
      <trkpt lat="47.18502" lon="6.4045">
        <ele>664</ele>
        <time>2016-08-17T14:06:39Z</time>
      </trkpt>
      <trkpt lat="47.18496" lon="6.40472">
        <ele>665</ele>
        <time>2016-08-17T14:06:43Z</time>
      </trkpt>
      <trkpt lat="47.18493" lon="6.40497">
        <ele>665</ele>
        <time>2016-08-17T14:06:47Z</time>
      </trkpt>
      <trkpt lat="47.1849" lon="6.40511">
        <ele>665</ele>
        <time>2016-08-17T14:06:49Z</time>
      </trkpt>
      <trkpt lat="47.18487" lon="6.40526">
        <ele>665</ele>
        <time>2016-08-17T14:06:51Z</time>
      </trkpt>
      <trkpt lat="47.18483" lon="6.40541">
        <ele>665</ele>
        <time>2016-08-17T14:06:53Z</time>
      </trkpt>
      <trkpt lat="47.18481" lon="6.40557">
        <ele>665</ele>
        <time>2016-08-17T14:06:55Z</time>
      </trkpt>
      <trkpt lat="47.18477" lon="6.40575">
        <ele>665</ele>
        <time>2016-08-17T14:06:57Z</time>
      </trkpt>
      <trkpt lat="47.18474" lon="6.40591">
        <ele>665</ele>
        <time>2016-08-17T14:06:59Z</time>
      </trkpt>
      <trkpt lat="47.18469" lon="6.40604">
        <ele>665</ele>
        <time>2016-08-17T14:07:01Z</time>
      </trkpt>
      <trkpt lat="47.18465" lon="6.40621">
        <ele>665</ele>
        <time>2016-08-17T14:07:03Z</time>
      </trkpt>
      <trkpt lat="47.18463" lon="6.40642">
        <ele>665</ele>
        <time>2016-08-17T14:07:05Z</time>
      </trkpt>
      <trkpt lat="47.18459" lon="6.4066">
        <ele>665</ele>
        <time>2016-08-17T14:07:07Z</time>
      </trkpt>
      <trkpt lat="47.18461" lon="6.40684">
        <ele>665</ele>
        <time>2016-08-17T14:07:09Z</time>
      </trkpt>
      <trkpt lat="47.18459" lon="6.407">
        <ele>665</ele>
        <time>2016-08-17T14:07:11Z</time>
      </trkpt>
      <trkpt lat="47.18455" lon="6.40718">
        <ele>665</ele>
        <time>2016-08-17T14:07:13Z</time>
      </trkpt>
      <trkpt lat="47.18453" lon="6.40737">
        <ele>665</ele>
        <time>2016-08-17T14:07:15Z</time>
      </trkpt>
      <trkpt lat="47.1845" lon="6.40754">
        <ele>665</ele>
        <time>2016-08-17T14:07:17Z</time>
      </trkpt>
      <trkpt lat="47.18445" lon="6.40772">
        <ele>666</ele>
        <time>2016-08-17T14:07:19Z</time>
      </trkpt>
      <trkpt lat="47.18442" lon="6.4079">
        <ele>666</ele>
        <time>2016-08-17T14:07:21Z</time>
      </trkpt>
      <trkpt lat="47.18439" lon="6.4081">
        <ele>666</ele>
        <time>2016-08-17T14:07:23Z</time>
      </trkpt>
      <trkpt lat="47.18436" lon="6.40828">
        <ele>666</ele>
        <time>2016-08-17T14:07:25Z</time>
      </trkpt>
      <trkpt lat="47.18433" lon="6.40845">
        <ele>666</ele>
        <time>2016-08-17T14:07:27Z</time>
      </trkpt>
      <trkpt lat="47.1843" lon="6.40863">
        <ele>666</ele>
        <time>2016-08-17T14:07:29Z</time>
      </trkpt>
      <trkpt lat="47.18426" lon="6.4088">
        <ele>666</ele>
        <time>2016-08-17T14:07:31Z</time>
      </trkpt>
      <trkpt lat="47.18422" lon="6.40898">
        <ele>667</ele>
        <time>2016-08-17T14:07:33Z</time>
      </trkpt>
      <trkpt lat="47.18419" lon="6.40917">
        <ele>667</ele>
        <time>2016-08-17T14:07:35Z</time>
      </trkpt>
      <trkpt lat="47.18416" lon="6.40933">
        <ele>668</ele>
        <time>2016-08-17T14:07:37Z</time>
      </trkpt>
      <trkpt lat="47.18412" lon="6.40952">
        <ele>668</ele>
        <time>2016-08-17T14:07:39Z</time>
      </trkpt>
      <trkpt lat="47.1841" lon="6.4097">
        <ele>668</ele>
        <time>2016-08-17T14:07:41Z</time>
      </trkpt>
      <trkpt lat="47.18407" lon="6.40983">
        <ele>668</ele>
        <time>2016-08-17T14:07:43Z</time>
      </trkpt>
      <trkpt lat="47.18403" lon="6.41">
        <ele>669</ele>
        <time>2016-08-17T14:07:45Z</time>
      </trkpt>
      <trkpt lat="47.18399" lon="6.41016">
        <ele>669</ele>
        <time>2016-08-17T14:07:47Z</time>
      </trkpt>
      <trkpt lat="47.18397" lon="6.41034">
        <ele>669</ele>
        <time>2016-08-17T14:07:49Z</time>
      </trkpt>
      <trkpt lat="47.18397" lon="6.4105">
        <ele>669</ele>
        <time>2016-08-17T14:07:51Z</time>
      </trkpt>
      <trkpt lat="47.18392" lon="6.41064">
        <ele>669</ele>
        <time>2016-08-17T14:07:53Z</time>
      </trkpt>
      <trkpt lat="47.1839" lon="6.4108">
        <ele>669</ele>
        <time>2016-08-17T14:07:55Z</time>
      </trkpt>
      <trkpt lat="47.18393" lon="6.41095">
        <ele>669</ele>
        <time>2016-08-17T14:07:57Z</time>
      </trkpt>
      <trkpt lat="47.184" lon="6.41105">
        <ele>669</ele>
        <time>2016-08-17T14:07:59Z</time>
      </trkpt>
      <trkpt lat="47.18409" lon="6.41116">
        <ele>669</ele>
        <time>2016-08-17T14:08:01Z</time>
      </trkpt>
      <trkpt lat="47.18413" lon="6.41131">
        <ele>669</ele>
        <time>2016-08-17T14:08:03Z</time>
      </trkpt>
      <trkpt lat="47.18417" lon="6.41146">
        <ele>669</ele>
        <time>2016-08-17T14:08:05Z</time>
      </trkpt>
      <trkpt lat="47.18421" lon="6.41163">
        <ele>669</ele>
        <time>2016-08-17T14:08:07Z</time>
      </trkpt>
      <trkpt lat="47.18423" lon="6.41181">
        <ele>669</ele>
        <time>2016-08-17T14:08:09Z</time>
      </trkpt>
      <trkpt lat="47.18426" lon="6.41198">
        <ele>669</ele>
        <time>2016-08-17T14:08:11Z</time>
      </trkpt>
      <trkpt lat="47.18427" lon="6.41217">
        <ele>669</ele>
        <time>2016-08-17T14:08:13Z</time>
      </trkpt>
      <trkpt lat="47.18431" lon="6.41238">
        <ele>670</ele>
        <time>2016-08-17T14:08:15Z</time>
      </trkpt>
      <trkpt lat="47.18434" lon="6.41255">
        <ele>670</ele>
        <time>2016-08-17T14:08:17Z</time>
      </trkpt>
      <trkpt lat="47.18436" lon="6.41273">
        <ele>670</ele>
        <time>2016-08-17T14:08:19Z</time>
      </trkpt>
      <trkpt lat="47.18438" lon="6.4129">
        <ele>671</ele>
        <time>2016-08-17T14:08:21Z</time>
      </trkpt>
      <trkpt lat="47.18438" lon="6.41309">
        <ele>671</ele>
        <time>2016-08-17T14:08:23Z</time>
      </trkpt>
      <trkpt lat="47.1844" lon="6.41327">
        <ele>671</ele>
        <time>2016-08-17T14:08:25Z</time>
      </trkpt>
      <trkpt lat="47.18441" lon="6.41345">
        <ele>672</ele>
        <time>2016-08-17T14:08:27Z</time>
      </trkpt>
      <trkpt lat="47.18443" lon="6.41363">
        <ele>672</ele>
        <time>2016-08-17T14:08:29Z</time>
      </trkpt>
      <trkpt lat="47.18446" lon="6.41381">
        <ele>672</ele>
        <time>2016-08-17T14:08:31Z</time>
      </trkpt>
      <trkpt lat="47.18447" lon="6.41401">
        <ele>672</ele>
        <time>2016-08-17T14:08:33Z</time>
      </trkpt>
      <trkpt lat="47.18448" lon="6.41421">
        <ele>671</ele>
        <time>2016-08-17T14:08:35Z</time>
      </trkpt>
      <trkpt lat="47.1845" lon="6.41444">
        <ele>671</ele>
        <time>2016-08-17T14:08:37Z</time>
      </trkpt>
      <trkpt lat="47.18452" lon="6.41466">
        <ele>671</ele>
        <time>2016-08-17T14:08:39Z</time>
      </trkpt>
      <trkpt lat="47.18453" lon="6.41488">
        <ele>671</ele>
        <time>2016-08-17T14:08:41Z</time>
      </trkpt>
      <trkpt lat="47.18455" lon="6.41509">
        <ele>670</ele>
        <time>2016-08-17T14:08:43Z</time>
      </trkpt>
      <trkpt lat="47.18458" lon="6.41532">
        <ele>670</ele>
        <time>2016-08-17T14:08:45Z</time>
      </trkpt>
      <trkpt lat="47.1846" lon="6.41553">
        <ele>670</ele>
        <time>2016-08-17T14:08:47Z</time>
      </trkpt>
      <trkpt lat="47.18461" lon="6.41575">
        <ele>670</ele>
        <time>2016-08-17T14:08:49Z</time>
      </trkpt>
      <trkpt lat="47.18463" lon="6.41597">
        <ele>671</ele>
        <time>2016-08-17T14:08:51Z</time>
      </trkpt>
      <trkpt lat="47.18464" lon="6.41618">
        <ele>671</ele>
        <time>2016-08-17T14:08:53Z</time>
      </trkpt>
      <trkpt lat="47.18467" lon="6.41639">
        <ele>671</ele>
        <time>2016-08-17T14:08:55Z</time>
      </trkpt>
      <trkpt lat="47.18473" lon="6.41669">
        <ele>672</ele>
        <time>2016-08-17T14:08:57Z</time>
      </trkpt>
      <trkpt lat="47.18474" lon="6.41687">
        <ele>672</ele>
        <time>2016-08-17T14:08:59Z</time>
      </trkpt>
      <trkpt lat="47.18478" lon="6.41708">
        <ele>672</ele>
        <time>2016-08-17T14:09:01Z</time>
      </trkpt>
      <trkpt lat="47.18483" lon="6.41728">
        <ele>673</ele>
        <time>2016-08-17T14:09:03Z</time>
      </trkpt>
      <trkpt lat="47.1849" lon="6.4175">
        <ele>673</ele>
        <time>2016-08-17T14:09:05Z</time>
      </trkpt>
      <trkpt lat="47.18495" lon="6.41768">
        <ele>674</ele>
        <time>2016-08-17T14:09:07Z</time>
      </trkpt>
      <trkpt lat="47.18499" lon="6.41785">
        <ele>674</ele>
        <time>2016-08-17T14:09:09Z</time>
      </trkpt>
      <trkpt lat="47.18504" lon="6.41801">
        <ele>673</ele>
        <time>2016-08-17T14:09:11Z</time>
      </trkpt>
      <trkpt lat="47.18511" lon="6.41819">
        <ele>673</ele>
        <time>2016-08-17T14:09:13Z</time>
      </trkpt>
      <trkpt lat="47.18516" lon="6.41832">
        <ele>673</ele>
        <time>2016-08-17T14:09:15Z</time>
      </trkpt>
      <trkpt lat="47.1852" lon="6.41844">
        <ele>674</ele>
        <time>2016-08-17T14:09:17Z</time>
      </trkpt>
      <trkpt lat="47.18523" lon="6.41859">
        <ele>674</ele>
        <time>2016-08-17T14:09:19Z</time>
      </trkpt>
      <trkpt lat="47.18528" lon="6.41873">
        <ele>674</ele>
        <time>2016-08-17T14:09:21Z</time>
      </trkpt>
      <trkpt lat="47.18532" lon="6.41887">
        <ele>674</ele>
        <time>2016-08-17T14:09:23Z</time>
      </trkpt>
      <trkpt lat="47.18538" lon="6.41902">
        <ele>674</ele>
        <time>2016-08-17T14:09:25Z</time>
      </trkpt>
      <trkpt lat="47.18542" lon="6.41916">
        <ele>675</ele>
        <time>2016-08-17T14:09:27Z</time>
      </trkpt>
      <trkpt lat="47.18546" lon="6.41929">
        <ele>676</ele>
        <time>2016-08-17T14:09:29Z</time>
      </trkpt>
      <trkpt lat="47.1855" lon="6.41943">
        <ele>677</ele>
        <time>2016-08-17T14:09:31Z</time>
      </trkpt>
      <trkpt lat="47.18555" lon="6.41955">
        <ele>677</ele>
        <time>2016-08-17T14:09:33Z</time>
      </trkpt>
      <trkpt lat="47.18559" lon="6.41968">
        <ele>677</ele>
        <time>2016-08-17T14:09:35Z</time>
      </trkpt>
      <trkpt lat="47.18563" lon="6.41981">
        <ele>677</ele>
        <time>2016-08-17T14:09:37Z</time>
      </trkpt>
      <trkpt lat="47.18566" lon="6.41994">
        <ele>677</ele>
        <time>2016-08-17T14:09:39Z</time>
      </trkpt>
      <trkpt lat="47.18571" lon="6.42007">
        <ele>679</ele>
        <time>2016-08-17T14:09:41Z</time>
      </trkpt>
      <trkpt lat="47.18576" lon="6.4202">
        <ele>679</ele>
        <time>2016-08-17T14:09:43Z</time>
      </trkpt>
      <trkpt lat="47.1858" lon="6.42035">
        <ele>680</ele>
        <time>2016-08-17T14:09:45Z</time>
      </trkpt>
      <trkpt lat="47.18584" lon="6.42049">
        <ele>679</ele>
        <time>2016-08-17T14:09:47Z</time>
      </trkpt>
      <trkpt lat="47.18589" lon="6.42063">
        <ele>679</ele>
        <time>2016-08-17T14:09:49Z</time>
      </trkpt>
      <trkpt lat="47.18595" lon="6.42077">
        <ele>680</ele>
        <time>2016-08-17T14:09:51Z</time>
      </trkpt>
      <trkpt lat="47.18598" lon="6.42102">
        <ele>681</ele>
        <time>2016-08-17T14:09:55Z</time>
      </trkpt>
      <trkpt lat="47.18602" lon="6.42119">
        <ele>681</ele>
        <time>2016-08-17T14:09:57Z</time>
      </trkpt>
      <trkpt lat="47.18601" lon="6.42135">
        <ele>681</ele>
        <time>2016-08-17T14:09:59Z</time>
      </trkpt>
      <trkpt lat="47.18598" lon="6.42163">
        <ele>682</ele>
        <time>2016-08-17T14:10:03Z</time>
      </trkpt>
      <trkpt lat="47.18597" lon="6.42177">
        <ele>685</ele>
        <time>2016-08-17T14:10:05Z</time>
      </trkpt>
      <trkpt lat="47.18594" lon="6.4219">
        <ele>685</ele>
        <time>2016-08-17T14:10:07Z</time>
      </trkpt>
      <trkpt lat="47.18592" lon="6.42203">
        <ele>686</ele>
        <time>2016-08-17T14:10:09Z</time>
      </trkpt>
      <trkpt lat="47.18593" lon="6.4223">
        <ele>688</ele>
        <time>2016-08-17T14:10:13Z</time>
      </trkpt>
      <trkpt lat="47.18602" lon="6.42247">
        <ele>688</ele>
        <time>2016-08-17T14:10:15Z</time>
      </trkpt>
      <trkpt lat="47.18615" lon="6.42261">
        <ele>692</ele>
        <time>2016-08-17T14:10:19Z</time>
      </trkpt>
      <trkpt lat="47.18625" lon="6.42265">
        <ele>692</ele>
        <time>2016-08-17T14:10:21Z</time>
      </trkpt>
      <trkpt lat="47.18636" lon="6.42268">
        <ele>692</ele>
        <time>2016-08-17T14:10:23Z</time>
      </trkpt>
      <trkpt lat="47.18648" lon="6.4227">
        <ele>691</ele>
        <time>2016-08-17T14:10:25Z</time>
      </trkpt>
      <trkpt lat="47.18657" lon="6.42273">
        <ele>691</ele>
        <time>2016-08-17T14:10:27Z</time>
      </trkpt>
      <trkpt lat="47.1867" lon="6.42288">
        <ele>689</ele>
        <time>2016-08-17T14:10:31Z</time>
      </trkpt>
      <trkpt lat="47.18678" lon="6.42305">
        <ele>690</ele>
        <time>2016-08-17T14:10:35Z</time>
      </trkpt>
      <trkpt lat="47.18681" lon="6.42325">
        <ele>692</ele>
        <time>2016-08-17T14:10:39Z</time>
      </trkpt>
      <trkpt lat="47.18685" lon="6.42349">
        <ele>694</ele>
        <time>2016-08-17T14:10:43Z</time>
      </trkpt>
      <trkpt lat="47.18686" lon="6.42369">
        <ele>694</ele>
        <time>2016-08-17T14:10:47Z</time>
      </trkpt>
      <trkpt lat="47.1869" lon="6.42382">
        <ele>694</ele>
        <time>2016-08-17T14:10:49Z</time>
      </trkpt>
      <trkpt lat="47.18693" lon="6.42408">
        <ele>696</ele>
        <time>2016-08-17T14:10:53Z</time>
      </trkpt>
      <trkpt lat="47.18696" lon="6.42421">
        <ele>699</ele>
        <time>2016-08-17T14:10:55Z</time>
      </trkpt>
      <trkpt lat="47.18698" lon="6.42435">
        <ele>699</ele>
        <time>2016-08-17T14:10:57Z</time>
      </trkpt>
      <trkpt lat="47.18699" lon="6.42452">
        <ele>699</ele>
        <time>2016-08-17T14:10:59Z</time>
      </trkpt>
      <trkpt lat="47.18704" lon="6.42468">
        <ele>699</ele>
        <time>2016-08-17T14:11:01Z</time>
      </trkpt>
      <trkpt lat="47.18706" lon="6.42481">
        <ele>699</ele>
        <time>2016-08-17T14:11:03Z</time>
      </trkpt>
      <trkpt lat="47.18708" lon="6.42495">
        <ele>699</ele>
        <time>2016-08-17T14:11:05Z</time>
      </trkpt>
      <trkpt lat="47.1871" lon="6.42516">
        <ele>701</ele>
        <time>2016-08-17T14:11:07Z</time>
      </trkpt>
      <trkpt lat="47.18713" lon="6.42532">
        <ele>701</ele>
        <time>2016-08-17T14:11:09Z</time>
      </trkpt>
      <trkpt lat="47.18721" lon="6.42554">
        <ele>700</ele>
        <time>2016-08-17T14:11:11Z</time>
      </trkpt>
      <trkpt lat="47.18721" lon="6.42575">
        <ele>700</ele>
        <time>2016-08-17T14:11:13Z</time>
      </trkpt>
      <trkpt lat="47.18724" lon="6.42596">
        <ele>702</ele>
        <time>2016-08-17T14:11:15Z</time>
      </trkpt>
      <trkpt lat="47.18729" lon="6.42616">
        <ele>703</ele>
        <time>2016-08-17T14:11:17Z</time>
      </trkpt>
      <trkpt lat="47.18734" lon="6.42636">
        <ele>704</ele>
        <time>2016-08-17T14:11:19Z</time>
      </trkpt>
      <trkpt lat="47.1874" lon="6.42654">
        <ele>703</ele>
        <time>2016-08-17T14:11:21Z</time>
      </trkpt>
      <trkpt lat="47.18744" lon="6.42676">
        <ele>705</ele>
        <time>2016-08-17T14:11:23Z</time>
      </trkpt>
      <trkpt lat="47.18749" lon="6.42698">
        <ele>708</ele>
        <time>2016-08-17T14:11:25Z</time>
      </trkpt>
      <trkpt lat="47.18753" lon="6.42713">
        <ele>698</ele>
        <time>2016-08-17T14:11:27Z</time>
      </trkpt>
      <trkpt lat="47.18757" lon="6.42729">
        <ele>700</ele>
        <time>2016-08-17T14:11:29Z</time>
      </trkpt>
      <trkpt lat="47.18762" lon="6.42746">
        <ele>703</ele>
        <time>2016-08-17T14:11:31Z</time>
      </trkpt>
      <trkpt lat="47.18766" lon="6.42763">
        <ele>704</ele>
        <time>2016-08-17T14:11:33Z</time>
      </trkpt>
      <trkpt lat="47.18769" lon="6.42779">
        <ele>703</ele>
        <time>2016-08-17T14:11:35Z</time>
      </trkpt>
      <trkpt lat="47.18772" lon="6.42796">
        <ele>703</ele>
        <time>2016-08-17T14:11:37Z</time>
      </trkpt>
      <trkpt lat="47.18775" lon="6.42812">
        <ele>704</ele>
        <time>2016-08-17T14:11:39Z</time>
      </trkpt>
      <trkpt lat="47.18776" lon="6.42833">
        <ele>705</ele>
        <time>2016-08-17T14:11:41Z</time>
      </trkpt>
      <trkpt lat="47.18777" lon="6.42856">
        <ele>706</ele>
        <time>2016-08-17T14:11:43Z</time>
      </trkpt>
      <trkpt lat="47.18778" lon="6.42874">
        <ele>706</ele>
        <time>2016-08-17T14:11:45Z</time>
      </trkpt>
      <trkpt lat="47.18777" lon="6.4289">
        <ele>706</ele>
        <time>2016-08-17T14:11:47Z</time>
      </trkpt>
      <trkpt lat="47.18781" lon="6.42913">
        <ele>707</ele>
        <time>2016-08-17T14:11:49Z</time>
      </trkpt>
      <trkpt lat="47.1878" lon="6.42931">
        <ele>708</ele>
        <time>2016-08-17T14:11:51Z</time>
      </trkpt>
      <trkpt lat="47.1878" lon="6.42949">
        <ele>708</ele>
        <time>2016-08-17T14:11:53Z</time>
      </trkpt>
      <trkpt lat="47.18782" lon="6.4297">
        <ele>708</ele>
        <time>2016-08-17T14:11:55Z</time>
      </trkpt>
      <trkpt lat="47.18783" lon="6.42988">
        <ele>709</ele>
        <time>2016-08-17T14:11:57Z</time>
      </trkpt>
      <trkpt lat="47.18784" lon="6.43007">
        <ele>711</ele>
        <time>2016-08-17T14:11:59Z</time>
      </trkpt>
      <trkpt lat="47.18783" lon="6.43023">
        <ele>711</ele>
        <time>2016-08-17T14:12:01Z</time>
      </trkpt>
      <trkpt lat="47.18783" lon="6.43048">
        <ele>711</ele>
        <time>2016-08-17T14:12:05Z</time>
      </trkpt>
      <trkpt lat="47.1878" lon="6.43069">
        <ele>713</ele>
        <time>2016-08-17T14:12:09Z</time>
      </trkpt>
      <trkpt lat="47.1878" lon="6.4309">
        <ele>715</ele>
        <time>2016-08-17T14:12:13Z</time>
      </trkpt>
      <trkpt lat="47.18782" lon="6.43105">
        <ele>714</ele>
        <time>2016-08-17T14:12:15Z</time>
      </trkpt>
      <trkpt lat="47.18781" lon="6.43123">
        <ele>715</ele>
        <time>2016-08-17T14:12:19Z</time>
      </trkpt>
      <trkpt lat="47.1878" lon="6.43151">
        <ele>716</ele>
        <time>2016-08-17T14:12:23Z</time>
      </trkpt>
      <trkpt lat="47.18781" lon="6.4317">
        <ele>719</ele>
        <time>2016-08-17T14:12:25Z</time>
      </trkpt>
      <trkpt lat="47.1878" lon="6.43184">
        <ele>719</ele>
        <time>2016-08-17T14:12:27Z</time>
      </trkpt>
      <trkpt lat="47.1878" lon="6.43199">
        <ele>720</ele>
        <time>2016-08-17T14:12:29Z</time>
      </trkpt>
      <trkpt lat="47.18783" lon="6.43227">
        <ele>720</ele>
        <time>2016-08-17T14:12:33Z</time>
      </trkpt>
      <trkpt lat="47.18785" lon="6.4324">
        <ele>721</ele>
        <time>2016-08-17T14:12:35Z</time>
      </trkpt>
      <trkpt lat="47.18788" lon="6.43254">
        <ele>726</ele>
        <time>2016-08-17T14:12:37Z</time>
      </trkpt>
      <trkpt lat="47.18794" lon="6.43271">
        <ele>725</ele>
        <time>2016-08-17T14:12:39Z</time>
      </trkpt>
      <trkpt lat="47.18801" lon="6.43282">
        <ele>725</ele>
        <time>2016-08-17T14:12:41Z</time>
      </trkpt>
      <trkpt lat="47.18812" lon="6.433">
        <ele>725</ele>
        <time>2016-08-17T14:12:45Z</time>
      </trkpt>
      <trkpt lat="47.18823" lon="6.43316">
        <ele>725</ele>
        <time>2016-08-17T14:12:49Z</time>
      </trkpt>
      <trkpt lat="47.18835" lon="6.43334">
        <ele>724</ele>
        <time>2016-08-17T14:12:53Z</time>
      </trkpt>
      <trkpt lat="47.18845" lon="6.43348">
        <ele>723</ele>
        <time>2016-08-17T14:12:57Z</time>
      </trkpt>
      <trkpt lat="47.18856" lon="6.43366">
        <ele>723</ele>
        <time>2016-08-17T14:13:01Z</time>
      </trkpt>
      <trkpt lat="47.18866" lon="6.43383">
        <ele>724</ele>
        <time>2016-08-17T14:13:05Z</time>
      </trkpt>
      <trkpt lat="47.18876" lon="6.43403">
        <ele>724</ele>
        <time>2016-08-17T14:13:09Z</time>
      </trkpt>
      <trkpt lat="47.18883" lon="6.43421">
        <ele>730</ele>
        <time>2016-08-17T14:13:13Z</time>
      </trkpt>
      <trkpt lat="47.18888" lon="6.4344">
        <ele>730</ele>
        <time>2016-08-17T14:13:17Z</time>
      </trkpt>
      <trkpt lat="47.1889" lon="6.43457">
        <ele>731</ele>
        <time>2016-08-17T14:13:21Z</time>
      </trkpt>
      <trkpt lat="47.18896" lon="6.43469">
        <ele>731</ele>
        <time>2016-08-17T14:13:25Z</time>
      </trkpt>
      <trkpt lat="47.18901" lon="6.43489">
        <ele>731</ele>
        <time>2016-08-17T14:13:29Z</time>
      </trkpt>
      <trkpt lat="47.18903" lon="6.43508">
        <ele>734</ele>
        <time>2016-08-17T14:13:33Z</time>
      </trkpt>
      <trkpt lat="47.18907" lon="6.43528">
        <ele>736</ele>
        <time>2016-08-17T14:13:37Z</time>
      </trkpt>
      <trkpt lat="47.18908" lon="6.43546">
        <ele>737</ele>
        <time>2016-08-17T14:13:41Z</time>
      </trkpt>
      <trkpt lat="47.1891" lon="6.43566">
        <ele>737</ele>
        <time>2016-08-17T14:13:45Z</time>
      </trkpt>
      <trkpt lat="47.18911" lon="6.43585">
        <ele>737</ele>
        <time>2016-08-17T14:13:49Z</time>
      </trkpt>
      <trkpt lat="47.18913" lon="6.43607">
        <ele>740</ele>
        <time>2016-08-17T14:13:53Z</time>
      </trkpt>
      <trkpt lat="47.18916" lon="6.43628">
        <ele>741</ele>
        <time>2016-08-17T14:13:57Z</time>
      </trkpt>
      <trkpt lat="47.18917" lon="6.43653">
        <ele>739</ele>
        <time>2016-08-17T14:14:01Z</time>
      </trkpt>
      <trkpt lat="47.18927" lon="6.43676">
        <ele>741</ele>
        <time>2016-08-17T14:14:05Z</time>
      </trkpt>
      <trkpt lat="47.18933" lon="6.43689">
        <ele>741</ele>
        <time>2016-08-17T14:14:07Z</time>
      </trkpt>
      <trkpt lat="47.1894" lon="6.43711">
        <ele>742</ele>
        <time>2016-08-17T14:14:11Z</time>
      </trkpt>
      <trkpt lat="47.18945" lon="6.43723">
        <ele>742</ele>
        <time>2016-08-17T14:14:13Z</time>
      </trkpt>
      <trkpt lat="47.18949" lon="6.43736">
        <ele>742</ele>
        <time>2016-08-17T14:14:15Z</time>
      </trkpt>
      <trkpt lat="47.18954" lon="6.43749">
        <ele>742</ele>
        <time>2016-08-17T14:14:17Z</time>
      </trkpt>
      <trkpt lat="47.18959" lon="6.43761">
        <ele>745</ele>
        <time>2016-08-17T14:14:19Z</time>
      </trkpt>
      <trkpt lat="47.18964" lon="6.43772">
        <ele>746</ele>
        <time>2016-08-17T14:14:21Z</time>
      </trkpt>
      <trkpt lat="47.18974" lon="6.43794">
        <ele>746</ele>
        <time>2016-08-17T14:14:25Z</time>
      </trkpt>
      <trkpt lat="47.18984" lon="6.43815">
        <ele>747</ele>
        <time>2016-08-17T14:14:29Z</time>
      </trkpt>
      <trkpt lat="47.18989" lon="6.43826">
        <ele>747</ele>
        <time>2016-08-17T14:14:31Z</time>
      </trkpt>
      <trkpt lat="47.18998" lon="6.43849">
        <ele>748</ele>
        <time>2016-08-17T14:14:35Z</time>
      </trkpt>
      <trkpt lat="47.19006" lon="6.43873">
        <ele>749</ele>
        <time>2016-08-17T14:14:39Z</time>
      </trkpt>
      <trkpt lat="47.19016" lon="6.43896">
        <ele>749</ele>
        <time>2016-08-17T14:14:43Z</time>
      </trkpt>
      <trkpt lat="47.19026" lon="6.43917">
        <ele>750</ele>
        <time>2016-08-17T14:14:47Z</time>
      </trkpt>
      <trkpt lat="47.19034" lon="6.43937">
        <ele>750</ele>
        <time>2016-08-17T14:14:51Z</time>
      </trkpt>
      <trkpt lat="47.19043" lon="6.43956">
        <ele>750</ele>
        <time>2016-08-17T14:14:55Z</time>
      </trkpt>
      <trkpt lat="47.19049" lon="6.43967">
        <ele>750</ele>
        <time>2016-08-17T14:14:57Z</time>
      </trkpt>
      <trkpt lat="47.19058" lon="6.43988">
        <ele>750</ele>
        <time>2016-08-17T14:15:01Z</time>
      </trkpt>
      <trkpt lat="47.19063" lon="6.44">
        <ele>750</ele>
        <time>2016-08-17T14:15:03Z</time>
      </trkpt>
      <trkpt lat="47.19068" lon="6.44011">
        <ele>749</ele>
        <time>2016-08-17T14:15:05Z</time>
      </trkpt>
      <trkpt lat="47.19075" lon="6.44022">
        <ele>749</ele>
        <time>2016-08-17T14:15:07Z</time>
      </trkpt>
      <trkpt lat="47.19081" lon="6.44035">
        <ele>749</ele>
        <time>2016-08-17T14:15:09Z</time>
      </trkpt>
      <trkpt lat="47.19093" lon="6.44056">
        <ele>751</ele>
        <time>2016-08-17T14:15:13Z</time>
      </trkpt>
      <trkpt lat="47.19102" lon="6.44078">
        <ele>751</ele>
        <time>2016-08-17T14:15:17Z</time>
      </trkpt>
      <trkpt lat="47.19107" lon="6.44091">
        <ele>749</ele>
        <time>2016-08-17T14:15:19Z</time>
      </trkpt>
      <trkpt lat="47.19111" lon="6.44103">
        <ele>749</ele>
        <time>2016-08-17T14:15:21Z</time>
      </trkpt>
      <trkpt lat="47.19117" lon="6.44115">
        <ele>749</ele>
        <time>2016-08-17T14:15:23Z</time>
      </trkpt>
      <trkpt lat="47.19121" lon="6.44129">
        <ele>749</ele>
        <time>2016-08-17T14:15:25Z</time>
      </trkpt>
      <trkpt lat="47.19124" lon="6.44152">
        <ele>748</ele>
        <time>2016-08-17T14:15:29Z</time>
      </trkpt>
      <trkpt lat="47.19128" lon="6.44166">
        <ele>748</ele>
        <time>2016-08-17T14:15:31Z</time>
      </trkpt>
      <trkpt lat="47.19135" lon="6.442">
        <ele>745</ele>
        <time>2016-08-17T14:15:37Z</time>
      </trkpt>
      <trkpt lat="47.19139" lon="6.44217">
        <ele>745</ele>
        <time>2016-08-17T14:15:39Z</time>
      </trkpt>
      <trkpt lat="47.19146" lon="6.44245">
        <ele>745</ele>
        <time>2016-08-17T14:15:43Z</time>
      </trkpt>
      <trkpt lat="47.1915" lon="6.44266">
        <ele>742</ele>
        <time>2016-08-17T14:15:45Z</time>
      </trkpt>
      <trkpt lat="47.19152" lon="6.44284">
        <ele>742</ele>
        <time>2016-08-17T14:15:47Z</time>
      </trkpt>
      <trkpt lat="47.19155" lon="6.443">
        <ele>741</ele>
        <time>2016-08-17T14:15:49Z</time>
      </trkpt>
      <trkpt lat="47.19161" lon="6.44319">
        <ele>740</ele>
        <time>2016-08-17T14:15:51Z</time>
      </trkpt>
      <trkpt lat="47.19165" lon="6.44341">
        <ele>739</ele>
        <time>2016-08-17T14:15:53Z</time>
      </trkpt>
      <trkpt lat="47.19175" lon="6.44364">
        <ele>740</ele>
        <time>2016-08-17T14:15:55Z</time>
      </trkpt>
      <trkpt lat="47.19182" lon="6.44377">
        <ele>739</ele>
        <time>2016-08-17T14:15:57Z</time>
      </trkpt>
      <trkpt lat="47.19179" lon="6.44395">
        <ele>738</ele>
        <time>2016-08-17T14:16:01Z</time>
      </trkpt>
      <trkpt lat="47.19171" lon="6.44419">
        <ele>735</ele>
        <time>2016-08-17T14:16:05Z</time>
      </trkpt>
      <trkpt lat="47.19164" lon="6.44443">
        <ele>731</ele>
        <time>2016-08-17T14:16:09Z</time>
      </trkpt>
      <trkpt lat="47.19159" lon="6.44458">
        <ele>730</ele>
        <time>2016-08-17T14:16:11Z</time>
      </trkpt>
      <trkpt lat="47.19151" lon="6.44489">
        <ele>728</ele>
        <time>2016-08-17T14:16:15Z</time>
      </trkpt>
      <trkpt lat="47.19145" lon="6.44506">
        <ele>725</ele>
        <time>2016-08-17T14:16:17Z</time>
      </trkpt>
      <trkpt lat="47.19139" lon="6.44517">
        <ele>724</ele>
        <time>2016-08-17T14:16:19Z</time>
      </trkpt>
      <trkpt lat="47.19135" lon="6.44529">
        <ele>723</ele>
        <time>2016-08-17T14:16:23Z</time>
      </trkpt>
      <trkpt lat="47.19119" lon="6.44534">
        <ele>722</ele>
        <time>2016-08-17T14:16:27Z</time>
      </trkpt>
      <trkpt lat="47.19101" lon="6.44539">
        <ele>722</ele>
        <time>2016-08-17T14:16:31Z</time>
      </trkpt>
      <trkpt lat="47.19092" lon="6.44537">
        <ele>721</ele>
        <time>2016-08-17T14:16:33Z</time>
      </trkpt>
      <trkpt lat="47.19078" lon="6.44536">
        <ele>719</ele>
        <time>2016-08-17T14:16:35Z</time>
      </trkpt>
      <trkpt lat="47.19064" lon="6.44536">
        <ele>718</ele>
        <time>2016-08-17T14:16:37Z</time>
      </trkpt>
      <trkpt lat="47.1905" lon="6.44533">
        <ele>718</ele>
        <time>2016-08-17T14:16:39Z</time>
      </trkpt>
      <trkpt lat="47.19013" lon="6.4451">
        <ele>719</ele>
        <time>2016-08-17T14:16:47Z</time>
      </trkpt>
      <trkpt lat="47.19" lon="6.44509">
        <ele>719</ele>
        <time>2016-08-17T14:16:51Z</time>
      </trkpt>
      <trkpt lat="47.18985" lon="6.44507">
        <ele>717</ele>
        <time>2016-08-17T14:16:55Z</time>
      </trkpt>
      <trkpt lat="47.18973" lon="6.44508">
        <ele>716</ele>
        <time>2016-08-17T14:16:59Z</time>
      </trkpt>
      <trkpt lat="47.18964" lon="6.44514">
        <ele>715</ele>
        <time>2016-08-17T14:17:01Z</time>
      </trkpt>
      <trkpt lat="47.18958" lon="6.44533">
        <ele>714</ele>
        <time>2016-08-17T14:17:05Z</time>
      </trkpt>
      <trkpt lat="47.18952" lon="6.44544">
        <ele>713</ele>
        <time>2016-08-17T14:17:07Z</time>
      </trkpt>
      <trkpt lat="47.18945" lon="6.44558">
        <ele>713</ele>
        <time>2016-08-17T14:17:09Z</time>
      </trkpt>
      <trkpt lat="47.1894" lon="6.44575">
        <ele>712</ele>
        <time>2016-08-17T14:17:11Z</time>
      </trkpt>
      <trkpt lat="47.18936" lon="6.4459">
        <ele>708</ele>
        <time>2016-08-17T14:17:13Z</time>
      </trkpt>
      <trkpt lat="47.18931" lon="6.44604">
        <ele>707</ele>
        <time>2016-08-17T14:17:15Z</time>
      </trkpt>
      <trkpt lat="47.18926" lon="6.44621">
        <ele>706</ele>
        <time>2016-08-17T14:17:17Z</time>
      </trkpt>
      <trkpt lat="47.1892" lon="6.44636">
        <ele>705</ele>
        <time>2016-08-17T14:17:19Z</time>
      </trkpt>
      <trkpt lat="47.18905" lon="6.44652">
        <ele>705</ele>
        <time>2016-08-17T14:17:23Z</time>
      </trkpt>
      <trkpt lat="47.18899" lon="6.44666">
        <ele>704</ele>
        <time>2016-08-17T14:17:29Z</time>
      </trkpt>
      <trkpt lat="47.18902" lon="6.44684">
        <ele>702</ele>
        <time>2016-08-17T14:17:33Z</time>
      </trkpt>
      <trkpt lat="47.18905" lon="6.44702">
        <ele>701</ele>
        <time>2016-08-17T14:17:37Z</time>
      </trkpt>
      <trkpt lat="47.18908" lon="6.44717">
        <ele>701</ele>
        <time>2016-08-17T14:17:41Z</time>
      </trkpt>
      <trkpt lat="47.18883" lon="6.44739">
        <ele>701</ele>
        <time>2016-08-17T14:17:53Z</time>
      </trkpt>
      <trkpt lat="47.18874" lon="6.44744">
        <ele>702</ele>
        <time>2016-08-17T14:17:59Z</time>
      </trkpt>
      <trkpt lat="47.18864" lon="6.44747">
        <ele>702</ele>
        <time>2016-08-17T14:18:05Z</time>
      </trkpt>
      <trkpt lat="47.18855" lon="6.44756">
        <ele>700</ele>
        <time>2016-08-17T14:18:15Z</time>
      </trkpt>
      <trkpt lat="47.18844" lon="6.44767">
        <ele>700</ele>
        <time>2016-08-17T14:18:23Z</time>
      </trkpt>
      <trkpt lat="47.18833" lon="6.44773">
        <ele>703</ele>
        <time>2016-08-17T14:18:29Z</time>
      </trkpt>
      <trkpt lat="47.18824" lon="6.44771">
        <ele>703</ele>
        <time>2016-08-17T14:18:33Z</time>
      </trkpt>
      <trkpt lat="47.18813" lon="6.44769">
        <ele>704</ele>
        <time>2016-08-17T14:18:37Z</time>
      </trkpt>
      <trkpt lat="47.188" lon="6.44768">
        <ele>704</ele>
        <time>2016-08-17T14:18:43Z</time>
      </trkpt>
      <trkpt lat="47.18787" lon="6.44763">
        <ele>705</ele>
        <time>2016-08-17T14:18:47Z</time>
      </trkpt>
      <trkpt lat="47.18778" lon="6.44761">
        <ele>706</ele>
        <time>2016-08-17T14:18:51Z</time>
      </trkpt>
      <trkpt lat="47.18768" lon="6.44764">
        <ele>706</ele>
        <time>2016-08-17T14:18:53Z</time>
      </trkpt>
      <trkpt lat="47.18755" lon="6.4476">
        <ele>708</ele>
        <time>2016-08-17T14:18:59Z</time>
      </trkpt>
      <trkpt lat="47.18741" lon="6.44754">
        <ele>711</ele>
        <time>2016-08-17T14:19:03Z</time>
      </trkpt>
      <trkpt lat="47.18732" lon="6.44742">
        <ele>715</ele>
        <time>2016-08-17T14:19:07Z</time>
      </trkpt>
      <trkpt lat="47.1872" lon="6.4474">
        <ele>716</ele>
        <time>2016-08-17T14:19:11Z</time>
      </trkpt>
      <trkpt lat="47.18708" lon="6.44733">
        <ele>717</ele>
        <time>2016-08-17T14:19:15Z</time>
      </trkpt>
      <trkpt lat="47.18696" lon="6.44728">
        <ele>718</ele>
        <time>2016-08-17T14:19:19Z</time>
      </trkpt>
      <trkpt lat="47.18682" lon="6.44728">
        <ele>718</ele>
        <time>2016-08-17T14:19:23Z</time>
      </trkpt>
      <trkpt lat="47.18676" lon="6.44715">
        <ele>719</ele>
        <time>2016-08-17T14:19:33Z</time>
      </trkpt>
      <trkpt lat="47.18671" lon="6.44699">
        <ele>719</ele>
        <time>2016-08-17T14:19:39Z</time>
      </trkpt>
      <trkpt lat="47.18665" lon="6.44688">
        <ele>722</ele>
        <time>2016-08-17T14:19:43Z</time>
      </trkpt>
      <trkpt lat="47.18656" lon="6.44679">
        <ele>722</ele>
        <time>2016-08-17T14:19:47Z</time>
      </trkpt>
      <trkpt lat="47.18647" lon="6.44669">
        <ele>722</ele>
        <time>2016-08-17T14:19:51Z</time>
      </trkpt>
      <trkpt lat="47.18639" lon="6.44661">
        <ele>724</ele>
        <time>2016-08-17T14:19:57Z</time>
      </trkpt>
      <trkpt lat="47.18634" lon="6.44679">
        <ele>722</ele>
        <time>2016-08-17T14:20:09Z</time>
      </trkpt>
      <trkpt lat="47.1863" lon="6.44693">
        <ele>722</ele>
        <time>2016-08-17T14:20:13Z</time>
      </trkpt>
      <trkpt lat="47.18623" lon="6.44712">
        <ele>722</ele>
        <time>2016-08-17T14:20:17Z</time>
      </trkpt>
      <trkpt lat="47.18619" lon="6.44728">
        <ele>722</ele>
        <time>2016-08-17T14:20:21Z</time>
      </trkpt>
      <trkpt lat="47.18614" lon="6.44745">
        <ele>722</ele>
        <time>2016-08-17T14:20:25Z</time>
      </trkpt>
      <trkpt lat="47.18608" lon="6.44764">
        <ele>720</ele>
        <time>2016-08-17T14:20:29Z</time>
      </trkpt>
      <trkpt lat="47.18603" lon="6.44783">
        <ele>719</ele>
        <time>2016-08-17T14:20:33Z</time>
      </trkpt>
      <trkpt lat="47.18598" lon="6.44797">
        <ele>719</ele>
        <time>2016-08-17T14:20:37Z</time>
      </trkpt>
      <trkpt lat="47.18596" lon="6.44813">
        <ele>719</ele>
        <time>2016-08-17T14:20:39Z</time>
      </trkpt>
      <trkpt lat="47.18586" lon="6.44839">
        <ele>717</ele>
        <time>2016-08-17T14:20:43Z</time>
      </trkpt>
      <trkpt lat="47.18577" lon="6.4486">
        <ele>717</ele>
        <time>2016-08-17T14:20:45Z</time>
      </trkpt>
      <trkpt lat="47.1857" lon="6.4488">
        <ele>717</ele>
        <time>2016-08-17T14:20:47Z</time>
      </trkpt>
      <trkpt lat="47.18564" lon="6.44895">
        <ele>717</ele>
        <time>2016-08-17T14:20:49Z</time>
      </trkpt>
      <trkpt lat="47.1855" lon="6.44881">
        <ele>717</ele>
        <time>2016-08-17T14:20:53Z</time>
      </trkpt>
      <trkpt lat="47.18537" lon="6.44874">
        <ele>718</ele>
        <time>2016-08-17T14:20:55Z</time>
      </trkpt>
      <trkpt lat="47.18525" lon="6.44872">
        <ele>718</ele>
        <time>2016-08-17T14:20:57Z</time>
      </trkpt>
      <trkpt lat="47.18509" lon="6.44863">
        <ele>718</ele>
        <time>2016-08-17T14:21:01Z</time>
      </trkpt>
      <trkpt lat="47.18501" lon="6.44858">
        <ele>718</ele>
        <time>2016-08-17T14:21:03Z</time>
      </trkpt>
      <trkpt lat="47.18496" lon="6.44844">
        <ele>719</ele>
        <time>2016-08-17T14:21:05Z</time>
      </trkpt>
      <trkpt lat="47.18492" lon="6.44832">
        <ele>718</ele>
        <time>2016-08-17T14:21:07Z</time>
      </trkpt>
      <trkpt lat="47.18484" lon="6.4482">
        <ele>719</ele>
        <time>2016-08-17T14:21:09Z</time>
      </trkpt>
      <trkpt lat="47.18477" lon="6.4481">
        <ele>720</ele>
        <time>2016-08-17T14:21:11Z</time>
      </trkpt>
      <trkpt lat="47.1847" lon="6.44797">
        <ele>721</ele>
        <time>2016-08-17T14:21:13Z</time>
      </trkpt>
      <trkpt lat="47.18461" lon="6.44787">
        <ele>721</ele>
        <time>2016-08-17T14:21:15Z</time>
      </trkpt>
      <trkpt lat="47.18454" lon="6.44777">
        <ele>721</ele>
        <time>2016-08-17T14:21:17Z</time>
      </trkpt>
      <trkpt lat="47.18447" lon="6.44767">
        <ele>721</ele>
        <time>2016-08-17T14:21:19Z</time>
      </trkpt>
      <trkpt lat="47.18439" lon="6.44761">
        <ele>721</ele>
        <time>2016-08-17T14:21:21Z</time>
      </trkpt>
      <trkpt lat="47.18423" lon="6.44749">
        <ele>721</ele>
        <time>2016-08-17T14:21:25Z</time>
      </trkpt>
      <trkpt lat="47.18415" lon="6.44739">
        <ele>720</ele>
        <time>2016-08-17T14:21:27Z</time>
      </trkpt>
      <trkpt lat="47.18407" lon="6.44731">
        <ele>721</ele>
        <time>2016-08-17T14:21:31Z</time>
      </trkpt>
      <trkpt lat="47.18404" lon="6.44709">
        <ele>721</ele>
        <time>2016-08-17T14:21:35Z</time>
      </trkpt>
      <trkpt lat="47.18387" lon="6.4471">
        <ele>721</ele>
        <time>2016-08-17T14:21:37Z</time>
      </trkpt>
      <trkpt lat="47.18378" lon="6.44702">
        <ele>721</ele>
        <time>2016-08-17T14:21:39Z</time>
      </trkpt>
      <trkpt lat="47.18233" lon="6.44569">
        <ele>729</ele>
        <time>2016-08-17T14:22:12Z</time>
      </trkpt>
      <trkpt lat="47.18221" lon="6.44549">
        <ele>731</ele>
        <time>2016-08-17T14:22:17Z</time>
      </trkpt>
      <trkpt lat="47.18209" lon="6.44537">
        <ele>731</ele>
        <time>2016-08-17T14:22:22Z</time>
      </trkpt>
      <trkpt lat="47.18201" lon="6.44525">
        <ele>732</ele>
        <time>2016-08-17T14:22:26Z</time>
      </trkpt>
      <trkpt lat="47.18195" lon="6.44508">
        <ele>732</ele>
        <time>2016-08-17T14:22:30Z</time>
      </trkpt>
      <trkpt lat="47.18186" lon="6.44491">
        <ele>735</ele>
        <time>2016-08-17T14:22:34Z</time>
      </trkpt>
      <trkpt lat="47.18178" lon="6.44476">
        <ele>735</ele>
        <time>2016-08-17T14:22:38Z</time>
      </trkpt>
      <trkpt lat="47.18168" lon="6.44462">
        <ele>736</ele>
        <time>2016-08-17T14:22:42Z</time>
      </trkpt>
      <trkpt lat="47.18157" lon="6.44448">
        <ele>737</ele>
        <time>2016-08-17T14:22:46Z</time>
      </trkpt>
      <trkpt lat="47.18148" lon="6.44428">
        <ele>737</ele>
        <time>2016-08-17T14:22:50Z</time>
      </trkpt>
      <trkpt lat="47.18134" lon="6.44416">
        <ele>739</ele>
        <time>2016-08-17T14:22:54Z</time>
      </trkpt>
      <trkpt lat="47.18125" lon="6.44409">
        <ele>739</ele>
        <time>2016-08-17T14:22:56Z</time>
      </trkpt>
      <trkpt lat="47.18112" lon="6.44392">
        <ele>739</ele>
        <time>2016-08-17T14:23:00Z</time>
      </trkpt>
      <trkpt lat="47.18099" lon="6.44377">
        <ele>739</ele>
        <time>2016-08-17T14:23:04Z</time>
      </trkpt>
      <trkpt lat="47.1809" lon="6.44366">
        <ele>739</ele>
        <time>2016-08-17T14:23:08Z</time>
      </trkpt>
      <trkpt lat="47.18079" lon="6.44357">
        <ele>739</ele>
        <time>2016-08-17T14:23:12Z</time>
      </trkpt>
      <trkpt lat="47.1807" lon="6.44348">
        <ele>739</ele>
        <time>2016-08-17T14:23:16Z</time>
      </trkpt>
      <trkpt lat="47.18058" lon="6.44336">
        <ele>739</ele>
        <time>2016-08-17T14:23:20Z</time>
      </trkpt>
      <trkpt lat="47.18046" lon="6.44321">
        <ele>741</ele>
        <time>2016-08-17T14:23:24Z</time>
      </trkpt>
      <trkpt lat="47.18033" lon="6.44308">
        <ele>741</ele>
        <time>2016-08-17T14:23:28Z</time>
      </trkpt>
      <trkpt lat="47.18019" lon="6.44296">
        <ele>741</ele>
        <time>2016-08-17T14:23:32Z</time>
      </trkpt>
      <trkpt lat="47.18006" lon="6.44281">
        <ele>742</ele>
        <time>2016-08-17T14:23:36Z</time>
      </trkpt>
      <trkpt lat="47.17992" lon="6.44273">
        <ele>741</ele>
        <time>2016-08-17T14:23:40Z</time>
      </trkpt>
      <trkpt lat="47.17978" lon="6.44264">
        <ele>741</ele>
        <time>2016-08-17T14:23:44Z</time>
      </trkpt>
      <trkpt lat="47.17963" lon="6.44252">
        <ele>741</ele>
        <time>2016-08-17T14:23:48Z</time>
      </trkpt>
      <trkpt lat="47.17948" lon="6.44242">
        <ele>743</ele>
        <time>2016-08-17T14:23:52Z</time>
      </trkpt>
      <trkpt lat="47.17938" lon="6.44229">
        <ele>743</ele>
        <time>2016-08-17T14:23:56Z</time>
      </trkpt>
      <trkpt lat="47.17927" lon="6.44227">
        <ele>743</ele>
        <time>2016-08-17T14:24:02Z</time>
      </trkpt>
      <trkpt lat="47.17927" lon="6.44244">
        <ele>741</ele>
        <time>2016-08-17T14:24:10Z</time>
      </trkpt>
      <trkpt lat="47.17927" lon="6.44259">
        <ele>740</ele>
        <time>2016-08-17T14:24:12Z</time>
      </trkpt>
      <trkpt lat="47.17924" lon="6.44276">
        <ele>740</ele>
        <time>2016-08-17T14:24:16Z</time>
      </trkpt>
      <trkpt lat="47.17919" lon="6.44296">
        <ele>740</ele>
        <time>2016-08-17T14:24:20Z</time>
      </trkpt>
      <trkpt lat="47.17913" lon="6.44314">
        <ele>741</ele>
        <time>2016-08-17T14:24:24Z</time>
      </trkpt>
      <trkpt lat="47.17908" lon="6.44331">
        <ele>741</ele>
        <time>2016-08-17T14:24:28Z</time>
      </trkpt>
      <trkpt lat="47.17903" lon="6.44351">
        <ele>741</ele>
        <time>2016-08-17T14:24:32Z</time>
      </trkpt>
      <trkpt lat="47.17899" lon="6.44374">
        <ele>741</ele>
        <time>2016-08-17T14:24:36Z</time>
      </trkpt>
      <trkpt lat="47.17892" lon="6.44396">
        <ele>741</ele>
        <time>2016-08-17T14:24:40Z</time>
      </trkpt>
      <trkpt lat="47.17884" lon="6.44414">
        <ele>741</ele>
        <time>2016-08-17T14:24:44Z</time>
      </trkpt>
      <trkpt lat="47.17878" lon="6.44435">
        <ele>740</ele>
        <time>2016-08-17T14:24:48Z</time>
      </trkpt>
      <trkpt lat="47.17878" lon="6.44453">
        <ele>740</ele>
        <time>2016-08-17T14:24:52Z</time>
      </trkpt>
      <trkpt lat="47.17882" lon="6.44467">
        <ele>740</ele>
        <time>2016-08-17T14:24:58Z</time>
      </trkpt>
      <trkpt lat="47.17877" lon="6.44489">
        <ele>739</ele>
        <time>2016-08-17T14:25:08Z</time>
      </trkpt>
      <trkpt lat="47.17872" lon="6.44514">
        <ele>739</ele>
        <time>2016-08-17T14:25:12Z</time>
      </trkpt>
      <trkpt lat="47.17874" lon="6.44528">
        <ele>740</ele>
        <time>2016-08-17T14:25:14Z</time>
      </trkpt>
      <trkpt lat="47.17864" lon="6.44545">
        <ele>740</ele>
        <time>2016-08-17T14:25:16Z</time>
      </trkpt>
      <trkpt lat="47.1786" lon="6.44561">
        <ele>740</ele>
        <time>2016-08-17T14:25:18Z</time>
      </trkpt>
      <trkpt lat="47.17857" lon="6.44578">
        <ele>741</ele>
        <time>2016-08-17T14:25:20Z</time>
      </trkpt>
      <trkpt lat="47.17856" lon="6.44595">
        <ele>742</ele>
        <time>2016-08-17T14:25:22Z</time>
      </trkpt>
      <trkpt lat="47.17852" lon="6.44611">
        <ele>743</ele>
        <time>2016-08-17T14:25:24Z</time>
      </trkpt>
      <trkpt lat="47.17847" lon="6.44626">
        <ele>743</ele>
        <time>2016-08-17T14:25:26Z</time>
      </trkpt>
      <trkpt lat="47.17843" lon="6.44644">
        <ele>743</ele>
        <time>2016-08-17T14:25:28Z</time>
      </trkpt>
      <trkpt lat="47.1784" lon="6.44661">
        <ele>744</ele>
        <time>2016-08-17T14:25:30Z</time>
      </trkpt>
      <trkpt lat="47.17836" lon="6.4468">
        <ele>743</ele>
        <time>2016-08-17T14:25:32Z</time>
      </trkpt>
      <trkpt lat="47.17829" lon="6.44698">
        <ele>742</ele>
        <time>2016-08-17T14:25:34Z</time>
      </trkpt>
      <trkpt lat="47.1783" lon="6.44712">
        <ele>741</ele>
        <time>2016-08-17T14:25:36Z</time>
      </trkpt>
      <trkpt lat="47.17823" lon="6.44728">
        <ele>741</ele>
        <time>2016-08-17T14:25:38Z</time>
      </trkpt>
      <trkpt lat="47.17815" lon="6.44744">
        <ele>741</ele>
        <time>2016-08-17T14:25:40Z</time>
      </trkpt>
      <trkpt lat="47.1781" lon="6.44761">
        <ele>738</ele>
        <time>2016-08-17T14:25:42Z</time>
      </trkpt>
      <trkpt lat="47.17802" lon="6.44777">
        <ele>737</ele>
        <time>2016-08-17T14:25:44Z</time>
      </trkpt>
      <trkpt lat="47.17795" lon="6.44792">
        <ele>736</ele>
        <time>2016-08-17T14:25:46Z</time>
      </trkpt>
      <trkpt lat="47.17791" lon="6.4481">
        <ele>736</ele>
        <time>2016-08-17T14:25:48Z</time>
      </trkpt>
      <trkpt lat="47.17783" lon="6.4482">
        <ele>736</ele>
        <time>2016-08-17T14:25:50Z</time>
      </trkpt>
      <trkpt lat="47.17774" lon="6.4486">
        <ele>730</ele>
        <time>2016-08-17T14:25:54Z</time>
      </trkpt>
      <trkpt lat="47.1777" lon="6.44879">
        <ele>729</ele>
        <time>2016-08-17T14:25:56Z</time>
      </trkpt>
      <trkpt lat="47.17766" lon="6.44908">
        <ele>727</ele>
        <time>2016-08-17T14:25:58Z</time>
      </trkpt>
      <trkpt lat="47.17758" lon="6.44917">
        <ele>727</ele>
        <time>2016-08-17T14:26:00Z</time>
      </trkpt>
      <trkpt lat="47.17746" lon="6.44918">
        <ele>725</ele>
        <time>2016-08-17T14:26:04Z</time>
      </trkpt>
      <trkpt lat="47.17738" lon="6.44926">
        <ele>722</ele>
        <time>2016-08-17T14:26:06Z</time>
      </trkpt>
      <trkpt lat="47.17731" lon="6.44939">
        <ele>720</ele>
        <time>2016-08-17T14:26:10Z</time>
      </trkpt>
      <trkpt lat="47.17727" lon="6.44952">
        <ele>719</ele>
        <time>2016-08-17T14:26:14Z</time>
      </trkpt>
      <trkpt lat="47.17731" lon="6.44977">
        <ele>717</ele>
        <time>2016-08-17T14:26:20Z</time>
      </trkpt>
      <trkpt lat="47.17738" lon="6.44987">
        <ele>716</ele>
        <time>2016-08-17T14:26:22Z</time>
      </trkpt>
      <trkpt lat="47.17745" lon="6.44998">
        <ele>715</ele>
        <time>2016-08-17T14:26:24Z</time>
      </trkpt>
      <trkpt lat="47.17753" lon="6.45005">
        <ele>714</ele>
        <time>2016-08-17T14:26:26Z</time>
      </trkpt>
      <trkpt lat="47.17763" lon="6.45012">
        <ele>714</ele>
        <time>2016-08-17T14:26:28Z</time>
      </trkpt>
      <trkpt lat="47.17779" lon="6.45025">
        <ele>714</ele>
        <time>2016-08-17T14:26:32Z</time>
      </trkpt>
      <trkpt lat="47.17791" lon="6.45032">
        <ele>714</ele>
        <time>2016-08-17T14:26:34Z</time>
      </trkpt>
      <trkpt lat="47.17801" lon="6.45042">
        <ele>714</ele>
        <time>2016-08-17T14:26:36Z</time>
      </trkpt>
      <trkpt lat="47.17812" lon="6.45053">
        <ele>714</ele>
        <time>2016-08-17T14:26:38Z</time>
      </trkpt>
      <trkpt lat="47.17822" lon="6.45061">
        <ele>714</ele>
        <time>2016-08-17T14:26:40Z</time>
      </trkpt>
      <trkpt lat="47.17831" lon="6.45073">
        <ele>714</ele>
        <time>2016-08-17T14:26:42Z</time>
      </trkpt>
      <trkpt lat="47.1784" lon="6.45081">
        <ele>715</ele>
        <time>2016-08-17T14:26:44Z</time>
      </trkpt>
      <trkpt lat="47.1785" lon="6.45091">
        <ele>712</ele>
        <time>2016-08-17T14:26:46Z</time>
      </trkpt>
      <trkpt lat="47.17859" lon="6.45102">
        <ele>712</ele>
        <time>2016-08-17T14:26:48Z</time>
      </trkpt>
      <trkpt lat="47.17866" lon="6.45113">
        <ele>711</ele>
        <time>2016-08-17T14:26:50Z</time>
      </trkpt>
      <trkpt lat="47.17869" lon="6.45129">
        <ele>711</ele>
        <time>2016-08-17T14:26:52Z</time>
      </trkpt>
      <trkpt lat="47.17868" lon="6.45146">
        <ele>710</ele>
        <time>2016-08-17T14:26:54Z</time>
      </trkpt>
      <trkpt lat="47.17866" lon="6.45163">
        <ele>709</ele>
        <time>2016-08-17T14:26:56Z</time>
      </trkpt>
      <trkpt lat="47.17864" lon="6.45182">
        <ele>706</ele>
        <time>2016-08-17T14:26:58Z</time>
      </trkpt>
      <trkpt lat="47.1786" lon="6.45201">
        <ele>705</ele>
        <time>2016-08-17T14:27:00Z</time>
      </trkpt>
      <trkpt lat="47.17855" lon="6.45221">
        <ele>705</ele>
        <time>2016-08-17T14:27:02Z</time>
      </trkpt>
      <trkpt lat="47.17851" lon="6.4524">
        <ele>704</ele>
        <time>2016-08-17T14:27:04Z</time>
      </trkpt>
      <trkpt lat="47.17847" lon="6.45262">
        <ele>703</ele>
        <time>2016-08-17T14:27:06Z</time>
      </trkpt>
      <trkpt lat="47.17843" lon="6.45279">
        <ele>703</ele>
        <time>2016-08-17T14:27:08Z</time>
      </trkpt>
      <trkpt lat="47.17841" lon="6.453">
        <ele>703</ele>
        <time>2016-08-17T14:27:10Z</time>
      </trkpt>
      <trkpt lat="47.17839" lon="6.45317">
        <ele>703</ele>
        <time>2016-08-17T14:27:12Z</time>
      </trkpt>
      <trkpt lat="47.17838" lon="6.45338">
        <ele>702</ele>
        <time>2016-08-17T14:27:14Z</time>
      </trkpt>
      <trkpt lat="47.17836" lon="6.45354">
        <ele>703</ele>
        <time>2016-08-17T14:27:16Z</time>
      </trkpt>
      <trkpt lat="47.17836" lon="6.45371">
        <ele>704</ele>
        <time>2016-08-17T14:27:18Z</time>
      </trkpt>
      <trkpt lat="47.17833" lon="6.45385">
        <ele>704</ele>
        <time>2016-08-17T14:27:20Z</time>
      </trkpt>
      <trkpt lat="47.17829" lon="6.45409">
        <ele>705</ele>
        <time>2016-08-17T14:27:24Z</time>
      </trkpt>
      <trkpt lat="47.17823" lon="6.45435">
        <ele>705</ele>
        <time>2016-08-17T14:27:28Z</time>
      </trkpt>
      <trkpt lat="47.17821" lon="6.45448">
        <ele>705</ele>
        <time>2016-08-17T14:27:30Z</time>
      </trkpt>
      <trkpt lat="47.17816" lon="6.45473">
        <ele>705</ele>
        <time>2016-08-17T14:27:34Z</time>
      </trkpt>
      <trkpt lat="47.17811" lon="6.45499">
        <ele>705</ele>
        <time>2016-08-17T14:27:38Z</time>
      </trkpt>
      <trkpt lat="47.17806" lon="6.45521">
        <ele>705</ele>
        <time>2016-08-17T14:27:42Z</time>
      </trkpt>
      <trkpt lat="47.17801" lon="6.45536">
        <ele>705</ele>
        <time>2016-08-17T14:27:46Z</time>
      </trkpt>
      <trkpt lat="47.17787" lon="6.45551">
        <ele>705</ele>
        <time>2016-08-17T14:27:50Z</time>
      </trkpt>
      <trkpt lat="47.17779" lon="6.45559">
        <ele>705</ele>
        <time>2016-08-17T14:27:52Z</time>
      </trkpt>
      <trkpt lat="47.17764" lon="6.45573">
        <ele>705</ele>
        <time>2016-08-17T14:27:56Z</time>
      </trkpt>
      <trkpt lat="47.1775" lon="6.45585">
        <ele>706</ele>
        <time>2016-08-17T14:28:00Z</time>
      </trkpt>
      <trkpt lat="47.17741" lon="6.4559">
        <ele>706</ele>
        <time>2016-08-17T14:28:02Z</time>
      </trkpt>
      <trkpt lat="47.17734" lon="6.45598">
        <ele>706</ele>
        <time>2016-08-17T14:28:04Z</time>
      </trkpt>
      <trkpt lat="47.17726" lon="6.45606">
        <ele>707</ele>
        <time>2016-08-17T14:28:06Z</time>
      </trkpt>
      <trkpt lat="47.17712" lon="6.4562">
        <ele>707</ele>
        <time>2016-08-17T14:28:10Z</time>
      </trkpt>
      <trkpt lat="47.177" lon="6.45634">
        <ele>707</ele>
        <time>2016-08-17T14:28:14Z</time>
      </trkpt>
      <trkpt lat="47.17687" lon="6.45649">
        <ele>707</ele>
        <time>2016-08-17T14:28:18Z</time>
      </trkpt>
      <trkpt lat="47.17679" lon="6.45655">
        <ele>707</ele>
        <time>2016-08-17T14:28:20Z</time>
      </trkpt>
      <trkpt lat="47.17666" lon="6.45672">
        <ele>708</ele>
        <time>2016-08-17T14:28:24Z</time>
      </trkpt>
      <trkpt lat="47.17658" lon="6.45679">
        <ele>709</ele>
        <time>2016-08-17T14:28:26Z</time>
      </trkpt>
      <trkpt lat="47.17651" lon="6.45689">
        <ele>709</ele>
        <time>2016-08-17T14:28:28Z</time>
      </trkpt>
      <trkpt lat="47.17643" lon="6.45697">
        <ele>710</ele>
        <time>2016-08-17T14:28:30Z</time>
      </trkpt>
      <trkpt lat="47.17635" lon="6.45704">
        <ele>710</ele>
        <time>2016-08-17T14:28:32Z</time>
      </trkpt>
      <trkpt lat="47.17628" lon="6.45713">
        <ele>710</ele>
        <time>2016-08-17T14:28:34Z</time>
      </trkpt>
      <trkpt lat="47.17621" lon="6.45722">
        <ele>710</ele>
        <time>2016-08-17T14:28:36Z</time>
      </trkpt>
      <trkpt lat="47.17613" lon="6.45729">
        <ele>710</ele>
        <time>2016-08-17T14:28:38Z</time>
      </trkpt>
      <trkpt lat="47.17605" lon="6.45739">
        <ele>710</ele>
        <time>2016-08-17T14:28:40Z</time>
      </trkpt>
      <trkpt lat="47.17596" lon="6.45748">
        <ele>711</ele>
        <time>2016-08-17T14:28:42Z</time>
      </trkpt>
      <trkpt lat="47.17588" lon="6.45757">
        <ele>712</ele>
        <time>2016-08-17T14:28:44Z</time>
      </trkpt>
      <trkpt lat="47.17581" lon="6.45766">
        <ele>712</ele>
        <time>2016-08-17T14:28:46Z</time>
      </trkpt>
      <trkpt lat="47.17567" lon="6.45781">
        <ele>713</ele>
        <time>2016-08-17T14:28:50Z</time>
      </trkpt>
      <trkpt lat="47.17554" lon="6.45798">
        <ele>714</ele>
        <time>2016-08-17T14:28:54Z</time>
      </trkpt>
      <trkpt lat="47.17546" lon="6.45809">
        <ele>714</ele>
        <time>2016-08-17T14:28:56Z</time>
      </trkpt>
      <trkpt lat="47.17532" lon="6.45824">
        <ele>714</ele>
        <time>2016-08-17T14:29:00Z</time>
      </trkpt>
      <trkpt lat="47.17517" lon="6.4584">
        <ele>716</ele>
        <time>2016-08-17T14:29:04Z</time>
      </trkpt>
      <trkpt lat="47.17508" lon="6.45848">
        <ele>716</ele>
        <time>2016-08-17T14:29:06Z</time>
      </trkpt>
      <trkpt lat="47.17501" lon="6.45855">
        <ele>716</ele>
        <time>2016-08-17T14:29:08Z</time>
      </trkpt>
      <trkpt lat="47.17492" lon="6.45863">
        <ele>718</ele>
        <time>2016-08-17T14:29:10Z</time>
      </trkpt>
      <trkpt lat="47.17484" lon="6.45871">
        <ele>719</ele>
        <time>2016-08-17T14:29:12Z</time>
      </trkpt>
      <trkpt lat="47.1747" lon="6.4589">
        <ele>720</ele>
        <time>2016-08-17T14:29:16Z</time>
      </trkpt>
      <trkpt lat="47.17463" lon="6.45899">
        <ele>720</ele>
        <time>2016-08-17T14:29:18Z</time>
      </trkpt>
      <trkpt lat="47.1745" lon="6.45913">
        <ele>721</ele>
        <time>2016-08-17T14:29:22Z</time>
      </trkpt>
      <trkpt lat="47.17438" lon="6.45915">
        <ele>721</ele>
        <time>2016-08-17T14:29:26Z</time>
      </trkpt>
      <trkpt lat="47.17427" lon="6.45913">
        <ele>722</ele>
        <time>2016-08-17T14:29:32Z</time>
      </trkpt>
      <trkpt lat="47.17418" lon="6.45909">
        <ele>722</ele>
        <time>2016-08-17T14:29:36Z</time>
      </trkpt>
      <trkpt lat="47.17407" lon="6.45909">
        <ele>723</ele>
        <time>2016-08-17T14:29:42Z</time>
      </trkpt>
      <trkpt lat="47.17393" lon="6.4591">
        <ele>723</ele>
        <time>2016-08-17T14:29:46Z</time>
      </trkpt>
      <trkpt lat="47.17381" lon="6.45913">
        <ele>723</ele>
        <time>2016-08-17T14:29:50Z</time>
      </trkpt>
      <trkpt lat="47.17369" lon="6.45922">
        <ele>722</ele>
        <time>2016-08-17T14:29:54Z</time>
      </trkpt>
      <trkpt lat="47.17355" lon="6.45928">
        <ele>722</ele>
        <time>2016-08-17T14:29:58Z</time>
      </trkpt>
      <trkpt lat="47.17343" lon="6.45934">
        <ele>722</ele>
        <time>2016-08-17T14:30:02Z</time>
      </trkpt>
      <trkpt lat="47.17335" lon="6.4594">
        <ele>722</ele>
        <time>2016-08-17T14:30:08Z</time>
      </trkpt>
      <trkpt lat="47.17344" lon="6.45938">
        <ele>722</ele>
        <time>2016-08-17T14:30:14Z</time>
      </trkpt>
      <trkpt lat="47.17355" lon="6.45931">
        <ele>722</ele>
        <time>2016-08-17T14:30:18Z</time>
      </trkpt>
      <trkpt lat="47.1737" lon="6.45926">
        <ele>722</ele>
        <time>2016-08-17T14:30:22Z</time>
      </trkpt>
      <trkpt lat="47.17387" lon="6.45919">
        <ele>722</ele>
        <time>2016-08-17T14:30:26Z</time>
      </trkpt>
      <trkpt lat="47.17396" lon="6.45918">
        <ele>723</ele>
        <time>2016-08-17T14:30:28Z</time>
      </trkpt>
      <trkpt lat="47.17406" lon="6.45917">
        <ele>723</ele>
        <time>2016-08-17T14:30:30Z</time>
      </trkpt>
      <trkpt lat="47.17421" lon="6.45917">
        <ele>723</ele>
        <time>2016-08-17T14:30:34Z</time>
      </trkpt>
      <trkpt lat="47.1743" lon="6.45931">
        <ele>723</ele>
        <time>2016-08-17T14:30:46Z</time>
      </trkpt>
      <trkpt lat="47.17433" lon="6.45944">
        <ele>723</ele>
        <time>2016-08-17T14:30:50Z</time>
      </trkpt>
      <trkpt lat="47.17445" lon="6.45962">
        <ele>723</ele>
        <time>2016-08-17T14:30:56Z</time>
      </trkpt>
      <trkpt lat="47.17453" lon="6.45971">
        <ele>723</ele>
        <time>2016-08-17T14:31:10Z</time>
      </trkpt>
      <trkpt lat="47.17458" lon="6.45983">
        <ele>723</ele>
        <time>2016-08-17T14:31:28Z</time>
      </trkpt>
      <trkpt lat="47.17465" lon="6.46002">
        <ele>724</ele>
        <time>2016-08-17T14:31:34Z</time>
      </trkpt>
      <trkpt lat="47.17472" lon="6.46014">
        <ele>724</ele>
        <time>2016-08-17T14:31:38Z</time>
      </trkpt>
      <trkpt lat="47.1748" lon="6.46025">
        <ele>724</ele>
        <time>2016-08-17T14:31:44Z</time>
      </trkpt>
      <trkpt lat="47.1749" lon="6.46042">
        <ele>724</ele>
        <time>2016-08-17T14:31:50Z</time>
      </trkpt>
      <trkpt lat="47.17498" lon="6.46053">
        <ele>724</ele>
        <time>2016-08-17T14:31:54Z</time>
      </trkpt>
      <trkpt lat="47.17499" lon="6.4607">
        <ele>724</ele>
        <time>2016-08-17T14:32:00Z</time>
      </trkpt>
      <trkpt lat="47.175" lon="6.46087">
        <ele>723</ele>
        <time>2016-08-17T14:32:04Z</time>
      </trkpt>
      <trkpt lat="47.17503" lon="6.46101">
        <ele>723</ele>
        <time>2016-08-17T14:32:08Z</time>
      </trkpt>
      <trkpt lat="47.17514" lon="6.46115">
        <ele>722</ele>
        <time>2016-08-17T14:32:12Z</time>
      </trkpt>
      <trkpt lat="47.17522" lon="6.46124">
        <ele>722</ele>
        <time>2016-08-17T14:32:16Z</time>
      </trkpt>
      <trkpt lat="47.1753" lon="6.46138">
        <ele>721</ele>
        <time>2016-08-17T14:32:20Z</time>
      </trkpt>
      <trkpt lat="47.17534" lon="6.46153">
        <ele>721</ele>
        <time>2016-08-17T14:32:24Z</time>
      </trkpt>
      <trkpt lat="47.17539" lon="6.46167">
        <ele>719</ele>
        <time>2016-08-17T14:32:28Z</time>
      </trkpt>
      <trkpt lat="47.17544" lon="6.46185">
        <ele>719</ele>
        <time>2016-08-17T14:32:32Z</time>
      </trkpt>
      <trkpt lat="47.17557" lon="6.46203">
        <ele>719</ele>
        <time>2016-08-17T14:32:36Z</time>
      </trkpt>
      <trkpt lat="47.17564" lon="6.46213">
        <ele>718</ele>
        <time>2016-08-17T14:32:38Z</time>
      </trkpt>
      <trkpt lat="47.17569" lon="6.46228">
        <ele>718</ele>
        <time>2016-08-17T14:32:44Z</time>
      </trkpt>
      <trkpt lat="47.1758" lon="6.46233">
        <ele>718</ele>
        <time>2016-08-17T14:32:49Z</time>
      </trkpt>
      <trkpt lat="47.17588" lon="6.46231">
        <ele>717</ele>
        <time>2016-08-17T14:32:50Z</time>
      </trkpt>
      <trkpt lat="47.17604" lon="6.46223">
        <ele>717</ele>
        <time>2016-08-17T14:32:54Z</time>
      </trkpt>
      <trkpt lat="47.17621" lon="6.46219">
        <ele>717</ele>
        <time>2016-08-17T14:32:58Z</time>
      </trkpt>
      <trkpt lat="47.17638" lon="6.46213">
        <ele>717</ele>
        <time>2016-08-17T14:33:02Z</time>
      </trkpt>
      <trkpt lat="47.17648" lon="6.46211">
        <ele>717</ele>
        <time>2016-08-17T14:33:04Z</time>
      </trkpt>
      <trkpt lat="47.17658" lon="6.46208">
        <ele>717</ele>
        <time>2016-08-17T14:33:06Z</time>
      </trkpt>
      <trkpt lat="47.17669" lon="6.46205">
        <ele>715</ele>
        <time>2016-08-17T14:33:09Z</time>
      </trkpt>
      <trkpt lat="47.1768" lon="6.46204">
        <ele>715</ele>
        <time>2016-08-17T14:33:10Z</time>
      </trkpt>
      <trkpt lat="47.17692" lon="6.46202">
        <ele>715</ele>
        <time>2016-08-17T14:33:12Z</time>
      </trkpt>
      <trkpt lat="47.17704" lon="6.46199">
        <ele>715</ele>
        <time>2016-08-17T14:33:14Z</time>
      </trkpt>
      <trkpt lat="47.17716" lon="6.46195">
        <ele>714</ele>
        <time>2016-08-17T14:33:16Z</time>
      </trkpt>
      <trkpt lat="47.17728" lon="6.46191">
        <ele>714</ele>
        <time>2016-08-17T14:33:18Z</time>
      </trkpt>
      <trkpt lat="47.1774" lon="6.46185">
        <ele>714</ele>
        <time>2016-08-17T14:33:20Z</time>
      </trkpt>
      <trkpt lat="47.17751" lon="6.46177">
        <ele>714</ele>
        <time>2016-08-17T14:33:22Z</time>
      </trkpt>
      <trkpt lat="47.17762" lon="6.46169">
        <ele>714</ele>
        <time>2016-08-17T14:33:24Z</time>
      </trkpt>
      <trkpt lat="47.17772" lon="6.46173">
        <ele>714</ele>
        <time>2016-08-17T14:33:26Z</time>
      </trkpt>
      <trkpt lat="47.17776" lon="6.46188">
        <ele>714</ele>
        <time>2016-08-17T14:33:28Z</time>
      </trkpt>
      <trkpt lat="47.17779" lon="6.46205">
        <ele>714</ele>
        <time>2016-08-17T14:33:30Z</time>
      </trkpt>
      <trkpt lat="47.17781" lon="6.46221">
        <ele>714</ele>
        <time>2016-08-17T14:33:32Z</time>
      </trkpt>
      <trkpt lat="47.17783" lon="6.46238">
        <ele>714</ele>
        <time>2016-08-17T14:33:34Z</time>
      </trkpt>
      <trkpt lat="47.17785" lon="6.46256">
        <ele>714</ele>
        <time>2016-08-17T14:33:36Z</time>
      </trkpt>
      <trkpt lat="47.17788" lon="6.46273">
        <ele>714</ele>
        <time>2016-08-17T14:33:38Z</time>
      </trkpt>
      <trkpt lat="47.17791" lon="6.46293">
        <ele>713</ele>
        <time>2016-08-17T14:33:40Z</time>
      </trkpt>
      <trkpt lat="47.17795" lon="6.46316">
        <ele>713</ele>
        <time>2016-08-17T14:33:42Z</time>
      </trkpt>
      <trkpt lat="47.17798" lon="6.46339">
        <ele>712</ele>
        <time>2016-08-17T14:33:44Z</time>
      </trkpt>
      <trkpt lat="47.17801" lon="6.46362">
        <ele>712</ele>
        <time>2016-08-17T14:33:46Z</time>
      </trkpt>
      <trkpt lat="47.17804" lon="6.46386">
        <ele>711</ele>
        <time>2016-08-17T14:33:48Z</time>
      </trkpt>
      <trkpt lat="47.17808" lon="6.4641">
        <ele>711</ele>
        <time>2016-08-17T14:33:50Z</time>
      </trkpt>
      <trkpt lat="47.1781" lon="6.46433">
        <ele>710</ele>
        <time>2016-08-17T14:33:52Z</time>
      </trkpt>
      <trkpt lat="47.17813" lon="6.46455">
        <ele>710</ele>
        <time>2016-08-17T14:33:54Z</time>
      </trkpt>
      <trkpt lat="47.17816" lon="6.46475">
        <ele>710</ele>
        <time>2016-08-17T14:33:56Z</time>
      </trkpt>
      <trkpt lat="47.17817" lon="6.46493">
        <ele>710</ele>
        <time>2016-08-17T14:33:58Z</time>
      </trkpt>
      <trkpt lat="47.17818" lon="6.46511">
        <ele>711</ele>
        <time>2016-08-17T14:34:00Z</time>
      </trkpt>
      <trkpt lat="47.17818" lon="6.46528">
        <ele>712</ele>
        <time>2016-08-17T14:34:02Z</time>
      </trkpt>
      <trkpt lat="47.17817" lon="6.46543">
        <ele>712</ele>
        <time>2016-08-17T14:34:04Z</time>
      </trkpt>
      <trkpt lat="47.17815" lon="6.46559">
        <ele>712</ele>
        <time>2016-08-17T14:34:06Z</time>
      </trkpt>
      <trkpt lat="47.17813" lon="6.46573">
        <ele>713</ele>
        <time>2016-08-17T14:34:08Z</time>
      </trkpt>
      <trkpt lat="47.17811" lon="6.46588">
        <ele>714</ele>
        <time>2016-08-17T14:34:10Z</time>
      </trkpt>
      <trkpt lat="47.17809" lon="6.46601">
        <ele>714</ele>
        <time>2016-08-17T14:34:12Z</time>
      </trkpt>
      <trkpt lat="47.17807" lon="6.46614">
        <ele>715</ele>
        <time>2016-08-17T14:34:14Z</time>
      </trkpt>
      <trkpt lat="47.17804" lon="6.46627">
        <ele>715</ele>
        <time>2016-08-17T14:34:16Z</time>
      </trkpt>
      <trkpt lat="47.17801" lon="6.4664">
        <ele>715</ele>
        <time>2016-08-17T14:34:18Z</time>
      </trkpt>
      <trkpt lat="47.17796" lon="6.46665">
        <ele>715</ele>
        <time>2016-08-17T14:34:22Z</time>
      </trkpt>
      <trkpt lat="47.17793" lon="6.46678">
        <ele>714</ele>
        <time>2016-08-17T14:34:24Z</time>
      </trkpt>
      <trkpt lat="47.17789" lon="6.46691">
        <ele>714</ele>
        <time>2016-08-17T14:34:26Z</time>
      </trkpt>
      <trkpt lat="47.17782" lon="6.46711">
        <ele>714</ele>
        <time>2016-08-17T14:34:30Z</time>
      </trkpt>
      <trkpt lat="47.17771" lon="6.46718">
        <ele>714</ele>
        <time>2016-08-17T14:34:32Z</time>
      </trkpt>
      <trkpt lat="47.17757" lon="6.4672">
        <ele>714</ele>
        <time>2016-08-17T14:34:34Z</time>
      </trkpt>
      <trkpt lat="47.17746" lon="6.46727">
        <ele>716</ele>
        <time>2016-08-17T14:34:36Z</time>
      </trkpt>
      <trkpt lat="47.17736" lon="6.46736">
        <ele>716</ele>
        <time>2016-08-17T14:34:38Z</time>
      </trkpt>
      <trkpt lat="47.1773" lon="6.46753">
        <ele>715</ele>
        <time>2016-08-17T14:34:40Z</time>
      </trkpt>
      <trkpt lat="47.17732" lon="6.46777">
        <ele>715</ele>
        <time>2016-08-17T14:34:42Z</time>
      </trkpt>
      <trkpt lat="47.17744" lon="6.46797">
        <ele>715</ele>
        <time>2016-08-17T14:34:44Z</time>
      </trkpt>
      <trkpt lat="47.17753" lon="6.46814">
        <ele>712</ele>
        <time>2016-08-17T14:34:46Z</time>
      </trkpt>
      <trkpt lat="47.17762" lon="6.46836">
        <ele>712</ele>
        <time>2016-08-17T14:34:48Z</time>
      </trkpt>
      <trkpt lat="47.17768" lon="6.46855">
        <ele>712</ele>
        <time>2016-08-17T14:34:50Z</time>
      </trkpt>
      <trkpt lat="47.17771" lon="6.46877">
        <ele>712</ele>
        <time>2016-08-17T14:34:52Z</time>
      </trkpt>
      <trkpt lat="47.17769" lon="6.46897">
        <ele>713</ele>
        <time>2016-08-17T14:34:55Z</time>
      </trkpt>
      <trkpt lat="47.17762" lon="6.46913">
        <ele>714</ele>
        <time>2016-08-17T14:34:56Z</time>
      </trkpt>
      <trkpt lat="47.17752" lon="6.46924">
        <ele>715</ele>
        <time>2016-08-17T14:34:58Z</time>
      </trkpt>
      <trkpt lat="47.17744" lon="6.46932">
        <ele>717</ele>
        <time>2016-08-17T14:35:00Z</time>
      </trkpt>
      <trkpt lat="47.17735" lon="6.4694">
        <ele>718</ele>
        <time>2016-08-17T14:35:02Z</time>
      </trkpt>
      <trkpt lat="47.17727" lon="6.46947">
        <ele>718</ele>
        <time>2016-08-17T14:35:04Z</time>
      </trkpt>
      <trkpt lat="47.17719" lon="6.46954">
        <ele>719</ele>
        <time>2016-08-17T14:35:06Z</time>
      </trkpt>
      <trkpt lat="47.17702" lon="6.46966">
        <ele>720</ele>
        <time>2016-08-17T14:35:10Z</time>
      </trkpt>
      <trkpt lat="47.17689" lon="6.46976">
        <ele>720</ele>
        <time>2016-08-17T14:35:14Z</time>
      </trkpt>
      <trkpt lat="47.17675" lon="6.46979">
        <ele>721</ele>
        <time>2016-08-17T14:35:18Z</time>
      </trkpt>
      <trkpt lat="47.17656" lon="6.46985">
        <ele>722</ele>
        <time>2016-08-17T14:35:22Z</time>
      </trkpt>
      <trkpt lat="47.17641" lon="6.46991">
        <ele>722</ele>
        <time>2016-08-17T14:35:26Z</time>
      </trkpt>
      <trkpt lat="47.17632" lon="6.46996">
        <ele>722</ele>
        <time>2016-08-17T14:35:28Z</time>
      </trkpt>
      <trkpt lat="47.17617" lon="6.47005">
        <ele>723</ele>
        <time>2016-08-17T14:35:32Z</time>
      </trkpt>
      <trkpt lat="47.17614" lon="6.47023">
        <ele>723</ele>
        <time>2016-08-17T14:35:36Z</time>
      </trkpt>
      <trkpt lat="47.17608" lon="6.4704">
        <ele>723</ele>
        <time>2016-08-17T14:35:40Z</time>
      </trkpt>
      <trkpt lat="47.176" lon="6.47059">
        <ele>723</ele>
        <time>2016-08-17T14:35:44Z</time>
      </trkpt>
      <trkpt lat="47.17591" lon="6.47079">
        <ele>722</ele>
        <time>2016-08-17T14:35:48Z</time>
      </trkpt>
      <trkpt lat="47.1758" lon="6.4709">
        <ele>722</ele>
        <time>2016-08-17T14:35:52Z</time>
      </trkpt>
      <trkpt lat="47.17586" lon="6.47112">
        <ele>724</ele>
        <time>2016-08-17T14:35:56Z</time>
      </trkpt>
      <trkpt lat="47.17594" lon="6.47136">
        <ele>725</ele>
        <time>2016-08-17T14:35:58Z</time>
      </trkpt>
      <trkpt lat="47.17585" lon="6.47146">
        <ele>724</ele>
        <time>2016-08-17T14:36:02Z</time>
      </trkpt>
      <trkpt lat="47.17593" lon="6.47157">
        <ele>724</ele>
        <time>2016-08-17T14:36:12Z</time>
      </trkpt>
      <trkpt lat="47.17602" lon="6.47162">
        <ele>725</ele>
        <time>2016-08-17T14:36:16Z</time>
      </trkpt>
      <trkpt lat="47.17611" lon="6.47158">
        <ele>725</ele>
        <time>2016-08-17T14:36:20Z</time>
      </trkpt>
      <trkpt lat="47.17627" lon="6.47169">
        <ele>728</ele>
        <time>2016-08-17T14:36:24Z</time>
      </trkpt>
      <trkpt lat="47.17636" lon="6.4717">
        <ele>728</ele>
        <time>2016-08-17T14:36:28Z</time>
      </trkpt>
      <trkpt lat="47.17652" lon="6.47165">
        <ele>728</ele>
        <time>2016-08-17T14:36:32Z</time>
      </trkpt>
      <trkpt lat="47.17663" lon="6.47164">
        <ele>729</ele>
        <time>2016-08-17T14:36:36Z</time>
      </trkpt>
      <trkpt lat="47.17672" lon="6.47163">
        <ele>730</ele>
        <time>2016-08-17T14:36:40Z</time>
      </trkpt>
      <trkpt lat="47.17684" lon="6.47156">
        <ele>731</ele>
        <time>2016-08-17T14:36:44Z</time>
      </trkpt>
      <trkpt lat="47.17698" lon="6.47152">
        <ele>732</ele>
        <time>2016-08-17T14:36:50Z</time>
      </trkpt>
      <trkpt lat="47.17711" lon="6.47154">
        <ele>733</ele>
        <time>2016-08-17T14:36:54Z</time>
      </trkpt>
      <trkpt lat="47.17719" lon="6.47162">
        <ele>734</ele>
        <time>2016-08-17T14:36:58Z</time>
      </trkpt>
      <trkpt lat="47.17725" lon="6.4718">
        <ele>738</ele>
        <time>2016-08-17T14:37:04Z</time>
      </trkpt>
      <trkpt lat="47.17735" lon="6.47191">
        <ele>739</ele>
        <time>2016-08-17T14:37:08Z</time>
      </trkpt>
      <trkpt lat="47.17743" lon="6.47211">
        <ele>739</ele>
        <time>2016-08-17T14:37:12Z</time>
      </trkpt>
      <trkpt lat="47.1775" lon="6.47221">
        <ele>739</ele>
        <time>2016-08-17T14:37:16Z</time>
      </trkpt>
      <trkpt lat="47.17755" lon="6.47237">
        <ele>741</ele>
        <time>2016-08-17T14:37:20Z</time>
      </trkpt>
      <trkpt lat="47.17763" lon="6.47249">
        <ele>741</ele>
        <time>2016-08-17T14:37:24Z</time>
      </trkpt>
      <trkpt lat="47.1777" lon="6.47265">
        <ele>740</ele>
        <time>2016-08-17T14:37:30Z</time>
      </trkpt>
      <trkpt lat="47.17777" lon="6.47276">
        <ele>739</ele>
        <time>2016-08-17T14:37:34Z</time>
      </trkpt>
      <trkpt lat="47.17781" lon="6.47291">
        <ele>738</ele>
        <time>2016-08-17T14:37:40Z</time>
      </trkpt>
      <trkpt lat="47.17777" lon="6.47305">
        <ele>738</ele>
        <time>2016-08-17T14:37:46Z</time>
      </trkpt>
      <trkpt lat="47.17787" lon="6.47311">
        <ele>738</ele>
        <time>2016-08-17T14:38:00Z</time>
      </trkpt>
      <trkpt lat="47.17796" lon="6.47321">
        <ele>737</ele>
        <time>2016-08-17T14:38:04Z</time>
      </trkpt>
      <trkpt lat="47.17809" lon="6.47326">
        <ele>737</ele>
        <time>2016-08-17T14:38:08Z</time>
      </trkpt>
      <trkpt lat="47.17824" lon="6.47329">
        <ele>737</ele>
        <time>2016-08-17T14:38:12Z</time>
      </trkpt>
      <trkpt lat="47.17836" lon="6.47335">
        <ele>735</ele>
        <time>2016-08-17T14:38:16Z</time>
      </trkpt>
      <trkpt lat="47.17845" lon="6.47348">
        <ele>733</ele>
        <time>2016-08-17T14:38:20Z</time>
      </trkpt>
      <trkpt lat="47.17857" lon="6.47362">
        <ele>731</ele>
        <time>2016-08-17T14:38:24Z</time>
      </trkpt>
      <trkpt lat="47.17866" lon="6.47379">
        <ele>731</ele>
        <time>2016-08-17T14:38:28Z</time>
      </trkpt>
      <trkpt lat="47.17872" lon="6.47392">
        <ele>731</ele>
        <time>2016-08-17T14:38:30Z</time>
      </trkpt>
      <trkpt lat="47.17875" lon="6.47412">
        <ele>731</ele>
        <time>2016-08-17T14:38:34Z</time>
      </trkpt>
      <trkpt lat="47.17884" lon="6.47428">
        <ele>730</ele>
        <time>2016-08-17T14:38:38Z</time>
      </trkpt>
      <trkpt lat="47.1789" lon="6.47452">
        <ele>729</ele>
        <time>2016-08-17T14:38:42Z</time>
      </trkpt>
      <trkpt lat="47.17884" lon="6.47468">
        <ele>729</ele>
        <time>2016-08-17T14:38:54Z</time>
      </trkpt>
      <trkpt lat="47.1788" lon="6.47485">
        <ele>729</ele>
        <time>2016-08-17T14:38:58Z</time>
      </trkpt>
      <trkpt lat="47.17882" lon="6.47507">
        <ele>727</ele>
        <time>2016-08-17T14:39:02Z</time>
      </trkpt>
      <trkpt lat="47.17887" lon="6.47526">
        <ele>726</ele>
        <time>2016-08-17T14:39:06Z</time>
      </trkpt>
      <trkpt lat="47.17891" lon="6.47543">
        <ele>726</ele>
        <time>2016-08-17T14:39:30Z</time>
      </trkpt>
      <trkpt lat="47.17896" lon="6.47565">
        <ele>726</ele>
        <time>2016-08-17T14:39:34Z</time>
      </trkpt>
      <trkpt lat="47.179" lon="6.47586">
        <ele>724</ele>
        <time>2016-08-17T14:39:38Z</time>
      </trkpt>
      <trkpt lat="47.17902" lon="6.47601">
        <ele>724</ele>
        <time>2016-08-17T14:39:40Z</time>
      </trkpt>
      <trkpt lat="47.17906" lon="6.47615">
        <ele>724</ele>
        <time>2016-08-17T14:39:42Z</time>
      </trkpt>
      <trkpt lat="47.17915" lon="6.47627">
        <ele>723</ele>
        <time>2016-08-17T14:39:44Z</time>
      </trkpt>
      <trkpt lat="47.17925" lon="6.47635">
        <ele>727</ele>
        <time>2016-08-17T14:39:46Z</time>
      </trkpt>
      <trkpt lat="47.17935" lon="6.47644">
        <ele>727</ele>
        <time>2016-08-17T14:39:48Z</time>
      </trkpt>
      <trkpt lat="47.17945" lon="6.47651">
        <ele>727</ele>
        <time>2016-08-17T14:39:50Z</time>
      </trkpt>
      <trkpt lat="47.1796" lon="6.47661">
        <ele>727</ele>
        <time>2016-08-17T14:39:54Z</time>
      </trkpt>
      <trkpt lat="47.17968" lon="6.47669">
        <ele>727</ele>
        <time>2016-08-17T14:39:56Z</time>
      </trkpt>
      <trkpt lat="47.17975" lon="6.47676">
        <ele>728</ele>
        <time>2016-08-17T14:39:58Z</time>
      </trkpt>
      <trkpt lat="47.17984" lon="6.47686">
        <ele>728</ele>
        <time>2016-08-17T14:40:00Z</time>
      </trkpt>
      <trkpt lat="47.17992" lon="6.47695">
        <ele>728</ele>
        <time>2016-08-17T14:40:02Z</time>
      </trkpt>
      <trkpt lat="47.18001" lon="6.47706">
        <ele>729</ele>
        <time>2016-08-17T14:40:04Z</time>
      </trkpt>
      <trkpt lat="47.1801" lon="6.47715">
        <ele>728</ele>
        <time>2016-08-17T14:40:06Z</time>
      </trkpt>
      <trkpt lat="47.18018" lon="6.47729">
        <ele>728</ele>
        <time>2016-08-17T14:40:08Z</time>
      </trkpt>
      <trkpt lat="47.18027" lon="6.47741">
        <ele>728</ele>
        <time>2016-08-17T14:40:10Z</time>
      </trkpt>
      <trkpt lat="47.18036" lon="6.47754">
        <ele>729</ele>
        <time>2016-08-17T14:40:12Z</time>
      </trkpt>
      <trkpt lat="47.18044" lon="6.47763">
        <ele>729</ele>
        <time>2016-08-17T14:40:14Z</time>
      </trkpt>
      <trkpt lat="47.18053" lon="6.47778">
        <ele>729</ele>
        <time>2016-08-17T14:40:16Z</time>
      </trkpt>
      <trkpt lat="47.18061" lon="6.47788">
        <ele>729</ele>
        <time>2016-08-17T14:40:18Z</time>
      </trkpt>
      <trkpt lat="47.18069" lon="6.478">
        <ele>729</ele>
        <time>2016-08-17T14:40:20Z</time>
      </trkpt>
      <trkpt lat="47.18077" lon="6.47812">
        <ele>729</ele>
        <time>2016-08-17T14:40:22Z</time>
      </trkpt>
      <trkpt lat="47.18086" lon="6.47824">
        <ele>728</ele>
        <time>2016-08-17T14:40:24Z</time>
      </trkpt>
      <trkpt lat="47.18096" lon="6.47839">
        <ele>728</ele>
        <time>2016-08-17T14:40:26Z</time>
      </trkpt>
      <trkpt lat="47.18105" lon="6.4785">
        <ele>728</ele>
        <time>2016-08-17T14:40:28Z</time>
      </trkpt>
      <trkpt lat="47.18114" lon="6.47863">
        <ele>727</ele>
        <time>2016-08-17T14:40:30Z</time>
      </trkpt>
      <trkpt lat="47.18123" lon="6.47877">
        <ele>727</ele>
        <time>2016-08-17T14:40:32Z</time>
      </trkpt>
      <trkpt lat="47.18133" lon="6.47893">
        <ele>727</ele>
        <time>2016-08-17T14:40:34Z</time>
      </trkpt>
      <trkpt lat="47.18135" lon="6.47914">
        <ele>727</ele>
        <time>2016-08-17T14:40:38Z</time>
      </trkpt>
      <trkpt lat="47.18127" lon="6.47925">
        <ele>726</ele>
        <time>2016-08-17T14:40:40Z</time>
      </trkpt>
      <trkpt lat="47.18119" lon="6.47938">
        <ele>726</ele>
        <time>2016-08-17T14:40:42Z</time>
      </trkpt>
      <trkpt lat="47.18113" lon="6.47956">
        <ele>726</ele>
        <time>2016-08-17T14:40:44Z</time>
      </trkpt>
      <trkpt lat="47.18109" lon="6.47972">
        <ele>725</ele>
        <time>2016-08-17T14:40:46Z</time>
      </trkpt>
      <trkpt lat="47.18103" lon="6.47988">
        <ele>725</ele>
        <time>2016-08-17T14:40:48Z</time>
      </trkpt>
      <trkpt lat="47.18096" lon="6.48007">
        <ele>724</ele>
        <time>2016-08-17T14:40:50Z</time>
      </trkpt>
      <trkpt lat="47.18089" lon="6.48025">
        <ele>724</ele>
        <time>2016-08-17T14:40:52Z</time>
      </trkpt>
      <trkpt lat="47.18083" lon="6.48042">
        <ele>721</ele>
        <time>2016-08-17T14:40:54Z</time>
      </trkpt>
      <trkpt lat="47.18078" lon="6.48053">
        <ele>721</ele>
        <time>2016-08-17T14:40:56Z</time>
      </trkpt>
      <trkpt lat="47.18083" lon="6.48073">
        <ele>722</ele>
        <time>2016-08-17T14:41:00Z</time>
      </trkpt>
      <trkpt lat="47.18087" lon="6.48093">
        <ele>724</ele>
        <time>2016-08-17T14:41:04Z</time>
      </trkpt>
      <trkpt lat="47.18097" lon="6.48115">
        <ele>725</ele>
        <time>2016-08-17T14:41:08Z</time>
      </trkpt>
      <trkpt lat="47.18098" lon="6.48131">
        <ele>725</ele>
        <time>2016-08-17T14:41:10Z</time>
      </trkpt>
      <trkpt lat="47.181" lon="6.48145">
        <ele>725</ele>
        <time>2016-08-17T14:41:12Z</time>
      </trkpt>
      <trkpt lat="47.18109" lon="6.48168">
        <ele>725</ele>
        <time>2016-08-17T14:41:16Z</time>
      </trkpt>
      <trkpt lat="47.18117" lon="6.48178">
        <ele>726</ele>
        <time>2016-08-17T14:41:18Z</time>
      </trkpt>
      <trkpt lat="47.18124" lon="6.4819">
        <ele>726</ele>
        <time>2016-08-17T14:41:20Z</time>
      </trkpt>
      <trkpt lat="47.18132" lon="6.48202">
        <ele>727</ele>
        <time>2016-08-17T14:41:22Z</time>
      </trkpt>
      <trkpt lat="47.18148" lon="6.48221">
        <ele>727</ele>
        <time>2016-08-17T14:41:26Z</time>
      </trkpt>
      <trkpt lat="47.18155" lon="6.48232">
        <ele>728</ele>
        <time>2016-08-17T14:41:28Z</time>
      </trkpt>
      <trkpt lat="47.18165" lon="6.48242">
        <ele>729</ele>
        <time>2016-08-17T14:41:32Z</time>
      </trkpt>
      <trkpt lat="47.18175" lon="6.48253">
        <ele>731</ele>
        <time>2016-08-17T14:41:36Z</time>
      </trkpt>
      <trkpt lat="47.18186" lon="6.48267">
        <ele>732</ele>
        <time>2016-08-17T14:41:40Z</time>
      </trkpt>
      <trkpt lat="47.18192" lon="6.48284">
        <ele>732</ele>
        <time>2016-08-17T14:41:42Z</time>
      </trkpt>
      <trkpt lat="47.18205" lon="6.48299">
        <ele>732</ele>
        <time>2016-08-17T14:41:46Z</time>
      </trkpt>
      <trkpt lat="47.18215" lon="6.48317">
        <ele>733</ele>
        <time>2016-08-17T14:41:48Z</time>
      </trkpt>
      <trkpt lat="47.18226" lon="6.48332">
        <ele>733</ele>
        <time>2016-08-17T14:41:50Z</time>
      </trkpt>
      <trkpt lat="47.18235" lon="6.48344">
        <ele>735</ele>
        <time>2016-08-17T14:41:54Z</time>
      </trkpt>
      <trkpt lat="47.18244" lon="6.48359">
        <ele>735</ele>
        <time>2016-08-17T14:41:58Z</time>
      </trkpt>
      <trkpt lat="47.18254" lon="6.48375">
        <ele>737</ele>
        <time>2016-08-17T14:42:02Z</time>
      </trkpt>
      <trkpt lat="47.18262" lon="6.48389">
        <ele>737</ele>
        <time>2016-08-17T14:42:04Z</time>
      </trkpt>
      <trkpt lat="47.18268" lon="6.48399">
        <ele>738</ele>
        <time>2016-08-17T14:42:06Z</time>
      </trkpt>
      <trkpt lat="47.18275" lon="6.48409">
        <ele>738</ele>
        <time>2016-08-17T14:42:08Z</time>
      </trkpt>
      <trkpt lat="47.18281" lon="6.48419">
        <ele>740</ele>
        <time>2016-08-17T14:42:10Z</time>
      </trkpt>
      <trkpt lat="47.18292" lon="6.48429">
        <ele>740</ele>
        <time>2016-08-17T14:42:14Z</time>
      </trkpt>
      <trkpt lat="47.18306" lon="6.48444">
        <ele>740</ele>
        <time>2016-08-17T14:42:18Z</time>
      </trkpt>
      <trkpt lat="47.18315" lon="6.48454">
        <ele>740</ele>
        <time>2016-08-17T14:42:20Z</time>
      </trkpt>
      <trkpt lat="47.18324" lon="6.4847">
        <ele>741</ele>
        <time>2016-08-17T14:42:22Z</time>
      </trkpt>
      <trkpt lat="47.18332" lon="6.48486">
        <ele>741</ele>
        <time>2016-08-17T14:42:24Z</time>
      </trkpt>
      <trkpt lat="47.1834" lon="6.48502">
        <ele>742</ele>
        <time>2016-08-17T14:42:26Z</time>
      </trkpt>
      <trkpt lat="47.18347" lon="6.48513">
        <ele>742</ele>
        <time>2016-08-17T14:42:28Z</time>
      </trkpt>
      <trkpt lat="47.18357" lon="6.48535">
        <ele>742</ele>
        <time>2016-08-17T14:42:32Z</time>
      </trkpt>
      <trkpt lat="47.18365" lon="6.48549">
        <ele>742</ele>
        <time>2016-08-17T14:42:38Z</time>
      </trkpt>
      <trkpt lat="47.18371" lon="6.4856">
        <ele>742</ele>
        <time>2016-08-17T14:42:40Z</time>
      </trkpt>
      <trkpt lat="47.18382" lon="6.48585">
        <ele>742</ele>
        <time>2016-08-17T14:42:44Z</time>
      </trkpt>
      <trkpt lat="47.18375" lon="6.48598">
        <ele>742</ele>
        <time>2016-08-17T14:42:46Z</time>
      </trkpt>
      <trkpt lat="47.18372" lon="6.48616">
        <ele>743</ele>
        <time>2016-08-17T14:42:50Z</time>
      </trkpt>
      <trkpt lat="47.18365" lon="6.48626">
        <ele>743</ele>
        <time>2016-08-17T14:42:52Z</time>
      </trkpt>
      <trkpt lat="47.18364" lon="6.48645">
        <ele>742</ele>
        <time>2016-08-17T14:42:56Z</time>
      </trkpt>
      <trkpt lat="47.18355" lon="6.48664">
        <ele>742</ele>
        <time>2016-08-17T14:43:00Z</time>
      </trkpt>
      <trkpt lat="47.18352" lon="6.48687">
        <ele>741</ele>
        <time>2016-08-17T14:43:04Z</time>
      </trkpt>
      <trkpt lat="47.18347" lon="6.48704">
        <ele>741</ele>
        <time>2016-08-17T14:43:06Z</time>
      </trkpt>
      <trkpt lat="47.18344" lon="6.48719">
        <ele>740</ele>
        <time>2016-08-17T14:43:08Z</time>
      </trkpt>
      <trkpt lat="47.18344" lon="6.48735">
        <ele>739</ele>
        <time>2016-08-17T14:43:12Z</time>
      </trkpt>
      <trkpt lat="47.18333" lon="6.48748">
        <ele>737</ele>
        <time>2016-08-17T14:43:16Z</time>
      </trkpt>
      <trkpt lat="47.18326" lon="6.48762">
        <ele>733</ele>
        <time>2016-08-17T14:43:20Z</time>
      </trkpt>
      <trkpt lat="47.18326" lon="6.48782">
        <ele>731</ele>
        <time>2016-08-17T14:43:24Z</time>
      </trkpt>
      <trkpt lat="47.18325" lon="6.488">
        <ele>730</ele>
        <time>2016-08-17T14:43:28Z</time>
      </trkpt>
      <trkpt lat="47.18325" lon="6.48816">
        <ele>730</ele>
        <time>2016-08-17T14:43:32Z</time>
      </trkpt>
      <trkpt lat="47.18317" lon="6.48821">
        <ele>730</ele>
        <time>2016-08-17T14:43:36Z</time>
      </trkpt>
      <trkpt lat="47.18303" lon="6.48832">
        <ele>729</ele>
        <time>2016-08-17T14:43:40Z</time>
      </trkpt>
      <trkpt lat="47.18296" lon="6.48841">
        <ele>725</ele>
        <time>2016-08-17T14:43:42Z</time>
      </trkpt>
      <trkpt lat="47.18288" lon="6.48852">
        <ele>724</ele>
        <time>2016-08-17T14:43:44Z</time>
      </trkpt>
      <trkpt lat="47.18279" lon="6.4886">
        <ele>723</ele>
        <time>2016-08-17T14:43:46Z</time>
      </trkpt>
      <trkpt lat="47.18267" lon="6.4887">
        <ele>723</ele>
        <time>2016-08-17T14:43:48Z</time>
      </trkpt>
      <trkpt lat="47.18254" lon="6.48879">
        <ele>722</ele>
        <time>2016-08-17T14:43:50Z</time>
      </trkpt>
      <trkpt lat="47.18241" lon="6.48893">
        <ele>717</ele>
        <time>2016-08-17T14:43:52Z</time>
      </trkpt>
      <trkpt lat="47.18227" lon="6.48909">
        <ele>716</ele>
        <time>2016-08-17T14:43:54Z</time>
      </trkpt>
      <trkpt lat="47.18209" lon="6.48924">
        <ele>713</ele>
        <time>2016-08-17T14:43:56Z</time>
      </trkpt>
      <trkpt lat="47.18197" lon="6.4894">
        <ele>712</ele>
        <time>2016-08-17T14:43:58Z</time>
      </trkpt>
      <trkpt lat="47.18186" lon="6.48955">
        <ele>711</ele>
        <time>2016-08-17T14:44:00Z</time>
      </trkpt>
      <trkpt lat="47.18178" lon="6.48967">
        <ele>711</ele>
        <time>2016-08-17T14:44:02Z</time>
      </trkpt>
      <trkpt lat="47.18171" lon="6.48976">
        <ele>710</ele>
        <time>2016-08-17T14:44:04Z</time>
      </trkpt>
      <trkpt lat="47.1816" lon="6.48978">
        <ele>708</ele>
        <time>2016-08-17T14:44:06Z</time>
      </trkpt>
      <trkpt lat="47.18153" lon="6.48968">
        <ele>708</ele>
        <time>2016-08-17T14:44:08Z</time>
      </trkpt>
      <trkpt lat="47.18146" lon="6.48956">
        <ele>709</ele>
        <time>2016-08-17T14:44:10Z</time>
      </trkpt>
      <trkpt lat="47.18138" lon="6.48945">
        <ele>709</ele>
        <time>2016-08-17T14:44:12Z</time>
      </trkpt>
      <trkpt lat="47.18131" lon="6.48932">
        <ele>709</ele>
        <time>2016-08-17T14:44:14Z</time>
      </trkpt>
      <trkpt lat="47.18122" lon="6.48921">
        <ele>709</ele>
        <time>2016-08-17T14:44:16Z</time>
      </trkpt>
      <trkpt lat="47.18113" lon="6.48909">
        <ele>712</ele>
        <time>2016-08-17T14:44:18Z</time>
      </trkpt>
      <trkpt lat="47.18105" lon="6.48896">
        <ele>712</ele>
        <time>2016-08-17T14:44:20Z</time>
      </trkpt>
      <trkpt lat="47.18097" lon="6.48885">
        <ele>712</ele>
        <time>2016-08-17T14:44:22Z</time>
      </trkpt>
      <trkpt lat="47.1809" lon="6.48874">
        <ele>713</ele>
        <time>2016-08-17T14:44:24Z</time>
      </trkpt>
      <trkpt lat="47.18082" lon="6.48863">
        <ele>712</ele>
        <time>2016-08-17T14:44:26Z</time>
      </trkpt>
      <trkpt lat="47.18074" lon="6.48853">
        <ele>713</ele>
        <time>2016-08-17T14:44:28Z</time>
      </trkpt>
      <trkpt lat="47.18065" lon="6.48844">
        <ele>713</ele>
        <time>2016-08-17T14:44:30Z</time>
      </trkpt>
      <trkpt lat="47.18057" lon="6.48832">
        <ele>714</ele>
        <time>2016-08-17T14:44:32Z</time>
      </trkpt>
      <trkpt lat="47.1805" lon="6.48821">
        <ele>713</ele>
        <time>2016-08-17T14:44:34Z</time>
      </trkpt>
      <trkpt lat="47.18042" lon="6.48813">
        <ele>713</ele>
        <time>2016-08-17T14:44:36Z</time>
      </trkpt>
      <trkpt lat="47.18033" lon="6.48803">
        <ele>713</ele>
        <time>2016-08-17T14:44:38Z</time>
      </trkpt>
      <trkpt lat="47.18018" lon="6.4879">
        <ele>713</ele>
        <time>2016-08-17T14:44:42Z</time>
      </trkpt>
      <trkpt lat="47.18005" lon="6.48803">
        <ele>712</ele>
        <time>2016-08-17T14:44:46Z</time>
      </trkpt>
      <trkpt lat="47.17998" lon="6.48814">
        <ele>708</ele>
        <time>2016-08-17T14:44:48Z</time>
      </trkpt>
      <trkpt lat="47.17991" lon="6.48829">
        <ele>709</ele>
        <time>2016-08-17T14:44:50Z</time>
      </trkpt>
      <trkpt lat="47.17984" lon="6.48843">
        <ele>708</ele>
        <time>2016-08-17T14:44:52Z</time>
      </trkpt>
      <trkpt lat="47.17978" lon="6.48857">
        <ele>708</ele>
        <time>2016-08-17T14:44:54Z</time>
      </trkpt>
      <trkpt lat="47.17971" lon="6.48874">
        <ele>708</ele>
        <time>2016-08-17T14:44:56Z</time>
      </trkpt>
      <trkpt lat="47.17962" lon="6.4889">
        <ele>708</ele>
        <time>2016-08-17T14:44:58Z</time>
      </trkpt>
      <trkpt lat="47.17949" lon="6.48905">
        <ele>707</ele>
        <time>2016-08-17T14:45:00Z</time>
      </trkpt>
      <trkpt lat="47.17938" lon="6.48917">
        <ele>708</ele>
        <time>2016-08-17T14:45:02Z</time>
      </trkpt>
      <trkpt lat="47.17928" lon="6.48936">
        <ele>708</ele>
        <time>2016-08-17T14:45:04Z</time>
      </trkpt>
      <trkpt lat="47.1792" lon="6.48957">
        <ele>708</ele>
        <time>2016-08-17T14:45:06Z</time>
      </trkpt>
      <trkpt lat="47.17912" lon="6.48978">
        <ele>703</ele>
        <time>2016-08-17T14:45:08Z</time>
      </trkpt>
      <trkpt lat="47.179" lon="6.49003">
        <ele>705</ele>
        <time>2016-08-17T14:45:10Z</time>
      </trkpt>
      <trkpt lat="47.17888" lon="6.49023">
        <ele>703</ele>
        <time>2016-08-17T14:45:12Z</time>
      </trkpt>
      <trkpt lat="47.17879" lon="6.49044">
        <ele>702</ele>
        <time>2016-08-17T14:45:14Z</time>
      </trkpt>
      <trkpt lat="47.17867" lon="6.49056">
        <ele>702</ele>
        <time>2016-08-17T14:45:16Z</time>
      </trkpt>
      <trkpt lat="47.17852" lon="6.4906">
        <ele>701</ele>
        <time>2016-08-17T14:45:18Z</time>
      </trkpt>
      <trkpt lat="47.1784" lon="6.49048">
        <ele>701</ele>
        <time>2016-08-17T14:45:20Z</time>
      </trkpt>
      <trkpt lat="47.1782" lon="6.49042">
        <ele>694</ele>
        <time>2016-08-17T14:45:22Z</time>
      </trkpt>
      <trkpt lat="47.17803" lon="6.49039">
        <ele>692</ele>
        <time>2016-08-17T14:45:24Z</time>
      </trkpt>
      <trkpt lat="47.17782" lon="6.49027">
        <ele>690</ele>
        <time>2016-08-17T14:45:26Z</time>
      </trkpt>
      <trkpt lat="47.17762" lon="6.49023">
        <ele>687</ele>
        <time>2016-08-17T14:45:28Z</time>
      </trkpt>
      <trkpt lat="47.17744" lon="6.49018">
        <ele>676</ele>
        <time>2016-08-17T14:45:30Z</time>
      </trkpt>
      <trkpt lat="47.17729" lon="6.49019">
        <ele>674</ele>
        <time>2016-08-17T14:45:32Z</time>
      </trkpt>
      <trkpt lat="47.17714" lon="6.49024">
        <ele>672</ele>
        <time>2016-08-17T14:45:34Z</time>
      </trkpt>
      <trkpt lat="47.17702" lon="6.49031">
        <ele>670</ele>
        <time>2016-08-17T14:45:36Z</time>
      </trkpt>
      <trkpt lat="47.17693" lon="6.49043">
        <ele>669</ele>
        <time>2016-08-17T14:45:38Z</time>
      </trkpt>
      <trkpt lat="47.17689" lon="6.49062">
        <ele>669</ele>
        <time>2016-08-17T14:45:40Z</time>
      </trkpt>
      <trkpt lat="47.17684" lon="6.4908">
        <ele>668</ele>
        <time>2016-08-17T14:45:42Z</time>
      </trkpt>
      <trkpt lat="47.17679" lon="6.49099">
        <ele>671</ele>
        <time>2016-08-17T14:45:44Z</time>
      </trkpt>
      <trkpt lat="47.17674" lon="6.49125">
        <ele>672</ele>
        <time>2016-08-17T14:45:46Z</time>
      </trkpt>
      <trkpt lat="47.17669" lon="6.49148">
        <ele>669</ele>
        <time>2016-08-17T14:45:48Z</time>
      </trkpt>
      <trkpt lat="47.17664" lon="6.49165">
        <ele>659</ele>
        <time>2016-08-17T14:45:50Z</time>
      </trkpt>
      <trkpt lat="47.1766" lon="6.49183">
        <ele>650</ele>
        <time>2016-08-17T14:45:52Z</time>
      </trkpt>
      <trkpt lat="47.17656" lon="6.49203">
        <ele>645</ele>
        <time>2016-08-17T14:45:54Z</time>
      </trkpt>
      <trkpt lat="47.17653" lon="6.49224">
        <ele>645</ele>
        <time>2016-08-17T14:45:56Z</time>
      </trkpt>
      <trkpt lat="47.17649" lon="6.49249">
        <ele>648</ele>
        <time>2016-08-17T14:45:58Z</time>
      </trkpt>
      <trkpt lat="47.17645" lon="6.49269">
        <ele>641</ele>
        <time>2016-08-17T14:46:00Z</time>
      </trkpt>
      <trkpt lat="47.17641" lon="6.49288">
        <ele>637</ele>
        <time>2016-08-17T14:46:02Z</time>
      </trkpt>
      <trkpt lat="47.17644" lon="6.49304">
        <ele>638</ele>
        <time>2016-08-17T14:46:04Z</time>
      </trkpt>
      <trkpt lat="47.17642" lon="6.49321">
        <ele>639</ele>
        <time>2016-08-17T14:46:06Z</time>
      </trkpt>
      <trkpt lat="47.17643" lon="6.49346">
        <ele>637</ele>
        <time>2016-08-17T14:46:08Z</time>
      </trkpt>
      <trkpt lat="47.17641" lon="6.4937">
        <ele>634</ele>
        <time>2016-08-17T14:46:10Z</time>
      </trkpt>
      <trkpt lat="47.17639" lon="6.49391">
        <ele>633</ele>
        <time>2016-08-17T14:46:12Z</time>
      </trkpt>
      <trkpt lat="47.17637" lon="6.49412">
        <ele>634</ele>
        <time>2016-08-17T14:46:14Z</time>
      </trkpt>
      <trkpt lat="47.17634" lon="6.49429">
        <ele>631</ele>
        <time>2016-08-17T14:46:16Z</time>
      </trkpt>
      <trkpt lat="47.17623" lon="6.49436">
        <ele>627</ele>
        <time>2016-08-17T14:46:18Z</time>
      </trkpt>
      <trkpt lat="47.17622" lon="6.49462">
        <ele>626</ele>
        <time>2016-08-17T14:46:20Z</time>
      </trkpt>
      <trkpt lat="47.17619" lon="6.49492">
        <ele>625</ele>
        <time>2016-08-17T14:46:22Z</time>
      </trkpt>
      <trkpt lat="47.17616" lon="6.49519">
        <ele>622</ele>
        <time>2016-08-17T14:46:24Z</time>
      </trkpt>
      <trkpt lat="47.17611" lon="6.49544">
        <ele>621</ele>
        <time>2016-08-17T14:46:26Z</time>
      </trkpt>
      <trkpt lat="47.17607" lon="6.49575">
        <ele>616</ele>
        <time>2016-08-17T14:46:28Z</time>
      </trkpt>
      <trkpt lat="47.17602" lon="6.49606">
        <ele>615</ele>
        <time>2016-08-17T14:46:30Z</time>
      </trkpt>
      <trkpt lat="47.176" lon="6.49626">
        <ele>615</ele>
        <time>2016-08-17T14:46:32Z</time>
      </trkpt>
      <trkpt lat="47.176" lon="6.49648">
        <ele>613</ele>
        <time>2016-08-17T14:46:36Z</time>
      </trkpt>
      <trkpt lat="47.17591" lon="6.49643">
        <ele>612</ele>
        <time>2016-08-17T14:46:44Z</time>
      </trkpt>
      <trkpt lat="47.17588" lon="6.49618">
        <ele>613</ele>
        <time>2016-08-17T14:46:48Z</time>
      </trkpt>
      <trkpt lat="47.17585" lon="6.49592">
        <ele>606</ele>
        <time>2016-08-17T14:46:52Z</time>
      </trkpt>
      <trkpt lat="47.17583" lon="6.49579">
        <ele>599</ele>
        <time>2016-08-17T14:46:54Z</time>
      </trkpt>
      <trkpt lat="47.17582" lon="6.49565">
        <ele>598</ele>
        <time>2016-08-17T14:46:56Z</time>
      </trkpt>
      <trkpt lat="47.17579" lon="6.49549">
        <ele>597</ele>
        <time>2016-08-17T14:46:58Z</time>
      </trkpt>
      <trkpt lat="47.17576" lon="6.49533">
        <ele>598</ele>
        <time>2016-08-17T14:47:00Z</time>
      </trkpt>
      <trkpt lat="47.17573" lon="6.49516">
        <ele>599</ele>
        <time>2016-08-17T14:47:02Z</time>
      </trkpt>
      <trkpt lat="47.1757" lon="6.49499">
        <ele>600</ele>
        <time>2016-08-17T14:47:04Z</time>
      </trkpt>
      <trkpt lat="47.1757" lon="6.49484">
        <ele>599</ele>
        <time>2016-08-17T14:47:06Z</time>
      </trkpt>
      <trkpt lat="47.17572" lon="6.49464">
        <ele>599</ele>
        <time>2016-08-17T14:47:08Z</time>
      </trkpt>
      <trkpt lat="47.17571" lon="6.49447">
        <ele>599</ele>
        <time>2016-08-17T14:47:10Z</time>
      </trkpt>
      <trkpt lat="47.1757" lon="6.49429">
        <ele>601</ele>
        <time>2016-08-17T14:47:12Z</time>
      </trkpt>
      <trkpt lat="47.17567" lon="6.4941">
        <ele>601</ele>
        <time>2016-08-17T14:47:14Z</time>
      </trkpt>
      <trkpt lat="47.17564" lon="6.49394">
        <ele>600</ele>
        <time>2016-08-17T14:47:16Z</time>
      </trkpt>
      <trkpt lat="47.17561" lon="6.4938">
        <ele>599</ele>
        <time>2016-08-17T14:47:18Z</time>
      </trkpt>
      <trkpt lat="47.17557" lon="6.49367">
        <ele>599</ele>
        <time>2016-08-17T14:47:20Z</time>
      </trkpt>
      <trkpt lat="47.17555" lon="6.4935">
        <ele>599</ele>
        <time>2016-08-17T14:47:22Z</time>
      </trkpt>
      <trkpt lat="47.17552" lon="6.49329">
        <ele>599</ele>
        <time>2016-08-17T14:47:24Z</time>
      </trkpt>
      <trkpt lat="47.17548" lon="6.49313">
        <ele>598</ele>
        <time>2016-08-17T14:47:26Z</time>
      </trkpt>
      <trkpt lat="47.17548" lon="6.49297">
        <ele>598</ele>
        <time>2016-08-17T14:47:28Z</time>
      </trkpt>
      <trkpt lat="47.1753" lon="6.49294">
        <ele>596</ele>
        <time>2016-08-17T14:47:34Z</time>
      </trkpt>
      <trkpt lat="47.17517" lon="6.49297">
        <ele>594</ele>
        <time>2016-08-17T14:47:36Z</time>
      </trkpt>
      <trkpt lat="47.17506" lon="6.49308">
        <ele>593</ele>
        <time>2016-08-17T14:47:38Z</time>
      </trkpt>
      <trkpt lat="47.17495" lon="6.49331">
        <ele>589</ele>
        <time>2016-08-17T14:47:42Z</time>
      </trkpt>
      <trkpt lat="47.17477" lon="6.49347">
        <ele>594</ele>
        <time>2016-08-17T14:47:46Z</time>
      </trkpt>
      <trkpt lat="47.17466" lon="6.49353">
        <ele>596</ele>
        <time>2016-08-17T14:47:48Z</time>
      </trkpt>
      <trkpt lat="47.17468" lon="6.49374">
        <ele>596</ele>
        <time>2016-08-17T14:47:52Z</time>
      </trkpt>
      <trkpt lat="47.17475" lon="6.49386">
        <ele>595</ele>
        <time>2016-08-17T14:47:56Z</time>
      </trkpt>
      <trkpt lat="47.17481" lon="6.49402">
        <ele>593</ele>
        <time>2016-08-17T14:47:58Z</time>
      </trkpt>
      <trkpt lat="47.1749" lon="6.49426">
        <ele>592</ele>
        <time>2016-08-17T14:48:00Z</time>
      </trkpt>
      <trkpt lat="47.17495" lon="6.49446">
        <ele>595</ele>
        <time>2016-08-17T14:48:02Z</time>
      </trkpt>
      <trkpt lat="47.17499" lon="6.49464">
        <ele>595</ele>
        <time>2016-08-17T14:48:04Z</time>
      </trkpt>
      <trkpt lat="47.17498" lon="6.49478">
        <ele>594</ele>
        <time>2016-08-17T14:48:06Z</time>
      </trkpt>
      <trkpt lat="47.17496" lon="6.49502">
        <ele>591</ele>
        <time>2016-08-17T14:48:10Z</time>
      </trkpt>
      <trkpt lat="47.17504" lon="6.49533">
        <ele>592</ele>
        <time>2016-08-17T14:48:12Z</time>
      </trkpt>
      <trkpt lat="47.17505" lon="6.49553">
        <ele>593</ele>
        <time>2016-08-17T14:48:14Z</time>
      </trkpt>
      <trkpt lat="47.17502" lon="6.49571">
        <ele>591</ele>
        <time>2016-08-17T14:48:16Z</time>
      </trkpt>
      <trkpt lat="47.17499" lon="6.49584">
        <ele>589</ele>
        <time>2016-08-17T14:48:18Z</time>
      </trkpt>
      <trkpt lat="47.17493" lon="6.49601">
        <ele>598</ele>
        <time>2016-08-17T14:48:22Z</time>
      </trkpt>
      <trkpt lat="47.17497" lon="6.49624">
        <ele>601</ele>
        <time>2016-08-17T14:48:26Z</time>
      </trkpt>
      <trkpt lat="47.17498" lon="6.49642">
        <ele>600</ele>
        <time>2016-08-17T14:48:30Z</time>
      </trkpt>
      <trkpt lat="47.17506" lon="6.49671">
        <ele>593</ele>
        <time>2016-08-17T14:48:34Z</time>
      </trkpt>
      <trkpt lat="47.17514" lon="6.49689">
        <ele>595</ele>
        <time>2016-08-17T14:48:36Z</time>
      </trkpt>
      <trkpt lat="47.17518" lon="6.49723">
        <ele>596</ele>
        <time>2016-08-17T14:48:40Z</time>
      </trkpt>
      <trkpt lat="47.17519" lon="6.49743">
        <ele>597</ele>
        <time>2016-08-17T14:48:42Z</time>
      </trkpt>
      <trkpt lat="47.17521" lon="6.49763">
        <ele>597</ele>
        <time>2016-08-17T14:48:44Z</time>
      </trkpt>
      <trkpt lat="47.1752" lon="6.49781">
        <ele>597</ele>
        <time>2016-08-17T14:48:46Z</time>
      </trkpt>
      <trkpt lat="47.1752" lon="6.49801">
        <ele>597</ele>
        <time>2016-08-17T14:48:48Z</time>
      </trkpt>
      <trkpt lat="47.1752" lon="6.49821">
        <ele>598</ele>
        <time>2016-08-17T14:48:50Z</time>
      </trkpt>
      <trkpt lat="47.17521" lon="6.4984">
        <ele>597</ele>
        <time>2016-08-17T14:48:52Z</time>
      </trkpt>
      <trkpt lat="47.17521" lon="6.49857">
        <ele>596</ele>
        <time>2016-08-17T14:48:54Z</time>
      </trkpt>
      <trkpt lat="47.17521" lon="6.49872">
        <ele>596</ele>
        <time>2016-08-17T14:48:56Z</time>
      </trkpt>
      <trkpt lat="47.17521" lon="6.49885">
        <ele>596</ele>
        <time>2016-08-17T14:48:58Z</time>
      </trkpt>
      <trkpt lat="47.1752" lon="6.49922">
        <ele>595</ele>
        <time>2016-08-17T14:49:02Z</time>
      </trkpt>
      <trkpt lat="47.17527" lon="6.49946">
        <ele>594</ele>
        <time>2016-08-17T14:49:06Z</time>
      </trkpt>
      <trkpt lat="47.17525" lon="6.49984">
        <ele>594</ele>
        <time>2016-08-17T14:49:10Z</time>
      </trkpt>
      <trkpt lat="47.17524" lon="6.50008">
        <ele>594</ele>
        <time>2016-08-17T14:49:12Z</time>
      </trkpt>
      <trkpt lat="47.17523" lon="6.50029">
        <ele>593</ele>
        <time>2016-08-17T14:49:14Z</time>
      </trkpt>
      <trkpt lat="47.17525" lon="6.50051">
        <ele>593</ele>
        <time>2016-08-17T14:49:16Z</time>
      </trkpt>
      <trkpt lat="47.17525" lon="6.50071">
        <ele>593</ele>
        <time>2016-08-17T14:49:18Z</time>
      </trkpt>
      <trkpt lat="47.17525" lon="6.5009">
        <ele>591</ele>
        <time>2016-08-17T14:49:20Z</time>
      </trkpt>
      <trkpt lat="47.17521" lon="6.50108">
        <ele>591</ele>
        <time>2016-08-17T14:49:22Z</time>
      </trkpt>
      <trkpt lat="47.17516" lon="6.50124">
        <ele>591</ele>
        <time>2016-08-17T14:49:24Z</time>
      </trkpt>
      <trkpt lat="47.17513" lon="6.50139">
        <ele>590</ele>
        <time>2016-08-17T14:49:26Z</time>
      </trkpt>
      <trkpt lat="47.17509" lon="6.50155">
        <ele>590</ele>
        <time>2016-08-17T14:49:28Z</time>
      </trkpt>
      <trkpt lat="47.17506" lon="6.50171">
        <ele>591</ele>
        <time>2016-08-17T14:49:30Z</time>
      </trkpt>
      <trkpt lat="47.17505" lon="6.50189">
        <ele>592</ele>
        <time>2016-08-17T14:49:32Z</time>
      </trkpt>
      <trkpt lat="47.17506" lon="6.50207">
        <ele>592</ele>
        <time>2016-08-17T14:49:34Z</time>
      </trkpt>
      <trkpt lat="47.17502" lon="6.50224">
        <ele>592</ele>
        <time>2016-08-17T14:49:36Z</time>
      </trkpt>
      <trkpt lat="47.17497" lon="6.50235">
        <ele>590</ele>
        <time>2016-08-17T14:49:38Z</time>
      </trkpt>
      <trkpt lat="47.17485" lon="6.50244">
        <ele>590</ele>
        <time>2016-08-17T14:49:40Z</time>
      </trkpt>
      <trkpt lat="47.1747" lon="6.50248">
        <ele>590</ele>
        <time>2016-08-17T14:49:42Z</time>
      </trkpt>
      <trkpt lat="47.17454" lon="6.50249">
        <ele>590</ele>
        <time>2016-08-17T14:49:44Z</time>
      </trkpt>
      <trkpt lat="47.1744" lon="6.5025">
        <ele>590</ele>
        <time>2016-08-17T14:49:46Z</time>
      </trkpt>
      <trkpt lat="47.17425" lon="6.50252">
        <ele>588</ele>
        <time>2016-08-17T14:49:48Z</time>
      </trkpt>
      <trkpt lat="47.17411" lon="6.50255">
        <ele>587</ele>
        <time>2016-08-17T14:49:50Z</time>
      </trkpt>
      <trkpt lat="47.17397" lon="6.50257">
        <ele>587</ele>
        <time>2016-08-17T14:49:52Z</time>
      </trkpt>
      <trkpt lat="47.17384" lon="6.50256">
        <ele>588</ele>
        <time>2016-08-17T14:49:54Z</time>
      </trkpt>
      <trkpt lat="47.17368" lon="6.50257">
        <ele>588</ele>
        <time>2016-08-17T14:49:56Z</time>
      </trkpt>
      <trkpt lat="47.17354" lon="6.5026">
        <ele>588</ele>
        <time>2016-08-17T14:49:58Z</time>
      </trkpt>
      <trkpt lat="47.1734" lon="6.50265">
        <ele>589</ele>
        <time>2016-08-17T14:50:00Z</time>
      </trkpt>
      <trkpt lat="47.17329" lon="6.50268">
        <ele>589</ele>
        <time>2016-08-17T14:50:02Z</time>
      </trkpt>
      <trkpt lat="47.1731" lon="6.50277">
        <ele>589</ele>
        <time>2016-08-17T14:50:06Z</time>
      </trkpt>
      <trkpt lat="47.173" lon="6.50285">
        <ele>589</ele>
        <time>2016-08-17T14:50:08Z</time>
      </trkpt>
      <trkpt lat="47.17296" lon="6.50273">
        <ele>590</ele>
        <time>2016-08-17T14:50:24Z</time>
      </trkpt>
      <trkpt lat="47.1729" lon="6.50262">
        <ele>591</ele>
        <time>2016-08-17T14:50:38Z</time>
      </trkpt>
      <trkpt lat="47.17279" lon="6.50253">
        <ele>592</ele>
        <time>2016-08-17T14:50:48Z</time>
      </trkpt>
      <trkpt lat="47.17274" lon="6.50241">
        <ele>604</ele>
        <time>2016-08-17T14:50:58Z</time>
      </trkpt>
      <trkpt lat="47.1727" lon="6.50226">
        <ele>606</ele>
        <time>2016-08-17T14:51:56Z</time>
      </trkpt>
      <trkpt lat="47.1728" lon="6.5023">
        <ele>606</ele>
        <time>2016-08-17T14:52:18Z</time>
      </trkpt>
      <trkpt lat="47.17286" lon="6.5024">
        <ele>604</ele>
        <time>2016-08-17T14:52:24Z</time>
      </trkpt>
      <trkpt lat="47.17291" lon="6.50252">
        <ele>591</ele>
        <time>2016-08-17T14:52:30Z</time>
      </trkpt>
      <trkpt lat="47.17294" lon="6.50266">
        <ele>591</ele>
        <time>2016-08-17T14:52:40Z</time>
      </trkpt>
      <trkpt lat="47.17288" lon="6.50284">
        <ele>590</ele>
        <time>2016-08-17T14:52:46Z</time>
      </trkpt>
      <trkpt lat="47.17287" lon="6.50303">
        <ele>589</ele>
        <time>2016-08-17T14:52:52Z</time>
      </trkpt>
      <trkpt lat="47.17286" lon="6.50319">
        <ele>588</ele>
        <time>2016-08-17T14:52:58Z</time>
      </trkpt>
      <trkpt lat="47.17283" lon="6.50333">
        <ele>588</ele>
        <time>2016-08-17T14:53:02Z</time>
      </trkpt>
      <trkpt lat="47.1728" lon="6.5035">
        <ele>585</ele>
        <time>2016-08-17T14:53:06Z</time>
      </trkpt>
      <trkpt lat="47.17278" lon="6.50369">
        <ele>585</ele>
        <time>2016-08-17T14:53:10Z</time>
      </trkpt>
      <trkpt lat="47.17275" lon="6.50388">
        <ele>585</ele>
        <time>2016-08-17T14:53:14Z</time>
      </trkpt>
      <trkpt lat="47.17277" lon="6.50409">
        <ele>585</ele>
        <time>2016-08-17T14:53:18Z</time>
      </trkpt>
      <trkpt lat="47.17276" lon="6.50428">
        <ele>587</ele>
        <time>2016-08-17T14:53:22Z</time>
      </trkpt>
      <trkpt lat="47.17273" lon="6.50448">
        <ele>587</ele>
        <time>2016-08-17T14:53:26Z</time>
      </trkpt>
      <trkpt lat="47.17269" lon="6.50462">
        <ele>587</ele>
        <time>2016-08-17T14:53:30Z</time>
      </trkpt>
      <trkpt lat="47.17271" lon="6.50475">
        <ele>587</ele>
        <time>2016-08-17T14:53:32Z</time>
      </trkpt>
      <trkpt lat="47.17262" lon="6.50492">
        <ele>588</ele>
        <time>2016-08-17T14:53:36Z</time>
      </trkpt>
      <trkpt lat="47.17258" lon="6.50504">
        <ele>587</ele>
        <time>2016-08-17T14:53:38Z</time>
      </trkpt>
      <trkpt lat="47.17254" lon="6.50517">
        <ele>587</ele>
        <time>2016-08-17T14:53:42Z</time>
      </trkpt>
      <trkpt lat="47.1725" lon="6.50532">
        <ele>586</ele>
        <time>2016-08-17T14:53:46Z</time>
      </trkpt>
      <trkpt lat="47.17251" lon="6.50545">
        <ele>586</ele>
        <time>2016-08-17T14:53:50Z</time>
      </trkpt>
      <trkpt lat="47.17243" lon="6.50556">
        <ele>593</ele>
        <time>2016-08-17T14:53:54Z</time>
      </trkpt>
      <trkpt lat="47.17241" lon="6.5057">
        <ele>591</ele>
        <time>2016-08-17T14:53:58Z</time>
      </trkpt>
      <trkpt lat="47.17231" lon="6.50582">
        <ele>592</ele>
        <time>2016-08-17T14:54:02Z</time>
      </trkpt>
      <trkpt lat="47.17231" lon="6.50596">
        <ele>590</ele>
        <time>2016-08-17T14:54:06Z</time>
      </trkpt>
      <trkpt lat="47.17226" lon="6.50609">
        <ele>591</ele>
        <time>2016-08-17T14:54:10Z</time>
      </trkpt>
      <trkpt lat="47.17227" lon="6.50622">
        <ele>591</ele>
        <time>2016-08-17T14:54:12Z</time>
      </trkpt>
      <trkpt lat="47.17224" lon="6.50642">
        <ele>591</ele>
        <time>2016-08-17T14:54:16Z</time>
      </trkpt>
      <trkpt lat="47.1722" lon="6.50657">
        <ele>590</ele>
        <time>2016-08-17T14:54:18Z</time>
      </trkpt>
      <trkpt lat="47.17215" lon="6.50669">
        <ele>589</ele>
        <time>2016-08-17T14:54:20Z</time>
      </trkpt>
      <trkpt lat="47.17208" lon="6.50683">
        <ele>590</ele>
        <time>2016-08-17T14:54:22Z</time>
      </trkpt>
      <trkpt lat="47.172" lon="6.50699">
        <ele>590</ele>
        <time>2016-08-17T14:54:24Z</time>
      </trkpt>
      <trkpt lat="47.1719" lon="6.50718">
        <ele>590</ele>
        <time>2016-08-17T14:54:26Z</time>
      </trkpt>
      <trkpt lat="47.17178" lon="6.50736">
        <ele>590</ele>
        <time>2016-08-17T14:54:28Z</time>
      </trkpt>
      <trkpt lat="47.17167" lon="6.5075">
        <ele>590</ele>
        <time>2016-08-17T14:54:30Z</time>
      </trkpt>
      <trkpt lat="47.17158" lon="6.50764">
        <ele>596</ele>
        <time>2016-08-17T14:54:32Z</time>
      </trkpt>
      <trkpt lat="47.17152" lon="6.50777">
        <ele>599</ele>
        <time>2016-08-17T14:54:36Z</time>
      </trkpt>
      <trkpt lat="47.17145" lon="6.50789">
        <ele>601</ele>
        <time>2016-08-17T14:54:40Z</time>
      </trkpt>
      <trkpt lat="47.17137" lon="6.50798">
        <ele>602</ele>
        <time>2016-08-17T14:54:46Z</time>
      </trkpt>
      <trkpt lat="47.17133" lon="6.50811">
        <ele>602</ele>
        <time>2016-08-17T14:54:50Z</time>
      </trkpt>
      <trkpt lat="47.17132" lon="6.50826">
        <ele>603</ele>
        <time>2016-08-17T14:54:54Z</time>
      </trkpt>
      <trkpt lat="47.17129" lon="6.5084">
        <ele>607</ele>
        <time>2016-08-17T14:54:58Z</time>
      </trkpt>
      <trkpt lat="47.17128" lon="6.50859">
        <ele>607</ele>
        <time>2016-08-17T14:55:04Z</time>
      </trkpt>
      <trkpt lat="47.17128" lon="6.50873">
        <ele>608</ele>
        <time>2016-08-17T14:55:08Z</time>
      </trkpt>
      <trkpt lat="47.17128" lon="6.50886">
        <ele>609</ele>
        <time>2016-08-17T14:55:12Z</time>
      </trkpt>
      <trkpt lat="47.17132" lon="6.50901">
        <ele>609</ele>
        <time>2016-08-17T14:55:20Z</time>
      </trkpt>
      <trkpt lat="47.17136" lon="6.50915">
        <ele>609</ele>
        <time>2016-08-17T14:55:24Z</time>
      </trkpt>
      <trkpt lat="47.17137" lon="6.50931">
        <ele>614</ele>
        <time>2016-08-17T14:55:32Z</time>
      </trkpt>
      <trkpt lat="47.17137" lon="6.50948">
        <ele>614</ele>
        <time>2016-08-17T14:55:38Z</time>
      </trkpt>
      <trkpt lat="47.17137" lon="6.50962">
        <ele>615</ele>
        <time>2016-08-17T14:55:42Z</time>
      </trkpt>
      <trkpt lat="47.17136" lon="6.50978">
        <ele>616</ele>
        <time>2016-08-17T14:55:46Z</time>
      </trkpt>
      <trkpt lat="47.17135" lon="6.50993">
        <ele>616</ele>
        <time>2016-08-17T14:55:50Z</time>
      </trkpt>
      <trkpt lat="47.17134" lon="6.51007">
        <ele>621</ele>
        <time>2016-08-17T14:55:54Z</time>
      </trkpt>
      <trkpt lat="47.17135" lon="6.51029">
        <ele>622</ele>
        <time>2016-08-17T14:56:00Z</time>
      </trkpt>
      <trkpt lat="47.17133" lon="6.51047">
        <ele>624</ele>
        <time>2016-08-17T14:56:06Z</time>
      </trkpt>
      <trkpt lat="47.17135" lon="6.51064">
        <ele>625</ele>
        <time>2016-08-17T14:56:10Z</time>
      </trkpt>
      <trkpt lat="47.17134" lon="6.51084">
        <ele>631</ele>
        <time>2016-08-17T14:56:16Z</time>
      </trkpt>
      <trkpt lat="47.1713" lon="6.51096">
        <ele>631</ele>
        <time>2016-08-17T14:56:22Z</time>
      </trkpt>
      <trkpt lat="47.17129" lon="6.51113">
        <ele>632</ele>
        <time>2016-08-17T14:56:28Z</time>
      </trkpt>
      <trkpt lat="47.17124" lon="6.51126">
        <ele>632</ele>
        <time>2016-08-17T14:56:34Z</time>
      </trkpt>
      <trkpt lat="47.1712" lon="6.5114">
        <ele>632</ele>
        <time>2016-08-17T14:56:40Z</time>
      </trkpt>
      <trkpt lat="47.17119" lon="6.51155">
        <ele>633</ele>
        <time>2016-08-17T14:56:50Z</time>
      </trkpt>
      <trkpt lat="47.17114" lon="6.51167">
        <ele>637</ele>
        <time>2016-08-17T14:57:08Z</time>
      </trkpt>
      <trkpt lat="47.17108" lon="6.51182">
        <ele>637</ele>
        <time>2016-08-17T14:57:18Z</time>
      </trkpt>
      <trkpt lat="47.17103" lon="6.51194">
        <ele>637</ele>
        <time>2016-08-17T14:57:26Z</time>
      </trkpt>
      <trkpt lat="47.17098" lon="6.51208">
        <ele>637</ele>
        <time>2016-08-17T14:57:42Z</time>
      </trkpt>
      <trkpt lat="47.17088" lon="6.51218">
        <ele>636</ele>
        <time>2016-08-17T14:57:48Z</time>
      </trkpt>
      <trkpt lat="47.1708" lon="6.5123">
        <ele>631</ele>
        <time>2016-08-17T14:57:54Z</time>
      </trkpt>
      <trkpt lat="47.17073" lon="6.51239">
        <ele>631</ele>
        <time>2016-08-17T14:57:58Z</time>
      </trkpt>
      <trkpt lat="47.17067" lon="6.5125">
        <ele>631</ele>
        <time>2016-08-17T14:58:04Z</time>
      </trkpt>
      <trkpt lat="47.17057" lon="6.51262">
        <ele>634</ele>
        <time>2016-08-17T14:58:10Z</time>
      </trkpt>
      <trkpt lat="47.17049" lon="6.51273">
        <ele>635</ele>
        <time>2016-08-17T14:58:16Z</time>
      </trkpt>
      <trkpt lat="47.1704" lon="6.51285">
        <ele>635</ele>
        <time>2016-08-17T14:58:22Z</time>
      </trkpt>
      <trkpt lat="47.17032" lon="6.51297">
        <ele>636</ele>
        <time>2016-08-17T14:58:28Z</time>
      </trkpt>
      <trkpt lat="47.17025" lon="6.51306">
        <ele>636</ele>
        <time>2016-08-17T14:58:32Z</time>
      </trkpt>
      <trkpt lat="47.17017" lon="6.51319">
        <ele>636</ele>
        <time>2016-08-17T14:58:38Z</time>
      </trkpt>
      <trkpt lat="47.17008" lon="6.51331">
        <ele>636</ele>
        <time>2016-08-17T14:58:46Z</time>
      </trkpt>
      <trkpt lat="47.17" lon="6.51339">
        <ele>638</ele>
        <time>2016-08-17T14:58:50Z</time>
      </trkpt>
      <trkpt lat="47.16989" lon="6.51336">
        <ele>639</ele>
        <time>2016-08-17T14:59:02Z</time>
      </trkpt>
      <trkpt lat="47.16982" lon="6.51327">
        <ele>642</ele>
        <time>2016-08-17T14:59:10Z</time>
      </trkpt>
      <trkpt lat="47.1698" lon="6.51312">
        <ele>643</ele>
        <time>2016-08-17T14:59:16Z</time>
      </trkpt>
      <trkpt lat="47.16981" lon="6.51296">
        <ele>644</ele>
        <time>2016-08-17T14:59:22Z</time>
      </trkpt>
      <trkpt lat="47.16982" lon="6.51282">
        <ele>644</ele>
        <time>2016-08-17T14:59:28Z</time>
      </trkpt>
      <trkpt lat="47.16978" lon="6.5127">
        <ele>644</ele>
        <time>2016-08-17T14:59:32Z</time>
      </trkpt>
      <trkpt lat="47.16974" lon="6.51257">
        <ele>645</ele>
        <time>2016-08-17T14:59:38Z</time>
      </trkpt>
      <trkpt lat="47.1697" lon="6.51242">
        <ele>649</ele>
        <time>2016-08-17T14:59:44Z</time>
      </trkpt>
      <trkpt lat="47.16962" lon="6.5123">
        <ele>651</ele>
        <time>2016-08-17T14:59:50Z</time>
      </trkpt>
      <trkpt lat="47.16957" lon="6.51217">
        <ele>653</ele>
        <time>2016-08-17T14:59:58Z</time>
      </trkpt>
      <trkpt lat="47.16951" lon="6.51203">
        <ele>654</ele>
        <time>2016-08-17T15:00:06Z</time>
      </trkpt>
      <trkpt lat="47.16949" lon="6.51187">
        <ele>656</ele>
        <time>2016-08-17T15:00:12Z</time>
      </trkpt>
      <trkpt lat="47.16946" lon="6.51169">
        <ele>658</ele>
        <time>2016-08-17T15:00:20Z</time>
      </trkpt>
      <trkpt lat="47.16946" lon="6.51152">
        <ele>659</ele>
        <time>2016-08-17T15:00:28Z</time>
      </trkpt>
      <trkpt lat="47.16942" lon="6.51139">
        <ele>659</ele>
        <time>2016-08-17T15:00:36Z</time>
      </trkpt>
      <trkpt lat="47.16934" lon="6.51127">
        <ele>660</ele>
        <time>2016-08-17T15:00:44Z</time>
      </trkpt>
      <trkpt lat="47.16929" lon="6.51116">
        <ele>661</ele>
        <time>2016-08-17T15:01:40Z</time>
      </trkpt>
      <trkpt lat="47.1692" lon="6.51115">
        <ele>662</ele>
        <time>2016-08-17T15:02:22Z</time>
      </trkpt>
      <trkpt lat="47.16911" lon="6.51121">
        <ele>680</ele>
        <time>2016-08-17T15:02:30Z</time>
      </trkpt>
      <trkpt lat="47.16902" lon="6.51134">
        <ele>681</ele>
        <time>2016-08-17T15:02:38Z</time>
      </trkpt>
      <trkpt lat="47.16899" lon="6.51149">
        <ele>680</ele>
        <time>2016-08-17T15:02:44Z</time>
      </trkpt>
      <trkpt lat="47.16895" lon="6.51163">
        <ele>680</ele>
        <time>2016-08-17T15:02:50Z</time>
      </trkpt>
      <trkpt lat="47.16891" lon="6.51177">
        <ele>680</ele>
        <time>2016-08-17T15:02:56Z</time>
      </trkpt>
      <trkpt lat="47.16887" lon="6.5119">
        <ele>681</ele>
        <time>2016-08-17T15:03:02Z</time>
      </trkpt>
      <trkpt lat="47.16877" lon="6.51194">
        <ele>683</ele>
        <time>2016-08-17T15:03:08Z</time>
      </trkpt>
      <trkpt lat="47.16866" lon="6.51187">
        <ele>685</ele>
        <time>2016-08-17T15:03:14Z</time>
      </trkpt>
      <trkpt lat="47.16859" lon="6.51172">
        <ele>688</ele>
        <time>2016-08-17T15:03:20Z</time>
      </trkpt>
      <trkpt lat="47.16853" lon="6.51155">
        <ele>690</ele>
        <time>2016-08-17T15:03:26Z</time>
      </trkpt>
      <trkpt lat="47.16849" lon="6.51139">
        <ele>689</ele>
        <time>2016-08-17T15:03:32Z</time>
      </trkpt>
      <trkpt lat="47.16844" lon="6.51123">
        <ele>689</ele>
        <time>2016-08-17T15:03:38Z</time>
      </trkpt>
      <trkpt lat="47.1684" lon="6.51111">
        <ele>690</ele>
        <time>2016-08-17T15:03:44Z</time>
      </trkpt>
      <trkpt lat="47.16835" lon="6.51098">
        <ele>693</ele>
        <time>2016-08-17T15:03:50Z</time>
      </trkpt>
      <trkpt lat="47.16831" lon="6.51086">
        <ele>700</ele>
        <time>2016-08-17T15:03:56Z</time>
      </trkpt>
      <trkpt lat="47.16826" lon="6.51069">
        <ele>702</ele>
        <time>2016-08-17T15:04:02Z</time>
      </trkpt>
      <trkpt lat="47.16822" lon="6.51056">
        <ele>703</ele>
        <time>2016-08-17T15:04:08Z</time>
      </trkpt>
      <trkpt lat="47.16819" lon="6.5104">
        <ele>703</ele>
        <time>2016-08-17T15:04:14Z</time>
      </trkpt>
      <trkpt lat="47.16814" lon="6.51025">
        <ele>703</ele>
        <time>2016-08-17T15:04:20Z</time>
      </trkpt>
      <trkpt lat="47.16808" lon="6.51013">
        <ele>703</ele>
        <time>2016-08-17T15:04:26Z</time>
      </trkpt>
      <trkpt lat="47.16801" lon="6.50998">
        <ele>701</ele>
        <time>2016-08-17T15:04:32Z</time>
      </trkpt>
      <trkpt lat="47.16798" lon="6.50984">
        <ele>702</ele>
        <time>2016-08-17T15:04:36Z</time>
      </trkpt>
      <trkpt lat="47.16791" lon="6.50967">
        <ele>703</ele>
        <time>2016-08-17T15:04:42Z</time>
      </trkpt>
      <trkpt lat="47.16786" lon="6.50952">
        <ele>703</ele>
        <time>2016-08-17T15:04:46Z</time>
      </trkpt>
      <trkpt lat="47.16779" lon="6.5094">
        <ele>703</ele>
        <time>2016-08-17T15:04:50Z</time>
      </trkpt>
      <trkpt lat="47.16771" lon="6.50929">
        <ele>704</ele>
        <time>2016-08-17T15:04:54Z</time>
      </trkpt>
      <trkpt lat="47.16762" lon="6.50916">
        <ele>704</ele>
        <time>2016-08-17T15:04:58Z</time>
      </trkpt>
      <trkpt lat="47.16753" lon="6.50907">
        <ele>705</ele>
        <time>2016-08-17T15:05:02Z</time>
      </trkpt>
      <trkpt lat="47.16745" lon="6.50899">
        <ele>709</ele>
        <time>2016-08-17T15:05:06Z</time>
      </trkpt>
      <trkpt lat="47.16736" lon="6.50893">
        <ele>709</ele>
        <time>2016-08-17T15:05:10Z</time>
      </trkpt>
      <trkpt lat="47.16728" lon="6.50888">
        <ele>710</ele>
        <time>2016-08-17T15:05:14Z</time>
      </trkpt>
      <trkpt lat="47.16718" lon="6.50884">
        <ele>711</ele>
        <time>2016-08-17T15:05:18Z</time>
      </trkpt>
      <trkpt lat="47.16708" lon="6.5088">
        <ele>711</ele>
        <time>2016-08-17T15:05:22Z</time>
      </trkpt>
      <trkpt lat="47.16699" lon="6.50876">
        <ele>712</ele>
        <time>2016-08-17T15:05:26Z</time>
      </trkpt>
      <trkpt lat="47.1669" lon="6.50871">
        <ele>712</ele>
        <time>2016-08-17T15:05:30Z</time>
      </trkpt>
      <trkpt lat="47.1668" lon="6.50867">
        <ele>713</ele>
        <time>2016-08-17T15:05:34Z</time>
      </trkpt>
      <trkpt lat="47.1667" lon="6.50863">
        <ele>713</ele>
        <time>2016-08-17T15:05:38Z</time>
      </trkpt>
      <trkpt lat="47.16661" lon="6.50861">
        <ele>715</ele>
        <time>2016-08-17T15:05:42Z</time>
      </trkpt>
      <trkpt lat="47.16651" lon="6.50859">
        <ele>715</ele>
        <time>2016-08-17T15:05:46Z</time>
      </trkpt>
      <trkpt lat="47.16639" lon="6.50853">
        <ele>715</ele>
        <time>2016-08-17T15:05:52Z</time>
      </trkpt>
      <trkpt lat="47.1663" lon="6.5085">
        <ele>714</ele>
        <time>2016-08-17T15:05:56Z</time>
      </trkpt>
      <trkpt lat="47.16621" lon="6.50849">
        <ele>714</ele>
        <time>2016-08-17T15:06:00Z</time>
      </trkpt>
      <trkpt lat="47.16611" lon="6.50848">
        <ele>713</ele>
        <time>2016-08-17T15:06:04Z</time>
      </trkpt>
      <trkpt lat="47.16601" lon="6.50846">
        <ele>713</ele>
        <time>2016-08-17T15:06:08Z</time>
      </trkpt>
      <trkpt lat="47.16591" lon="6.50847">
        <ele>712</ele>
        <time>2016-08-17T15:06:12Z</time>
      </trkpt>
      <trkpt lat="47.16577" lon="6.50847">
        <ele>711</ele>
        <time>2016-08-17T15:06:18Z</time>
      </trkpt>
      <trkpt lat="47.16564" lon="6.50854">
        <ele>711</ele>
        <time>2016-08-17T15:06:24Z</time>
      </trkpt>
      <trkpt lat="47.16555" lon="6.50861">
        <ele>711</ele>
        <time>2016-08-17T15:06:28Z</time>
      </trkpt>
      <trkpt lat="47.16546" lon="6.50868">
        <ele>712</ele>
        <time>2016-08-17T15:06:32Z</time>
      </trkpt>
      <trkpt lat="47.16536" lon="6.50876">
        <ele>712</ele>
        <time>2016-08-17T15:06:36Z</time>
      </trkpt>
      <trkpt lat="47.16526" lon="6.50883">
        <ele>712</ele>
        <time>2016-08-17T15:06:40Z</time>
      </trkpt>
      <trkpt lat="47.16516" lon="6.50893">
        <ele>713</ele>
        <time>2016-08-17T15:06:44Z</time>
      </trkpt>
      <trkpt lat="47.16508" lon="6.50905">
        <ele>715</ele>
        <time>2016-08-17T15:06:48Z</time>
      </trkpt>
      <trkpt lat="47.165" lon="6.50917">
        <ele>717</ele>
        <time>2016-08-17T15:06:52Z</time>
      </trkpt>
      <trkpt lat="47.16488" lon="6.50927">
        <ele>722</ele>
        <time>2016-08-17T15:06:56Z</time>
      </trkpt>
      <trkpt lat="47.16478" lon="6.50939">
        <ele>724</ele>
        <time>2016-08-17T15:07:00Z</time>
      </trkpt>
      <trkpt lat="47.16467" lon="6.5095">
        <ele>725</ele>
        <time>2016-08-17T15:07:04Z</time>
      </trkpt>
      <trkpt lat="47.16454" lon="6.50954">
        <ele>726</ele>
        <time>2016-08-17T15:07:08Z</time>
      </trkpt>
      <trkpt lat="47.1644" lon="6.50959">
        <ele>727</ele>
        <time>2016-08-17T15:07:12Z</time>
      </trkpt>
      <trkpt lat="47.16431" lon="6.50967">
        <ele>728</ele>
        <time>2016-08-17T15:07:16Z</time>
      </trkpt>
      <trkpt lat="47.1642" lon="6.50977">
        <ele>728</ele>
        <time>2016-08-17T15:07:22Z</time>
      </trkpt>
      <trkpt lat="47.16411" lon="6.50971">
        <ele>734</ele>
        <time>2016-08-17T15:07:32Z</time>
      </trkpt>
      <trkpt lat="47.16416" lon="6.50959">
        <ele>734</ele>
        <time>2016-08-17T15:07:40Z</time>
      </trkpt>
      <trkpt lat="47.16416" lon="6.50942">
        <ele>734</ele>
        <time>2016-08-17T15:07:48Z</time>
      </trkpt>
      <trkpt lat="47.16412" lon="6.5093">
        <ele>734</ele>
        <time>2016-08-17T15:07:54Z</time>
      </trkpt>
      <trkpt lat="47.16403" lon="6.50923">
        <ele>734</ele>
        <time>2016-08-17T15:08:02Z</time>
      </trkpt>
      <trkpt lat="47.16393" lon="6.50918">
        <ele>735</ele>
        <time>2016-08-17T15:08:10Z</time>
      </trkpt>
      <trkpt lat="47.16385" lon="6.50906">
        <ele>736</ele>
        <time>2016-08-17T15:08:18Z</time>
      </trkpt>
      <trkpt lat="47.16381" lon="6.50891">
        <ele>736</ele>
        <time>2016-08-17T15:08:26Z</time>
      </trkpt>
      <trkpt lat="47.16378" lon="6.50875">
        <ele>737</ele>
        <time>2016-08-17T15:08:34Z</time>
      </trkpt>
      <trkpt lat="47.16373" lon="6.5086">
        <ele>737</ele>
        <time>2016-08-17T15:08:42Z</time>
      </trkpt>
      <trkpt lat="47.16364" lon="6.50853">
        <ele>737</ele>
        <time>2016-08-17T15:08:52Z</time>
      </trkpt>
      <trkpt lat="47.16357" lon="6.50838">
        <ele>738</ele>
        <time>2016-08-17T15:09:02Z</time>
      </trkpt>
      <trkpt lat="47.16349" lon="6.50829">
        <ele>738</ele>
        <time>2016-08-17T15:09:10Z</time>
      </trkpt>
      <trkpt lat="47.16343" lon="6.50817">
        <ele>737</ele>
        <time>2016-08-17T15:09:18Z</time>
      </trkpt>
      <trkpt lat="47.16336" lon="6.50805">
        <ele>737</ele>
        <time>2016-08-17T15:09:24Z</time>
      </trkpt>
      <trkpt lat="47.16328" lon="6.50796">
        <ele>742</ele>
        <time>2016-08-17T15:09:28Z</time>
      </trkpt>
      <trkpt lat="47.16321" lon="6.50785">
        <ele>742</ele>
        <time>2016-08-17T15:09:32Z</time>
      </trkpt>
      <trkpt lat="47.16312" lon="6.50775">
        <ele>742</ele>
        <time>2016-08-17T15:09:38Z</time>
      </trkpt>
      <trkpt lat="47.16302" lon="6.50762">
        <ele>742</ele>
        <time>2016-08-17T15:09:44Z</time>
      </trkpt>
      <trkpt lat="47.16292" lon="6.50749">
        <ele>740</ele>
        <time>2016-08-17T15:09:50Z</time>
      </trkpt>
      <trkpt lat="47.16285" lon="6.50739">
        <ele>740</ele>
        <time>2016-08-17T15:09:54Z</time>
      </trkpt>
      <trkpt lat="47.16279" lon="6.50725">
        <ele>740</ele>
        <time>2016-08-17T15:10:00Z</time>
      </trkpt>
      <trkpt lat="47.16274" lon="6.50707">
        <ele>740</ele>
        <time>2016-08-17T15:10:06Z</time>
      </trkpt>
      <trkpt lat="47.16271" lon="6.50692">
        <ele>740</ele>
        <time>2016-08-17T15:10:10Z</time>
      </trkpt>
      <trkpt lat="47.16267" lon="6.5068">
        <ele>740</ele>
        <time>2016-08-17T15:10:14Z</time>
      </trkpt>
      <trkpt lat="47.16262" lon="6.50662">
        <ele>739</ele>
        <time>2016-08-17T15:10:20Z</time>
      </trkpt>
      <trkpt lat="47.16259" lon="6.50648">
        <ele>738</ele>
        <time>2016-08-17T15:10:24Z</time>
      </trkpt>
      <trkpt lat="47.16257" lon="6.5063">
        <ele>737</ele>
        <time>2016-08-17T15:10:28Z</time>
      </trkpt>
      <trkpt lat="47.16252" lon="6.50609">
        <ele>737</ele>
        <time>2016-08-17T15:10:32Z</time>
      </trkpt>
      <trkpt lat="47.16242" lon="6.5059">
        <ele>741</ele>
        <time>2016-08-17T15:10:36Z</time>
      </trkpt>
      <trkpt lat="47.16233" lon="6.50569">
        <ele>740</ele>
        <time>2016-08-17T15:10:40Z</time>
      </trkpt>
      <trkpt lat="47.16229" lon="6.50557">
        <ele>741</ele>
        <time>2016-08-17T15:10:42Z</time>
      </trkpt>
      <trkpt lat="47.1622" lon="6.50538">
        <ele>741</ele>
        <time>2016-08-17T15:10:46Z</time>
      </trkpt>
      <trkpt lat="47.16216" lon="6.50523">
        <ele>741</ele>
        <time>2016-08-17T15:10:48Z</time>
      </trkpt>
      <trkpt lat="47.16212" lon="6.5051">
        <ele>740</ele>
        <time>2016-08-17T15:10:50Z</time>
      </trkpt>
      <trkpt lat="47.16206" lon="6.505">
        <ele>739</ele>
        <time>2016-08-17T15:10:52Z</time>
      </trkpt>
      <trkpt lat="47.16199" lon="6.50489">
        <ele>739</ele>
        <time>2016-08-17T15:10:54Z</time>
      </trkpt>
      <trkpt lat="47.16194" lon="6.50475">
        <ele>739</ele>
        <time>2016-08-17T15:10:56Z</time>
      </trkpt>
      <trkpt lat="47.16185" lon="6.50452">
        <ele>739</ele>
        <time>2016-08-17T15:11:00Z</time>
      </trkpt>
      <trkpt lat="47.16179" lon="6.5044">
        <ele>739</ele>
        <time>2016-08-17T15:11:02Z</time>
      </trkpt>
      <trkpt lat="47.16174" lon="6.50428">
        <ele>739</ele>
        <time>2016-08-17T15:11:04Z</time>
      </trkpt>
      <trkpt lat="47.16167" lon="6.50416">
        <ele>740</ele>
        <time>2016-08-17T15:11:06Z</time>
      </trkpt>
      <trkpt lat="47.16161" lon="6.50404">
        <ele>741</ele>
        <time>2016-08-17T15:11:08Z</time>
      </trkpt>
      <trkpt lat="47.16153" lon="6.50394">
        <ele>741</ele>
        <time>2016-08-17T15:11:10Z</time>
      </trkpt>
      <trkpt lat="47.16145" lon="6.50383">
        <ele>741</ele>
        <time>2016-08-17T15:11:12Z</time>
      </trkpt>
      <trkpt lat="47.16137" lon="6.50371">
        <ele>741</ele>
        <time>2016-08-17T15:11:14Z</time>
      </trkpt>
      <trkpt lat="47.16129" lon="6.50361">
        <ele>742</ele>
        <time>2016-08-17T15:11:16Z</time>
      </trkpt>
      <trkpt lat="47.1612" lon="6.50349">
        <ele>742</ele>
        <time>2016-08-17T15:11:18Z</time>
      </trkpt>
      <trkpt lat="47.16112" lon="6.50341">
        <ele>742</ele>
        <time>2016-08-17T15:11:20Z</time>
      </trkpt>
      <trkpt lat="47.16102" lon="6.50333">
        <ele>741</ele>
        <time>2016-08-17T15:11:22Z</time>
      </trkpt>
      <trkpt lat="47.16093" lon="6.50325">
        <ele>742</ele>
        <time>2016-08-17T15:11:24Z</time>
      </trkpt>
      <trkpt lat="47.16077" lon="6.50319">
        <ele>745</ele>
        <time>2016-08-17T15:11:28Z</time>
      </trkpt>
      <trkpt lat="47.16068" lon="6.5032">
        <ele>745</ele>
        <time>2016-08-17T15:11:32Z</time>
      </trkpt>
      <trkpt lat="47.16068" lon="6.5032">
        <ele>745</ele>
        <time>2016-08-17T15:11:38Z</time>
      </trkpt>
      <trkpt lat="47.15898" lon="6.50068">
        <ele>744</ele>
        <time>2016-08-17T15:17:44Z</time>
      </trkpt>
      <trkpt lat="47.15877" lon="6.50063">
        <ele>744</ele>
        <time>2016-08-17T15:17:47Z</time>
      </trkpt>
      <trkpt lat="47.15863" lon="6.50059">
        <ele>744</ele>
        <time>2016-08-17T15:17:49Z</time>
      </trkpt>
      <trkpt lat="47.15847" lon="6.50057">
        <ele>745</ele>
        <time>2016-08-17T15:17:52Z</time>
      </trkpt>
      <trkpt lat="47.15836" lon="6.50055">
        <ele>745</ele>
        <time>2016-08-17T15:17:54Z</time>
      </trkpt>
      <trkpt lat="47.15825" lon="6.50051">
        <ele>746</ele>
        <time>2016-08-17T15:17:56Z</time>
      </trkpt>
      <trkpt lat="47.15814" lon="6.50048">
        <ele>746</ele>
        <time>2016-08-17T15:18:00Z</time>
      </trkpt>
      <trkpt lat="47.15791" lon="6.50042">
        <ele>746</ele>
        <time>2016-08-17T15:18:02Z</time>
      </trkpt>
      <trkpt lat="47.15779" lon="6.50038">
        <ele>746</ele>
        <time>2016-08-17T15:18:04Z</time>
      </trkpt>
      <trkpt lat="47.15768" lon="6.50035">
        <ele>746</ele>
        <time>2016-08-17T15:18:06Z</time>
      </trkpt>
      <trkpt lat="47.15756" lon="6.50032">
        <ele>745</ele>
        <time>2016-08-17T15:18:08Z</time>
      </trkpt>
      <trkpt lat="47.15743" lon="6.50028">
        <ele>747</ele>
        <time>2016-08-17T15:18:10Z</time>
      </trkpt>
      <trkpt lat="47.15731" lon="6.50025">
        <ele>747</ele>
        <time>2016-08-17T15:18:12Z</time>
      </trkpt>
      <trkpt lat="47.15719" lon="6.50021">
        <ele>747</ele>
        <time>2016-08-17T15:18:14Z</time>
      </trkpt>
      <trkpt lat="47.15708" lon="6.50019">
        <ele>747</ele>
        <time>2016-08-17T15:18:16Z</time>
      </trkpt>
      <trkpt lat="47.15696" lon="6.50014">
        <ele>748</ele>
        <time>2016-08-17T15:18:18Z</time>
      </trkpt>
      <trkpt lat="47.15683" lon="6.50011">
        <ele>748</ele>
        <time>2016-08-17T15:18:20Z</time>
      </trkpt>
      <trkpt lat="47.15671" lon="6.50008">
        <ele>747</ele>
        <time>2016-08-17T15:18:22Z</time>
      </trkpt>
      <trkpt lat="47.15659" lon="6.50006">
        <ele>749</ele>
        <time>2016-08-17T15:18:24Z</time>
      </trkpt>
      <trkpt lat="47.15648" lon="6.50002">
        <ele>750</ele>
        <time>2016-08-17T15:18:26Z</time>
      </trkpt>
      <trkpt lat="47.15639" lon="6.49998">
        <ele>747</ele>
        <time>2016-08-17T15:18:28Z</time>
      </trkpt>
      <trkpt lat="47.1563" lon="6.49993">
        <ele>747</ele>
        <time>2016-08-17T15:18:30Z</time>
      </trkpt>
      <trkpt lat="47.15622" lon="6.49987">
        <ele>747</ele>
        <time>2016-08-17T15:18:32Z</time>
      </trkpt>
      <trkpt lat="47.15612" lon="6.49983">
        <ele>748</ele>
        <time>2016-08-17T15:18:34Z</time>
      </trkpt>
      <trkpt lat="47.15603" lon="6.49978">
        <ele>748</ele>
        <time>2016-08-17T15:18:36Z</time>
      </trkpt>
      <trkpt lat="47.15593" lon="6.49973">
        <ele>748</ele>
        <time>2016-08-17T15:18:38Z</time>
      </trkpt>
      <trkpt lat="47.15585" lon="6.49967">
        <ele>748</ele>
        <time>2016-08-17T15:18:40Z</time>
      </trkpt>
      <trkpt lat="47.15576" lon="6.49962">
        <ele>751</ele>
        <time>2016-08-17T15:18:42Z</time>
      </trkpt>
      <trkpt lat="47.15568" lon="6.49956">
        <ele>751</ele>
        <time>2016-08-17T15:18:44Z</time>
      </trkpt>
      <trkpt lat="47.15559" lon="6.49949">
        <ele>750</ele>
        <time>2016-08-17T15:18:46Z</time>
      </trkpt>
      <trkpt lat="47.1555" lon="6.49946">
        <ele>751</ele>
        <time>2016-08-17T15:18:48Z</time>
      </trkpt>
      <trkpt lat="47.1554" lon="6.49939">
        <ele>751</ele>
        <time>2016-08-17T15:18:50Z</time>
      </trkpt>
      <trkpt lat="47.15531" lon="6.49936">
        <ele>751</ele>
        <time>2016-08-17T15:18:52Z</time>
      </trkpt>
      <trkpt lat="47.15521" lon="6.49932">
        <ele>751</ele>
        <time>2016-08-17T15:18:54Z</time>
      </trkpt>
      <trkpt lat="47.15512" lon="6.49929">
        <ele>751</ele>
        <time>2016-08-17T15:18:56Z</time>
      </trkpt>
      <trkpt lat="47.15503" lon="6.49928">
        <ele>751</ele>
        <time>2016-08-17T15:18:58Z</time>
      </trkpt>
      <trkpt lat="47.15485" lon="6.49924">
        <ele>754</ele>
        <time>2016-08-17T15:19:02Z</time>
      </trkpt>
      <trkpt lat="47.15473" lon="6.49925">
        <ele>755</ele>
        <time>2016-08-17T15:19:04Z</time>
      </trkpt>
      <trkpt lat="47.15463" lon="6.4992">
        <ele>755</ele>
        <time>2016-08-17T15:19:06Z</time>
      </trkpt>
      <trkpt lat="47.15445" lon="6.49909">
        <ele>751</ele>
        <time>2016-08-17T15:19:10Z</time>
      </trkpt>
      <trkpt lat="47.15436" lon="6.49905">
        <ele>751</ele>
        <time>2016-08-17T15:19:12Z</time>
      </trkpt>
      <trkpt lat="47.15418" lon="6.49899">
        <ele>751</ele>
        <time>2016-08-17T15:19:16Z</time>
      </trkpt>
      <trkpt lat="47.15406" lon="6.49905">
        <ele>755</ele>
        <time>2016-08-17T15:19:20Z</time>
      </trkpt>
      <trkpt lat="47.15416" lon="6.49908">
        <ele>754</ele>
        <time>2016-08-17T15:19:30Z</time>
      </trkpt>
      <trkpt lat="47.15413" lon="6.49925">
        <ele>757</ele>
        <time>2016-08-17T15:20:20Z</time>
      </trkpt>
      <trkpt lat="47.1542" lon="6.49941">
        <ele>756</ele>
        <time>2016-08-17T15:20:24Z</time>
      </trkpt>
      <trkpt lat="47.15428" lon="6.49949">
        <ele>757</ele>
        <time>2016-08-17T15:20:28Z</time>
      </trkpt>
      <trkpt lat="47.15439" lon="6.49952">
        <ele>757</ele>
        <time>2016-08-17T15:20:34Z</time>
      </trkpt>
      <trkpt lat="47.15425" lon="6.49951">
        <ele>757</ele>
        <time>2016-08-17T15:20:50Z</time>
      </trkpt>
      <trkpt lat="47.15427" lon="6.49969">
        <ele>759</ele>
        <time>2016-08-17T15:20:56Z</time>
      </trkpt>
      <trkpt lat="47.15431" lon="6.49987">
        <ele>760</ele>
        <time>2016-08-17T15:21:00Z</time>
      </trkpt>
      <trkpt lat="47.15437" lon="6.50002">
        <ele>767</ele>
        <time>2016-08-17T15:21:04Z</time>
      </trkpt>
      <trkpt lat="47.15444" lon="6.50013">
        <ele>767</ele>
        <time>2016-08-17T15:21:08Z</time>
      </trkpt>
      <trkpt lat="47.15452" lon="6.50023">
        <ele>768</ele>
        <time>2016-08-17T15:21:12Z</time>
      </trkpt>
      <trkpt lat="47.15457" lon="6.50038">
        <ele>769</ele>
        <time>2016-08-17T15:21:18Z</time>
      </trkpt>
      <trkpt lat="47.15471" lon="6.5005">
        <ele>769</ele>
        <time>2016-08-17T15:21:24Z</time>
      </trkpt>
      <trkpt lat="47.15482" lon="6.50057">
        <ele>768</ele>
        <time>2016-08-17T15:21:30Z</time>
      </trkpt>
      <trkpt lat="47.1549" lon="6.50075">
        <ele>769</ele>
        <time>2016-08-17T15:21:37Z</time>
      </trkpt>
      <trkpt lat="47.15493" lon="6.5009">
        <ele>773</ele>
        <time>2016-08-17T15:21:40Z</time>
      </trkpt>
      <trkpt lat="47.15494" lon="6.50105">
        <ele>778</ele>
        <time>2016-08-17T15:21:44Z</time>
      </trkpt>
      <trkpt lat="47.155" lon="6.50124">
        <ele>782</ele>
        <time>2016-08-17T15:21:48Z</time>
      </trkpt>
      <trkpt lat="47.15504" lon="6.50138">
        <ele>775</ele>
        <time>2016-08-17T15:21:52Z</time>
      </trkpt>
      <trkpt lat="47.15508" lon="6.50153">
        <ele>778</ele>
        <time>2016-08-17T15:21:56Z</time>
      </trkpt>
      <trkpt lat="47.15514" lon="6.50167">
        <ele>779</ele>
        <time>2016-08-17T15:22:00Z</time>
      </trkpt>
      <trkpt lat="47.15523" lon="6.50182">
        <ele>785</ele>
        <time>2016-08-17T15:22:06Z</time>
      </trkpt>
      <trkpt lat="47.15531" lon="6.50192">
        <ele>786</ele>
        <time>2016-08-17T15:22:10Z</time>
      </trkpt>
      <trkpt lat="47.15543" lon="6.50198">
        <ele>785</ele>
        <time>2016-08-17T15:22:14Z</time>
      </trkpt>
      <trkpt lat="47.15549" lon="6.50208">
        <ele>785</ele>
        <time>2016-08-17T15:22:18Z</time>
      </trkpt>
      <trkpt lat="47.15554" lon="6.5022">
        <ele>786</ele>
        <time>2016-08-17T15:22:22Z</time>
      </trkpt>
      <trkpt lat="47.15562" lon="6.50226">
        <ele>786</ele>
        <time>2016-08-17T15:22:28Z</time>
      </trkpt>
      <trkpt lat="47.15571" lon="6.50238">
        <ele>786</ele>
        <time>2016-08-17T15:22:32Z</time>
      </trkpt>
      <trkpt lat="47.1558" lon="6.50251">
        <ele>787</ele>
        <time>2016-08-17T15:22:36Z</time>
      </trkpt>
      <trkpt lat="47.15589" lon="6.50262">
        <ele>786</ele>
        <time>2016-08-17T15:22:40Z</time>
      </trkpt>
      <trkpt lat="47.15596" lon="6.50277">
        <ele>787</ele>
        <time>2016-08-17T15:22:44Z</time>
      </trkpt>
      <trkpt lat="47.15603" lon="6.5029">
        <ele>788</ele>
        <time>2016-08-17T15:22:48Z</time>
      </trkpt>
      <trkpt lat="47.15609" lon="6.503">
        <ele>789</ele>
        <time>2016-08-17T15:22:54Z</time>
      </trkpt>
      <trkpt lat="47.15617" lon="6.50313">
        <ele>789</ele>
        <time>2016-08-17T15:22:58Z</time>
      </trkpt>
      <trkpt lat="47.1562" lon="6.5033">
        <ele>790</ele>
        <time>2016-08-17T15:23:02Z</time>
      </trkpt>
      <trkpt lat="47.15623" lon="6.50345">
        <ele>798</ele>
        <time>2016-08-17T15:23:08Z</time>
      </trkpt>
      <trkpt lat="47.15626" lon="6.50357">
        <ele>798</ele>
        <time>2016-08-17T15:23:12Z</time>
      </trkpt>
      <trkpt lat="47.15631" lon="6.50372">
        <ele>799</ele>
        <time>2016-08-17T15:23:16Z</time>
      </trkpt>
      <trkpt lat="47.15635" lon="6.5039">
        <ele>800</ele>
        <time>2016-08-17T15:23:22Z</time>
      </trkpt>
      <trkpt lat="47.15639" lon="6.50407">
        <ele>801</ele>
        <time>2016-08-17T15:23:28Z</time>
      </trkpt>
      <trkpt lat="47.15641" lon="6.50423">
        <ele>808</ele>
        <time>2016-08-17T15:23:34Z</time>
      </trkpt>
      <trkpt lat="47.15642" lon="6.50439">
        <ele>809</ele>
        <time>2016-08-17T15:23:40Z</time>
      </trkpt>
      <trkpt lat="47.15635" lon="6.50451">
        <ele>810</ele>
        <time>2016-08-17T15:23:46Z</time>
      </trkpt>
      <trkpt lat="47.15623" lon="6.50451">
        <ele>811</ele>
        <time>2016-08-17T15:23:52Z</time>
      </trkpt>
      <trkpt lat="47.15613" lon="6.50449">
        <ele>811</ele>
        <time>2016-08-17T15:24:00Z</time>
      </trkpt>
      <trkpt lat="47.15602" lon="6.50451">
        <ele>811</ele>
        <time>2016-08-17T15:24:06Z</time>
      </trkpt>
      <trkpt lat="47.15596" lon="6.50461">
        <ele>812</ele>
        <time>2016-08-17T15:24:12Z</time>
      </trkpt>
      <trkpt lat="47.15598" lon="6.50476">
        <ele>814</ele>
        <time>2016-08-17T15:24:20Z</time>
      </trkpt>
      <trkpt lat="47.15601" lon="6.50492">
        <ele>815</ele>
        <time>2016-08-17T15:24:26Z</time>
      </trkpt>
      <trkpt lat="47.15606" lon="6.50508">
        <ele>820</ele>
        <time>2016-08-17T15:24:34Z</time>
      </trkpt>
      <trkpt lat="47.15607" lon="6.50526">
        <ele>820</ele>
        <time>2016-08-17T15:24:40Z</time>
      </trkpt>
      <trkpt lat="47.15611" lon="6.50539">
        <ele>821</ele>
        <time>2016-08-17T15:24:44Z</time>
      </trkpt>
      <trkpt lat="47.15617" lon="6.50554">
        <ele>821</ele>
        <time>2016-08-17T15:24:50Z</time>
      </trkpt>
      <trkpt lat="47.15619" lon="6.5057">
        <ele>822</ele>
        <time>2016-08-17T15:24:54Z</time>
      </trkpt>
      <trkpt lat="47.15623" lon="6.50589">
        <ele>828</ele>
        <time>2016-08-17T15:25:00Z</time>
      </trkpt>
      <trkpt lat="47.1563" lon="6.50608">
        <ele>828</ele>
        <time>2016-08-17T15:25:04Z</time>
      </trkpt>
      <trkpt lat="47.15635" lon="6.50627">
        <ele>829</ele>
        <time>2016-08-17T15:25:10Z</time>
      </trkpt>
      <trkpt lat="47.15638" lon="6.50644">
        <ele>831</ele>
        <time>2016-08-17T15:25:16Z</time>
      </trkpt>
      <trkpt lat="47.15642" lon="6.50661">
        <ele>831</ele>
        <time>2016-08-17T15:25:22Z</time>
      </trkpt>
      <trkpt lat="47.15644" lon="6.50677">
        <ele>838</ele>
        <time>2016-08-17T15:25:26Z</time>
      </trkpt>
      <trkpt lat="47.15647" lon="6.50692">
        <ele>839</ele>
        <time>2016-08-17T15:25:34Z</time>
      </trkpt>
      <trkpt lat="47.15649" lon="6.50707">
        <ele>840</ele>
        <time>2016-08-17T15:25:38Z</time>
      </trkpt>
      <trkpt lat="47.1565" lon="6.50726">
        <ele>842</ele>
        <time>2016-08-17T15:25:44Z</time>
      </trkpt>
      <trkpt lat="47.15654" lon="6.5074">
        <ele>842</ele>
        <time>2016-08-17T15:25:52Z</time>
      </trkpt>
      <trkpt lat="47.15653" lon="6.50754">
        <ele>846</ele>
        <time>2016-08-17T15:25:56Z</time>
      </trkpt>
      <trkpt lat="47.15653" lon="6.50769">
        <ele>848</ele>
        <time>2016-08-17T15:26:00Z</time>
      </trkpt>
      <trkpt lat="47.15655" lon="6.50788">
        <ele>849</ele>
        <time>2016-08-17T15:26:06Z</time>
      </trkpt>
      <trkpt lat="47.15659" lon="6.50801">
        <ele>850</ele>
        <time>2016-08-17T15:26:10Z</time>
      </trkpt>
      <trkpt lat="47.15663" lon="6.50816">
        <ele>850</ele>
        <time>2016-08-17T15:26:14Z</time>
      </trkpt>
      <trkpt lat="47.15668" lon="6.5083">
        <ele>848</ele>
        <time>2016-08-17T15:26:20Z</time>
      </trkpt>
      <trkpt lat="47.15671" lon="6.50846">
        <ele>849</ele>
        <time>2016-08-17T15:26:24Z</time>
      </trkpt>
      <trkpt lat="47.15675" lon="6.50862">
        <ele>850</ele>
        <time>2016-08-17T15:26:30Z</time>
      </trkpt>
      <trkpt lat="47.15683" lon="6.50875">
        <ele>850</ele>
        <time>2016-08-17T15:26:34Z</time>
      </trkpt>
      <trkpt lat="47.15685" lon="6.50891">
        <ele>851</ele>
        <time>2016-08-17T15:26:38Z</time>
      </trkpt>
      <trkpt lat="47.15689" lon="6.50907">
        <ele>852</ele>
        <time>2016-08-17T15:26:42Z</time>
      </trkpt>
      <trkpt lat="47.15693" lon="6.50921">
        <ele>858</ele>
        <time>2016-08-17T15:26:48Z</time>
      </trkpt>
      <trkpt lat="47.15699" lon="6.50934">
        <ele>858</ele>
        <time>2016-08-17T15:26:52Z</time>
      </trkpt>
      <trkpt lat="47.15705" lon="6.50951">
        <ele>859</ele>
        <time>2016-08-17T15:26:56Z</time>
      </trkpt>
      <trkpt lat="47.15709" lon="6.50964">
        <ele>859</ele>
        <time>2016-08-17T15:27:00Z</time>
      </trkpt>
      <trkpt lat="47.15713" lon="6.50978">
        <ele>860</ele>
        <time>2016-08-17T15:27:06Z</time>
      </trkpt>
      <trkpt lat="47.15717" lon="6.50991">
        <ele>860</ele>
        <time>2016-08-17T15:27:08Z</time>
      </trkpt>
      <trkpt lat="47.15729" lon="6.51012">
        <ele>866</ele>
        <time>2016-08-17T15:27:14Z</time>
      </trkpt>
      <trkpt lat="47.15731" lon="6.51027">
        <ele>867</ele>
        <time>2016-08-17T15:27:18Z</time>
      </trkpt>
      <trkpt lat="47.15734" lon="6.51048">
        <ele>870</ele>
        <time>2016-08-17T15:27:22Z</time>
      </trkpt>
      <trkpt lat="47.15739" lon="6.51064">
        <ele>870</ele>
        <time>2016-08-17T15:27:26Z</time>
      </trkpt>
      <trkpt lat="47.15748" lon="6.51077">
        <ele>870</ele>
        <time>2016-08-17T15:27:32Z</time>
      </trkpt>
      <trkpt lat="47.15742" lon="6.51092">
        <ele>875</ele>
        <time>2016-08-17T15:27:38Z</time>
      </trkpt>
      <trkpt lat="47.15745" lon="6.51119">
        <ele>881</ele>
        <time>2016-08-17T15:27:42Z</time>
      </trkpt>
      <trkpt lat="47.15744" lon="6.51133">
        <ele>882</ele>
        <time>2016-08-17T15:27:50Z</time>
      </trkpt>
      <trkpt lat="47.15748" lon="6.51152">
        <ele>882</ele>
        <time>2016-08-17T15:27:52Z</time>
      </trkpt>
      <trkpt lat="47.15746" lon="6.51165">
        <ele>882</ele>
        <time>2016-08-17T15:27:56Z</time>
      </trkpt>
      <trkpt lat="47.15747" lon="6.51182">
        <ele>887</ele>
        <time>2016-08-17T15:28:04Z</time>
      </trkpt>
      <trkpt lat="47.1575" lon="6.512">
        <ele>889</ele>
        <time>2016-08-17T15:28:08Z</time>
      </trkpt>
      <trkpt lat="47.15752" lon="6.51217">
        <ele>879</ele>
        <time>2016-08-17T15:28:16Z</time>
      </trkpt>
      <trkpt lat="47.15751" lon="6.51236">
        <ele>881</ele>
        <time>2016-08-17T15:29:36Z</time>
      </trkpt>
      <trkpt lat="47.15752" lon="6.5125">
        <ele>885</ele>
        <time>2016-08-17T15:29:42Z</time>
      </trkpt>
      <trkpt lat="47.15751" lon="6.51264">
        <ele>883</ele>
        <time>2016-08-17T15:29:48Z</time>
      </trkpt>
      <trkpt lat="47.15755" lon="6.51278">
        <ele>883</ele>
        <time>2016-08-17T15:29:52Z</time>
      </trkpt>
      <trkpt lat="47.15752" lon="6.51291">
        <ele>883</ele>
        <time>2016-08-17T15:29:56Z</time>
      </trkpt>
      <trkpt lat="47.15751" lon="6.51309">
        <ele>883</ele>
        <time>2016-08-17T15:30:02Z</time>
      </trkpt>
      <trkpt lat="47.15752" lon="6.51323">
        <ele>884</ele>
        <time>2016-08-17T15:30:06Z</time>
      </trkpt>
      <trkpt lat="47.15754" lon="6.51337">
        <ele>885</ele>
        <time>2016-08-17T15:30:12Z</time>
      </trkpt>
      <trkpt lat="47.15756" lon="6.51352">
        <ele>886</ele>
        <time>2016-08-17T15:30:18Z</time>
      </trkpt>
      <trkpt lat="47.15762" lon="6.51362">
        <ele>887</ele>
        <time>2016-08-17T15:30:26Z</time>
      </trkpt>
      <trkpt lat="47.15766" lon="6.51377">
        <ele>887</ele>
        <time>2016-08-17T15:31:06Z</time>
      </trkpt>
      <trkpt lat="47.15769" lon="6.51394">
        <ele>888</ele>
        <time>2016-08-17T15:31:12Z</time>
      </trkpt>
      <trkpt lat="47.1577" lon="6.51407">
        <ele>889</ele>
        <time>2016-08-17T15:31:18Z</time>
      </trkpt>
      <trkpt lat="47.15769" lon="6.51423">
        <ele>894</ele>
        <time>2016-08-17T15:31:24Z</time>
      </trkpt>
      <trkpt lat="47.15771" lon="6.51439">
        <ele>894</ele>
        <time>2016-08-17T15:31:30Z</time>
      </trkpt>
      <trkpt lat="47.15772" lon="6.51455">
        <ele>895</ele>
        <time>2016-08-17T15:31:36Z</time>
      </trkpt>
      <trkpt lat="47.15775" lon="6.51471">
        <ele>896</ele>
        <time>2016-08-17T15:31:42Z</time>
      </trkpt>
      <trkpt lat="47.15777" lon="6.51486">
        <ele>897</ele>
        <time>2016-08-17T15:31:48Z</time>
      </trkpt>
      <trkpt lat="47.15779" lon="6.515">
        <ele>902</ele>
        <time>2016-08-17T15:31:54Z</time>
      </trkpt>
      <trkpt lat="47.15783" lon="6.51514">
        <ele>902</ele>
        <time>2016-08-17T15:31:58Z</time>
      </trkpt>
      <trkpt lat="47.15788" lon="6.51527">
        <ele>902</ele>
        <time>2016-08-17T15:32:06Z</time>
      </trkpt>
      <trkpt lat="47.15789" lon="6.51541">
        <ele>903</ele>
        <time>2016-08-17T15:32:10Z</time>
      </trkpt>
      <trkpt lat="47.15794" lon="6.51554">
        <ele>903</ele>
        <time>2016-08-17T15:32:16Z</time>
      </trkpt>
      <trkpt lat="47.15797" lon="6.51568">
        <ele>903</ele>
        <time>2016-08-17T15:32:20Z</time>
      </trkpt>
      <trkpt lat="47.15801" lon="6.51592">
        <ele>906</ele>
        <time>2016-08-17T15:32:24Z</time>
      </trkpt>
      <trkpt lat="47.15803" lon="6.51607">
        <ele>906</ele>
        <time>2016-08-17T15:32:26Z</time>
      </trkpt>
      <trkpt lat="47.15813" lon="6.51629">
        <ele>906</ele>
        <time>2016-08-17T15:32:30Z</time>
      </trkpt>
      <trkpt lat="47.1582" lon="6.51649">
        <ele>905</ele>
        <time>2016-08-17T15:32:34Z</time>
      </trkpt>
      <trkpt lat="47.15828" lon="6.51668">
        <ele>903</ele>
        <time>2016-08-17T15:32:38Z</time>
      </trkpt>
      <trkpt lat="47.15832" lon="6.51696">
        <ele>907</ele>
        <time>2016-08-17T15:32:42Z</time>
      </trkpt>
      <trkpt lat="47.15837" lon="6.51709">
        <ele>900</ele>
        <time>2016-08-17T15:32:44Z</time>
      </trkpt>
      <trkpt lat="47.15846" lon="6.51724">
        <ele>901</ele>
        <time>2016-08-17T15:32:46Z</time>
      </trkpt>
      <trkpt lat="47.15852" lon="6.51736">
        <ele>902</ele>
        <time>2016-08-17T15:32:48Z</time>
      </trkpt>
      <trkpt lat="47.15859" lon="6.5175">
        <ele>902</ele>
        <time>2016-08-17T15:32:50Z</time>
      </trkpt>
      <trkpt lat="47.15867" lon="6.51763">
        <ele>904</ele>
        <time>2016-08-17T15:32:52Z</time>
      </trkpt>
      <trkpt lat="47.15874" lon="6.51779">
        <ele>903</ele>
        <time>2016-08-17T15:32:54Z</time>
      </trkpt>
      <trkpt lat="47.15881" lon="6.51792">
        <ele>903</ele>
        <time>2016-08-17T15:32:56Z</time>
      </trkpt>
      <trkpt lat="47.15886" lon="6.51805">
        <ele>903</ele>
        <time>2016-08-17T15:32:58Z</time>
      </trkpt>
      <trkpt lat="47.15893" lon="6.51822">
        <ele>903</ele>
        <time>2016-08-17T15:33:00Z</time>
      </trkpt>
      <trkpt lat="47.15898" lon="6.51837">
        <ele>903</ele>
        <time>2016-08-17T15:33:02Z</time>
      </trkpt>
      <trkpt lat="47.15901" lon="6.51853">
        <ele>903</ele>
        <time>2016-08-17T15:33:04Z</time>
      </trkpt>
      <trkpt lat="47.15906" lon="6.51867">
        <ele>904</ele>
        <time>2016-08-17T15:33:06Z</time>
      </trkpt>
      <trkpt lat="47.15907" lon="6.51882">
        <ele>904</ele>
        <time>2016-08-17T15:33:08Z</time>
      </trkpt>
      <trkpt lat="47.15908" lon="6.51899">
        <ele>904</ele>
        <time>2016-08-17T15:33:10Z</time>
      </trkpt>
      <trkpt lat="47.15908" lon="6.51925">
        <ele>903</ele>
        <time>2016-08-17T15:33:14Z</time>
      </trkpt>
      <trkpt lat="47.15911" lon="6.51951">
        <ele>901</ele>
        <time>2016-08-17T15:33:18Z</time>
      </trkpt>
      <trkpt lat="47.15916" lon="6.51966">
        <ele>901</ele>
        <time>2016-08-17T15:33:20Z</time>
      </trkpt>
      <trkpt lat="47.15925" lon="6.51982">
        <ele>901</ele>
        <time>2016-08-17T15:33:22Z</time>
      </trkpt>
      <trkpt lat="47.15933" lon="6.52002">
        <ele>901</ele>
        <time>2016-08-17T15:33:24Z</time>
      </trkpt>
      <trkpt lat="47.15942" lon="6.52027">
        <ele>901</ele>
        <time>2016-08-17T15:33:26Z</time>
      </trkpt>
      <trkpt lat="47.15951" lon="6.52048">
        <ele>901</ele>
        <time>2016-08-17T15:33:28Z</time>
      </trkpt>
      <trkpt lat="47.15962" lon="6.52066">
        <ele>901</ele>
        <time>2016-08-17T15:33:32Z</time>
      </trkpt>
      <trkpt lat="47.15975" lon="6.52079">
        <ele>902</ele>
        <time>2016-08-17T15:33:36Z</time>
      </trkpt>
      <trkpt lat="47.15989" lon="6.52094">
        <ele>905</ele>
        <time>2016-08-17T15:33:40Z</time>
      </trkpt>
      <trkpt lat="47.16" lon="6.52107">
        <ele>898</ele>
        <time>2016-08-17T15:33:44Z</time>
      </trkpt>
      <trkpt lat="47.16008" lon="6.52128">
        <ele>898</ele>
        <time>2016-08-17T15:33:48Z</time>
      </trkpt>
      <trkpt lat="47.16018" lon="6.52145">
        <ele>899</ele>
        <time>2016-08-17T15:33:54Z</time>
      </trkpt>
      <trkpt lat="47.16026" lon="6.52155">
        <ele>899</ele>
        <time>2016-08-17T15:33:58Z</time>
      </trkpt>
      <trkpt lat="47.16035" lon="6.52166">
        <ele>897</ele>
        <time>2016-08-17T15:34:02Z</time>
      </trkpt>
      <trkpt lat="47.16042" lon="6.52178">
        <ele>906</ele>
        <time>2016-08-17T15:34:08Z</time>
      </trkpt>
      <trkpt lat="47.16048" lon="6.52193">
        <ele>907</ele>
        <time>2016-08-17T15:34:12Z</time>
      </trkpt>
      <trkpt lat="47.16051" lon="6.52205">
        <ele>908</ele>
        <time>2016-08-17T15:34:16Z</time>
      </trkpt>
      <trkpt lat="47.16053" lon="6.52221">
        <ele>909</ele>
        <time>2016-08-17T15:34:20Z</time>
      </trkpt>
      <trkpt lat="47.16056" lon="6.52238">
        <ele>910</ele>
        <time>2016-08-17T15:34:24Z</time>
      </trkpt>
      <trkpt lat="47.16061" lon="6.5225">
        <ele>910</ele>
        <time>2016-08-17T15:34:26Z</time>
      </trkpt>
      <trkpt lat="47.16073" lon="6.5227">
        <ele>918</ele>
        <time>2016-08-17T15:34:30Z</time>
      </trkpt>
      <trkpt lat="47.16078" lon="6.5229">
        <ele>921</ele>
        <time>2016-08-17T15:34:34Z</time>
      </trkpt>
      <trkpt lat="47.16084" lon="6.52301">
        <ele>904</ele>
        <time>2016-08-17T15:34:38Z</time>
      </trkpt>
      <trkpt lat="47.1609" lon="6.52318">
        <ele>909</ele>
        <time>2016-08-17T15:34:42Z</time>
      </trkpt>
      <trkpt lat="47.16095" lon="6.52333">
        <ele>912</ele>
        <time>2016-08-17T15:34:48Z</time>
      </trkpt>
      <trkpt lat="47.16104" lon="6.52354">
        <ele>917</ele>
        <time>2016-08-17T15:34:52Z</time>
      </trkpt>
      <trkpt lat="47.16108" lon="6.52368">
        <ele>917</ele>
        <time>2016-08-17T15:34:54Z</time>
      </trkpt>
      <trkpt lat="47.16117" lon="6.5238">
        <ele>917</ele>
        <time>2016-08-17T15:34:56Z</time>
      </trkpt>
      <trkpt lat="47.16134" lon="6.52396">
        <ele>916</ele>
        <time>2016-08-17T15:35:00Z</time>
      </trkpt>
      <trkpt lat="47.16148" lon="6.52409">
        <ele>916</ele>
        <time>2016-08-17T15:35:04Z</time>
      </trkpt>
      <trkpt lat="47.16159" lon="6.52417">
        <ele>918</ele>
        <time>2016-08-17T15:35:08Z</time>
      </trkpt>
      <trkpt lat="47.1617" lon="6.52418">
        <ele>915</ele>
        <time>2016-08-17T15:35:10Z</time>
      </trkpt>
      <trkpt lat="47.16183" lon="6.52409">
        <ele>906</ele>
        <time>2016-08-17T15:35:16Z</time>
      </trkpt>
      <trkpt lat="47.16193" lon="6.52401">
        <ele>903</ele>
        <time>2016-08-17T15:35:18Z</time>
      </trkpt>
      <trkpt lat="47.16208" lon="6.52409">
        <ele>902</ele>
        <time>2016-08-17T15:35:22Z</time>
      </trkpt>
      <trkpt lat="47.1622" lon="6.5241">
        <ele>901</ele>
        <time>2016-08-17T15:35:24Z</time>
      </trkpt>
      <trkpt lat="47.16233" lon="6.52412">
        <ele>901</ele>
        <time>2016-08-17T15:35:28Z</time>
      </trkpt>
      <trkpt lat="47.16244" lon="6.52428">
        <ele>908</ele>
        <time>2016-08-17T15:35:32Z</time>
      </trkpt>
      <trkpt lat="47.1625" lon="6.52438">
        <ele>905</ele>
        <time>2016-08-17T15:35:34Z</time>
      </trkpt>
      <trkpt lat="47.16254" lon="6.5245">
        <ele>905</ele>
        <time>2016-08-17T15:35:36Z</time>
      </trkpt>
      <trkpt lat="47.16259" lon="6.52463">
        <ele>906</ele>
        <time>2016-08-17T15:35:38Z</time>
      </trkpt>
      <trkpt lat="47.16264" lon="6.52474">
        <ele>907</ele>
        <time>2016-08-17T15:35:40Z</time>
      </trkpt>
      <trkpt lat="47.16272" lon="6.52487">
        <ele>907</ele>
        <time>2016-08-17T15:35:42Z</time>
      </trkpt>
      <trkpt lat="47.16277" lon="6.52499">
        <ele>907</ele>
        <time>2016-08-17T15:35:44Z</time>
      </trkpt>
      <trkpt lat="47.16284" lon="6.5251">
        <ele>910</ele>
        <time>2016-08-17T15:35:46Z</time>
      </trkpt>
      <trkpt lat="47.16292" lon="6.52521">
        <ele>910</ele>
        <time>2016-08-17T15:35:48Z</time>
      </trkpt>
      <trkpt lat="47.163" lon="6.52531">
        <ele>910</ele>
        <time>2016-08-17T15:35:50Z</time>
      </trkpt>
      <trkpt lat="47.16307" lon="6.5254">
        <ele>909</ele>
        <time>2016-08-17T15:35:52Z</time>
      </trkpt>
      <trkpt lat="47.16314" lon="6.5255">
        <ele>909</ele>
        <time>2016-08-17T15:35:54Z</time>
      </trkpt>
      <trkpt lat="47.16325" lon="6.52567">
        <ele>909</ele>
        <time>2016-08-17T15:35:58Z</time>
      </trkpt>
      <trkpt lat="47.16316" lon="6.52569">
        <ele>909</ele>
        <time>2016-08-17T15:36:06Z</time>
      </trkpt>
      <trkpt lat="47.16306" lon="6.52563">
        <ele>910</ele>
        <time>2016-08-17T15:36:10Z</time>
      </trkpt>
      <trkpt lat="47.16295" lon="6.52556">
        <ele>910</ele>
        <time>2016-08-17T15:36:14Z</time>
      </trkpt>
      <trkpt lat="47.16284" lon="6.52549">
        <ele>910</ele>
        <time>2016-08-17T15:36:18Z</time>
      </trkpt>
      <trkpt lat="47.16271" lon="6.5254">
        <ele>911</ele>
        <time>2016-08-17T15:36:22Z</time>
      </trkpt>
      <trkpt lat="47.16256" lon="6.52533">
        <ele>911</ele>
        <time>2016-08-17T15:36:26Z</time>
      </trkpt>
      <trkpt lat="47.16245" lon="6.52528">
        <ele>915</ele>
        <time>2016-08-17T15:36:30Z</time>
      </trkpt>
      <trkpt lat="47.16231" lon="6.52528">
        <ele>916</ele>
        <time>2016-08-17T15:36:34Z</time>
      </trkpt>
      <trkpt lat="47.16221" lon="6.52537">
        <ele>917</ele>
        <time>2016-08-17T15:36:38Z</time>
      </trkpt>
      <trkpt lat="47.16215" lon="6.52551">
        <ele>917</ele>
        <time>2016-08-17T15:36:42Z</time>
      </trkpt>
      <trkpt lat="47.16212" lon="6.52567">
        <ele>917</ele>
        <time>2016-08-17T15:36:46Z</time>
      </trkpt>
      <trkpt lat="47.16216" lon="6.52583">
        <ele>917</ele>
        <time>2016-08-17T15:36:50Z</time>
      </trkpt>
      <trkpt lat="47.16222" lon="6.52598">
        <ele>920</ele>
        <time>2016-08-17T15:36:54Z</time>
      </trkpt>
      <trkpt lat="47.16213" lon="6.52612">
        <ele>921</ele>
        <time>2016-08-17T15:37:00Z</time>
      </trkpt>
      <trkpt lat="47.16205" lon="6.52618">
        <ele>922</ele>
        <time>2016-08-17T15:37:04Z</time>
      </trkpt>
      <trkpt lat="47.16194" lon="6.52628">
        <ele>923</ele>
        <time>2016-08-17T15:37:10Z</time>
      </trkpt>
      <trkpt lat="47.16185" lon="6.52634">
        <ele>923</ele>
        <time>2016-08-17T15:37:14Z</time>
      </trkpt>
      <trkpt lat="47.16175" lon="6.52631">
        <ele>924</ele>
        <time>2016-08-17T15:37:18Z</time>
      </trkpt>
      <trkpt lat="47.16165" lon="6.52626">
        <ele>930</ele>
        <time>2016-08-17T15:37:22Z</time>
      </trkpt>
      <trkpt lat="47.16156" lon="6.52622">
        <ele>930</ele>
        <time>2016-08-17T15:37:26Z</time>
      </trkpt>
      <trkpt lat="47.16146" lon="6.52611">
        <ele>930</ele>
        <time>2016-08-17T15:37:32Z</time>
      </trkpt>
      <trkpt lat="47.16134" lon="6.526">
        <ele>931</ele>
        <time>2016-08-17T15:37:36Z</time>
      </trkpt>
      <trkpt lat="47.16124" lon="6.52586">
        <ele>931</ele>
        <time>2016-08-17T15:37:40Z</time>
      </trkpt>
      <trkpt lat="47.16115" lon="6.52574">
        <ele>930</ele>
        <time>2016-08-17T15:37:44Z</time>
      </trkpt>
      <trkpt lat="47.16105" lon="6.52559">
        <ele>930</ele>
        <time>2016-08-17T15:37:48Z</time>
      </trkpt>
      <trkpt lat="47.16094" lon="6.52549">
        <ele>930</ele>
        <time>2016-08-17T15:37:52Z</time>
      </trkpt>
      <trkpt lat="47.16085" lon="6.52544">
        <ele>930</ele>
        <time>2016-08-17T15:37:56Z</time>
      </trkpt>
      <trkpt lat="47.16073" lon="6.52541">
        <ele>940</ele>
        <time>2016-08-17T15:38:00Z</time>
      </trkpt>
      <trkpt lat="47.16058" lon="6.52541">
        <ele>942</ele>
        <time>2016-08-17T15:38:06Z</time>
      </trkpt>
      <trkpt lat="47.16046" lon="6.52541">
        <ele>943</ele>
        <time>2016-08-17T15:38:10Z</time>
      </trkpt>
      <trkpt lat="47.16036" lon="6.5254">
        <ele>944</ele>
        <time>2016-08-17T15:38:14Z</time>
      </trkpt>
      <trkpt lat="47.16026" lon="6.52534">
        <ele>945</ele>
        <time>2016-08-17T15:38:18Z</time>
      </trkpt>
      <trkpt lat="47.16017" lon="6.52526">
        <ele>946</ele>
        <time>2016-08-17T15:38:22Z</time>
      </trkpt>
      <trkpt lat="47.16009" lon="6.52517">
        <ele>948</ele>
        <time>2016-08-17T15:38:26Z</time>
      </trkpt>
      <trkpt lat="47.16002" lon="6.52508">
        <ele>950</ele>
        <time>2016-08-17T15:38:30Z</time>
      </trkpt>
      <trkpt lat="47.15994" lon="6.525">
        <ele>952</ele>
        <time>2016-08-17T15:38:34Z</time>
      </trkpt>
      <trkpt lat="47.15985" lon="6.52488">
        <ele>952</ele>
        <time>2016-08-17T15:38:40Z</time>
      </trkpt>
      <trkpt lat="47.15975" lon="6.52478">
        <ele>951</ele>
        <time>2016-08-17T15:38:46Z</time>
      </trkpt>
      <trkpt lat="47.15965" lon="6.52472">
        <ele>951</ele>
        <time>2016-08-17T15:38:52Z</time>
      </trkpt>
      <trkpt lat="47.15953" lon="6.52481">
        <ele>951</ele>
        <time>2016-08-17T15:38:58Z</time>
      </trkpt>
      <trkpt lat="47.15951" lon="6.52498">
        <ele>951</ele>
        <time>2016-08-17T15:39:04Z</time>
      </trkpt>
      <trkpt lat="47.15951" lon="6.52515">
        <ele>950</ele>
        <time>2016-08-17T15:39:10Z</time>
      </trkpt>
      <trkpt lat="47.15948" lon="6.52532">
        <ele>950</ele>
        <time>2016-08-17T15:39:16Z</time>
      </trkpt>
      <trkpt lat="47.15945" lon="6.52551">
        <ele>950</ele>
        <time>2016-08-17T15:39:22Z</time>
      </trkpt>
      <trkpt lat="47.15942" lon="6.52565">
        <ele>949</ele>
        <time>2016-08-17T15:39:26Z</time>
      </trkpt>
      <trkpt lat="47.15938" lon="6.52581">
        <ele>949</ele>
        <time>2016-08-17T15:39:30Z</time>
      </trkpt>
      <trkpt lat="47.15937" lon="6.52598">
        <ele>949</ele>
        <time>2016-08-17T15:39:32Z</time>
      </trkpt>
      <trkpt lat="47.15935" lon="6.52619">
        <ele>949</ele>
        <time>2016-08-17T15:39:34Z</time>
      </trkpt>
      <trkpt lat="47.15932" lon="6.52643">
        <ele>949</ele>
        <time>2016-08-17T15:39:36Z</time>
      </trkpt>
      <trkpt lat="47.15935" lon="6.52667">
        <ele>950</ele>
        <time>2016-08-17T15:39:38Z</time>
      </trkpt>
      <trkpt lat="47.15931" lon="6.52693">
        <ele>950</ele>
        <time>2016-08-17T15:39:40Z</time>
      </trkpt>
      <trkpt lat="47.15931" lon="6.52719">
        <ele>951</ele>
        <time>2016-08-17T15:39:42Z</time>
      </trkpt>
      <trkpt lat="47.15935" lon="6.52743">
        <ele>950</ele>
        <time>2016-08-17T15:39:44Z</time>
      </trkpt>
      <trkpt lat="47.15937" lon="6.52763">
        <ele>951</ele>
        <time>2016-08-17T15:39:46Z</time>
      </trkpt>
      <trkpt lat="47.15939" lon="6.52781">
        <ele>951</ele>
        <time>2016-08-17T15:39:48Z</time>
      </trkpt>
      <trkpt lat="47.15944" lon="6.52792">
        <ele>952</ele>
        <time>2016-08-17T15:39:50Z</time>
      </trkpt>
      <trkpt lat="47.15955" lon="6.528">
        <ele>953</ele>
        <time>2016-08-17T15:39:56Z</time>
      </trkpt>
      <trkpt lat="47.15964" lon="6.52807">
        <ele>953</ele>
        <time>2016-08-17T15:40:04Z</time>
      </trkpt>
      <trkpt lat="47.15974" lon="6.52809">
        <ele>954</ele>
        <time>2016-08-17T15:40:30Z</time>
      </trkpt>
      <trkpt lat="47.15974" lon="6.52809">
        <ele>954</ele>
        <time>2016-08-17T15:40:53Z</time>
      </trkpt>
      <trkpt lat="47.15954" lon="6.52802">
        <ele>953</ele>
        <time>2016-08-17T15:43:48Z</time>
      </trkpt>
      <trkpt lat="47.15939" lon="6.52809">
        <ele>951</ele>
        <time>2016-08-17T15:43:52Z</time>
      </trkpt>
      <trkpt lat="47.1593" lon="6.52824">
        <ele>949</ele>
        <time>2016-08-17T15:43:54Z</time>
      </trkpt>
      <trkpt lat="47.15922" lon="6.52843">
        <ele>945</ele>
        <time>2016-08-17T15:43:56Z</time>
      </trkpt>
      <trkpt lat="47.15915" lon="6.5286">
        <ele>944</ele>
        <time>2016-08-17T15:43:58Z</time>
      </trkpt>
      <trkpt lat="47.15908" lon="6.52879">
        <ele>943</ele>
        <time>2016-08-17T15:44:00Z</time>
      </trkpt>
      <trkpt lat="47.15896" lon="6.52894">
        <ele>942</ele>
        <time>2016-08-17T15:44:02Z</time>
      </trkpt>
      <trkpt lat="47.15884" lon="6.5291">
        <ele>942</ele>
        <time>2016-08-17T15:44:04Z</time>
      </trkpt>
      <trkpt lat="47.1587" lon="6.52931">
        <ele>936</ele>
        <time>2016-08-17T15:44:06Z</time>
      </trkpt>
      <trkpt lat="47.15855" lon="6.52954">
        <ele>934</ele>
        <time>2016-08-17T15:44:08Z</time>
      </trkpt>
      <trkpt lat="47.15838" lon="6.52978">
        <ele>930</ele>
        <time>2016-08-17T15:44:10Z</time>
      </trkpt>
      <trkpt lat="47.15818" lon="6.53004">
        <ele>923</ele>
        <time>2016-08-17T15:44:12Z</time>
      </trkpt>
      <trkpt lat="47.15799" lon="6.53027">
        <ele>922</ele>
        <time>2016-08-17T15:44:14Z</time>
      </trkpt>
      <trkpt lat="47.1578" lon="6.53049">
        <ele>921</ele>
        <time>2016-08-17T15:44:16Z</time>
      </trkpt>
      <trkpt lat="47.15764" lon="6.53075">
        <ele>919</ele>
        <time>2016-08-17T15:44:18Z</time>
      </trkpt>
      <trkpt lat="47.15748" lon="6.53099">
        <ele>914</ele>
        <time>2016-08-17T15:44:20Z</time>
      </trkpt>
      <trkpt lat="47.15737" lon="6.53125">
        <ele>912</ele>
        <time>2016-08-17T15:44:22Z</time>
      </trkpt>
      <trkpt lat="47.15726" lon="6.53149">
        <ele>911</ele>
        <time>2016-08-17T15:44:24Z</time>
      </trkpt>
      <trkpt lat="47.15716" lon="6.53169">
        <ele>907</ele>
        <time>2016-08-17T15:44:26Z</time>
      </trkpt>
      <trkpt lat="47.15703" lon="6.53172">
        <ele>906</ele>
        <time>2016-08-17T15:44:28Z</time>
      </trkpt>
      <trkpt lat="47.15689" lon="6.53163">
        <ele>908</ele>
        <time>2016-08-17T15:44:30Z</time>
      </trkpt>
      <trkpt lat="47.15677" lon="6.53148">
        <ele>908</ele>
        <time>2016-08-17T15:44:32Z</time>
      </trkpt>
      <trkpt lat="47.15664" lon="6.53138">
        <ele>904</ele>
        <time>2016-08-17T15:44:34Z</time>
      </trkpt>
      <trkpt lat="47.1565" lon="6.5314">
        <ele>904</ele>
        <time>2016-08-17T15:44:36Z</time>
      </trkpt>
      <trkpt lat="47.15637" lon="6.53142">
        <ele>903</ele>
        <time>2016-08-17T15:44:38Z</time>
      </trkpt>
      <trkpt lat="47.15628" lon="6.53138">
        <ele>903</ele>
        <time>2016-08-17T15:44:40Z</time>
      </trkpt>
      <trkpt lat="47.15621" lon="6.53113">
        <ele>903</ele>
        <time>2016-08-17T15:44:44Z</time>
      </trkpt>
      <trkpt lat="47.15617" lon="6.53101">
        <ele>904</ele>
        <time>2016-08-17T15:44:46Z</time>
      </trkpt>
      <trkpt lat="47.1561" lon="6.53089">
        <ele>904</ele>
        <time>2016-08-17T15:44:48Z</time>
      </trkpt>
      <trkpt lat="47.15604" lon="6.53077">
        <ele>909</ele>
        <time>2016-08-17T15:44:50Z</time>
      </trkpt>
      <trkpt lat="47.15596" lon="6.53065">
        <ele>910</ele>
        <time>2016-08-17T15:44:52Z</time>
      </trkpt>
      <trkpt lat="47.15589" lon="6.53054">
        <ele>911</ele>
        <time>2016-08-17T15:44:54Z</time>
      </trkpt>
      <trkpt lat="47.15577" lon="6.53044">
        <ele>910</ele>
        <time>2016-08-17T15:44:56Z</time>
      </trkpt>
      <trkpt lat="47.15565" lon="6.53037">
        <ele>911</ele>
        <time>2016-08-17T15:44:58Z</time>
      </trkpt>
      <trkpt lat="47.15555" lon="6.53031">
        <ele>911</ele>
        <time>2016-08-17T15:45:00Z</time>
      </trkpt>
      <trkpt lat="47.15545" lon="6.53025">
        <ele>911</ele>
        <time>2016-08-17T15:45:02Z</time>
      </trkpt>
      <trkpt lat="47.15535" lon="6.53021">
        <ele>912</ele>
        <time>2016-08-17T15:45:04Z</time>
      </trkpt>
      <trkpt lat="47.15524" lon="6.53017">
        <ele>912</ele>
        <time>2016-08-17T15:45:06Z</time>
      </trkpt>
      <trkpt lat="47.15509" lon="6.53014">
        <ele>914</ele>
        <time>2016-08-17T15:45:10Z</time>
      </trkpt>
      <trkpt lat="47.15498" lon="6.53006">
        <ele>914</ele>
        <time>2016-08-17T15:45:12Z</time>
      </trkpt>
      <trkpt lat="47.15488" lon="6.52999">
        <ele>919</ele>
        <time>2016-08-17T15:45:14Z</time>
      </trkpt>
      <trkpt lat="47.15479" lon="6.52995">
        <ele>918</ele>
        <time>2016-08-17T15:45:16Z</time>
      </trkpt>
      <trkpt lat="47.15467" lon="6.5299">
        <ele>917</ele>
        <time>2016-08-17T15:45:18Z</time>
      </trkpt>
      <trkpt lat="47.15453" lon="6.52976">
        <ele>916</ele>
        <time>2016-08-17T15:45:20Z</time>
      </trkpt>
      <trkpt lat="47.15437" lon="6.52964">
        <ele>916</ele>
        <time>2016-08-17T15:45:22Z</time>
      </trkpt>
      <trkpt lat="47.15424" lon="6.52952">
        <ele>917</ele>
        <time>2016-08-17T15:45:24Z</time>
      </trkpt>
      <trkpt lat="47.15413" lon="6.52938">
        <ele>909</ele>
        <time>2016-08-17T15:45:26Z</time>
      </trkpt>
      <trkpt lat="47.15401" lon="6.5293">
        <ele>909</ele>
        <time>2016-08-17T15:45:28Z</time>
      </trkpt>
      <trkpt lat="47.15389" lon="6.52921">
        <ele>907</ele>
        <time>2016-08-17T15:45:30Z</time>
      </trkpt>
      <trkpt lat="47.15379" lon="6.52908">
        <ele>915</ele>
        <time>2016-08-17T15:45:32Z</time>
      </trkpt>
      <trkpt lat="47.15363" lon="6.52895">
        <ele>913</ele>
        <time>2016-08-17T15:45:34Z</time>
      </trkpt>
      <trkpt lat="47.15346" lon="6.52886">
        <ele>912</ele>
        <time>2016-08-17T15:45:36Z</time>
      </trkpt>
      <trkpt lat="47.15332" lon="6.52874">
        <ele>903</ele>
        <time>2016-08-17T15:45:38Z</time>
      </trkpt>
      <trkpt lat="47.15318" lon="6.52865">
        <ele>904</ele>
        <time>2016-08-17T15:45:40Z</time>
      </trkpt>
      <trkpt lat="47.15303" lon="6.52854">
        <ele>903</ele>
        <time>2016-08-17T15:45:42Z</time>
      </trkpt>
      <trkpt lat="47.15288" lon="6.52842">
        <ele>902</ele>
        <time>2016-08-17T15:45:44Z</time>
      </trkpt>
      <trkpt lat="47.15274" lon="6.52827">
        <ele>909</ele>
        <time>2016-08-17T15:45:46Z</time>
      </trkpt>
      <trkpt lat="47.15263" lon="6.52808">
        <ele>909</ele>
        <time>2016-08-17T15:45:48Z</time>
      </trkpt>
      <trkpt lat="47.15254" lon="6.52791">
        <ele>911</ele>
        <time>2016-08-17T15:45:50Z</time>
      </trkpt>
      <trkpt lat="47.15247" lon="6.52773">
        <ele>904</ele>
        <time>2016-08-17T15:45:52Z</time>
      </trkpt>
      <trkpt lat="47.15237" lon="6.52757">
        <ele>906</ele>
        <time>2016-08-17T15:45:54Z</time>
      </trkpt>
      <trkpt lat="47.15228" lon="6.52742">
        <ele>911</ele>
        <time>2016-08-17T15:45:56Z</time>
      </trkpt>
      <trkpt lat="47.15219" lon="6.52731">
        <ele>911</ele>
        <time>2016-08-17T15:45:58Z</time>
      </trkpt>
      <trkpt lat="47.15212" lon="6.52715">
        <ele>911</ele>
        <time>2016-08-17T15:46:00Z</time>
      </trkpt>
      <trkpt lat="47.15204" lon="6.52703">
        <ele>911</ele>
        <time>2016-08-17T15:46:02Z</time>
      </trkpt>
      <trkpt lat="47.15196" lon="6.52688">
        <ele>912</ele>
        <time>2016-08-17T15:46:04Z</time>
      </trkpt>
      <trkpt lat="47.15192" lon="6.52673">
        <ele>912</ele>
        <time>2016-08-17T15:46:06Z</time>
      </trkpt>
      <trkpt lat="47.15188" lon="6.5266">
        <ele>916</ele>
        <time>2016-08-17T15:46:08Z</time>
      </trkpt>
      <trkpt lat="47.1518" lon="6.52646">
        <ele>916</ele>
        <time>2016-08-17T15:46:12Z</time>
      </trkpt>
      <trkpt lat="47.15169" lon="6.52641">
        <ele>916</ele>
        <time>2016-08-17T15:46:16Z</time>
      </trkpt>
      <trkpt lat="47.15161" lon="6.52623">
        <ele>911</ele>
        <time>2016-08-17T15:46:20Z</time>
      </trkpt>
      <trkpt lat="47.15151" lon="6.52614">
        <ele>911</ele>
        <time>2016-08-17T15:46:24Z</time>
      </trkpt>
      <trkpt lat="47.15144" lon="6.526">
        <ele>912</ele>
        <time>2016-08-17T15:46:28Z</time>
      </trkpt>
      <trkpt lat="47.15135" lon="6.52587">
        <ele>911</ele>
        <time>2016-08-17T15:46:32Z</time>
      </trkpt>
      <trkpt lat="47.15135" lon="6.52566">
        <ele>915</ele>
        <time>2016-08-17T15:46:40Z</time>
      </trkpt>
      <trkpt lat="47.15148" lon="6.52563">
        <ele>915</ele>
        <time>2016-08-17T15:46:44Z</time>
      </trkpt>
      <trkpt lat="47.15165" lon="6.52562">
        <ele>915</ele>
        <time>2016-08-17T15:46:48Z</time>
      </trkpt>
      <trkpt lat="47.15182" lon="6.52565">
        <ele>916</ele>
        <time>2016-08-17T15:46:52Z</time>
      </trkpt>
      <trkpt lat="47.15191" lon="6.52563">
        <ele>916</ele>
        <time>2016-08-17T15:46:54Z</time>
      </trkpt>
      <trkpt lat="47.15201" lon="6.52561">
        <ele>917</ele>
        <time>2016-08-17T15:46:56Z</time>
      </trkpt>
      <trkpt lat="47.15213" lon="6.52558">
        <ele>917</ele>
        <time>2016-08-17T15:46:58Z</time>
      </trkpt>
      <trkpt lat="47.15223" lon="6.52552">
        <ele>917</ele>
        <time>2016-08-17T15:47:00Z</time>
      </trkpt>
      <trkpt lat="47.15234" lon="6.52548">
        <ele>917</ele>
        <time>2016-08-17T15:47:02Z</time>
      </trkpt>
      <trkpt lat="47.15249" lon="6.5253">
        <ele>917</ele>
        <time>2016-08-17T15:47:06Z</time>
      </trkpt>
      <trkpt lat="47.15271" lon="6.52518">
        <ele>919</ele>
        <time>2016-08-17T15:47:10Z</time>
      </trkpt>
      <trkpt lat="47.15287" lon="6.5252">
        <ele>919</ele>
        <time>2016-08-17T15:47:12Z</time>
      </trkpt>
      <trkpt lat="47.15298" lon="6.52512">
        <ele>919</ele>
        <time>2016-08-17T15:47:14Z</time>
      </trkpt>
      <trkpt lat="47.15309" lon="6.52503">
        <ele>919</ele>
        <time>2016-08-17T15:47:16Z</time>
      </trkpt>
      <trkpt lat="47.15319" lon="6.52492">
        <ele>914</ele>
        <time>2016-08-17T15:47:18Z</time>
      </trkpt>
      <trkpt lat="47.15329" lon="6.52482">
        <ele>914</ele>
        <time>2016-08-17T15:47:20Z</time>
      </trkpt>
      <trkpt lat="47.15339" lon="6.52472">
        <ele>915</ele>
        <time>2016-08-17T15:47:22Z</time>
      </trkpt>
      <trkpt lat="47.15348" lon="6.52463">
        <ele>915</ele>
        <time>2016-08-17T15:47:24Z</time>
      </trkpt>
      <trkpt lat="47.15357" lon="6.52455">
        <ele>915</ele>
        <time>2016-08-17T15:47:26Z</time>
      </trkpt>
      <trkpt lat="47.15366" lon="6.52448">
        <ele>915</ele>
        <time>2016-08-17T15:47:28Z</time>
      </trkpt>
      <trkpt lat="47.15375" lon="6.5244">
        <ele>915</ele>
        <time>2016-08-17T15:47:30Z</time>
      </trkpt>
      <trkpt lat="47.15385" lon="6.52433">
        <ele>915</ele>
        <time>2016-08-17T15:47:32Z</time>
      </trkpt>
      <trkpt lat="47.15394" lon="6.52426">
        <ele>916</ele>
        <time>2016-08-17T15:47:34Z</time>
      </trkpt>
      <trkpt lat="47.15405" lon="6.52412">
        <ele>915</ele>
        <time>2016-08-17T15:47:38Z</time>
      </trkpt>
      <trkpt lat="47.15411" lon="6.52397">
        <ele>914</ele>
        <time>2016-08-17T15:49:38Z</time>
      </trkpt>
      <trkpt lat="47.15417" lon="6.52375">
        <ele>918</ele>
        <time>2016-08-17T15:49:42Z</time>
      </trkpt>
      <trkpt lat="47.15418" lon="6.52359">
        <ele>917</ele>
        <time>2016-08-17T15:49:44Z</time>
      </trkpt>
      <trkpt lat="47.15416" lon="6.52342">
        <ele>914</ele>
        <time>2016-08-17T15:49:46Z</time>
      </trkpt>
      <trkpt lat="47.15412" lon="6.52327">
        <ele>914</ele>
        <time>2016-08-17T15:49:48Z</time>
      </trkpt>
      <trkpt lat="47.15406" lon="6.5231">
        <ele>913</ele>
        <time>2016-08-17T15:49:50Z</time>
      </trkpt>
      <trkpt lat="47.15404" lon="6.52291">
        <ele>913</ele>
        <time>2016-08-17T15:49:52Z</time>
      </trkpt>
      <trkpt lat="47.15404" lon="6.52274">
        <ele>914</ele>
        <time>2016-08-17T15:49:54Z</time>
      </trkpt>
      <trkpt lat="47.15406" lon="6.52257">
        <ele>915</ele>
        <time>2016-08-17T15:49:56Z</time>
      </trkpt>
      <trkpt lat="47.1541" lon="6.52245">
        <ele>917</ele>
        <time>2016-08-17T15:49:58Z</time>
      </trkpt>
      <trkpt lat="47.15417" lon="6.52223">
        <ele>916</ele>
        <time>2016-08-17T15:50:02Z</time>
      </trkpt>
      <trkpt lat="47.15416" lon="6.52202">
        <ele>916</ele>
        <time>2016-08-17T15:50:06Z</time>
      </trkpt>
      <trkpt lat="47.15409" lon="6.5219">
        <ele>916</ele>
        <time>2016-08-17T15:50:10Z</time>
      </trkpt>
      <trkpt lat="47.15405" lon="6.52173">
        <ele>917</ele>
        <time>2016-08-17T15:50:14Z</time>
      </trkpt>
      <trkpt lat="47.15401" lon="6.52146">
        <ele>915</ele>
        <time>2016-08-17T15:50:18Z</time>
      </trkpt>
      <trkpt lat="47.15404" lon="6.52129">
        <ele>914</ele>
        <time>2016-08-17T15:50:22Z</time>
      </trkpt>
      <trkpt lat="47.15408" lon="6.52114">
        <ele>913</ele>
        <time>2016-08-17T15:50:24Z</time>
      </trkpt>
      <trkpt lat="47.15414" lon="6.52101">
        <ele>913</ele>
        <time>2016-08-17T15:50:26Z</time>
      </trkpt>
      <trkpt lat="47.15419" lon="6.52088">
        <ele>915</ele>
        <time>2016-08-17T15:50:28Z</time>
      </trkpt>
      <trkpt lat="47.15427" lon="6.52074">
        <ele>912</ele>
        <time>2016-08-17T15:50:30Z</time>
      </trkpt>
      <trkpt lat="47.15435" lon="6.52054">
        <ele>911</ele>
        <time>2016-08-17T15:50:32Z</time>
      </trkpt>
      <trkpt lat="47.15442" lon="6.52033">
        <ele>910</ele>
        <time>2016-08-17T15:50:34Z</time>
      </trkpt>
      <trkpt lat="47.15446" lon="6.52013">
        <ele>908</ele>
        <time>2016-08-17T15:50:36Z</time>
      </trkpt>
      <trkpt lat="47.15455" lon="6.51997">
        <ele>902</ele>
        <time>2016-08-17T15:50:40Z</time>
      </trkpt>
      <trkpt lat="47.15464" lon="6.51996">
        <ele>902</ele>
        <time>2016-08-17T15:50:42Z</time>
      </trkpt>
      <trkpt lat="47.1548" lon="6.52005">
        <ele>908</ele>
        <time>2016-08-17T15:50:46Z</time>
      </trkpt>
      <trkpt lat="47.15489" lon="6.52011">
        <ele>907</ele>
        <time>2016-08-17T15:50:48Z</time>
      </trkpt>
      <trkpt lat="47.15499" lon="6.5202">
        <ele>908</ele>
        <time>2016-08-17T15:50:50Z</time>
      </trkpt>
      <trkpt lat="47.15516" lon="6.52028">
        <ele>906</ele>
        <time>2016-08-17T15:50:54Z</time>
      </trkpt>
      <trkpt lat="47.15526" lon="6.52034">
        <ele>906</ele>
        <time>2016-08-17T15:50:56Z</time>
      </trkpt>
      <trkpt lat="47.15538" lon="6.52045">
        <ele>906</ele>
        <time>2016-08-17T15:51:00Z</time>
      </trkpt>
      <trkpt lat="47.15549" lon="6.52058">
        <ele>906</ele>
        <time>2016-08-17T15:51:02Z</time>
      </trkpt>
      <trkpt lat="47.15558" lon="6.52066">
        <ele>906</ele>
        <time>2016-08-17T15:51:04Z</time>
      </trkpt>
      <trkpt lat="47.15573" lon="6.52075">
        <ele>907</ele>
        <time>2016-08-17T15:51:08Z</time>
      </trkpt>
      <trkpt lat="47.15584" lon="6.52084">
        <ele>907</ele>
        <time>2016-08-17T15:51:10Z</time>
      </trkpt>
      <trkpt lat="47.15592" lon="6.52091">
        <ele>907</ele>
        <time>2016-08-17T15:51:12Z</time>
      </trkpt>
      <trkpt lat="47.15602" lon="6.52103">
        <ele>906</ele>
        <time>2016-08-17T15:51:14Z</time>
      </trkpt>
      <trkpt lat="47.15618" lon="6.52112">
        <ele>906</ele>
        <time>2016-08-17T15:51:16Z</time>
      </trkpt>
      <trkpt lat="47.15631" lon="6.52121">
        <ele>906</ele>
        <time>2016-08-17T15:51:18Z</time>
      </trkpt>
      <trkpt lat="47.15641" lon="6.52127">
        <ele>905</ele>
        <time>2016-08-17T15:51:20Z</time>
      </trkpt>
      <trkpt lat="47.15652" lon="6.52137">
        <ele>906</ele>
        <time>2016-08-17T15:51:22Z</time>
      </trkpt>
      <trkpt lat="47.15664" lon="6.52149">
        <ele>907</ele>
        <time>2016-08-17T15:51:24Z</time>
      </trkpt>
      <trkpt lat="47.15673" lon="6.52157">
        <ele>904</ele>
        <time>2016-08-17T15:51:26Z</time>
      </trkpt>
      <trkpt lat="47.15683" lon="6.52166">
        <ele>904</ele>
        <time>2016-08-17T15:51:28Z</time>
      </trkpt>
      <trkpt lat="47.15695" lon="6.52177">
        <ele>904</ele>
        <time>2016-08-17T15:51:30Z</time>
      </trkpt>
      <trkpt lat="47.15707" lon="6.52188">
        <ele>903</ele>
        <time>2016-08-17T15:51:32Z</time>
      </trkpt>
      <trkpt lat="47.15715" lon="6.52201">
        <ele>903</ele>
        <time>2016-08-17T15:51:34Z</time>
      </trkpt>
      <trkpt lat="47.15726" lon="6.52209">
        <ele>903</ele>
        <time>2016-08-17T15:51:36Z</time>
      </trkpt>
      <trkpt lat="47.15737" lon="6.52208">
        <ele>902</ele>
        <time>2016-08-17T15:51:38Z</time>
      </trkpt>
      <trkpt lat="47.15748" lon="6.52205">
        <ele>902</ele>
        <time>2016-08-17T15:51:40Z</time>
      </trkpt>
      <trkpt lat="47.15756" lon="6.52191">
        <ele>901</ele>
        <time>2016-08-17T15:51:44Z</time>
      </trkpt>
      <trkpt lat="47.1577" lon="6.52176">
        <ele>901</ele>
        <time>2016-08-17T15:51:48Z</time>
      </trkpt>
      <trkpt lat="47.15783" lon="6.52159">
        <ele>897</ele>
        <time>2016-08-17T15:51:52Z</time>
      </trkpt>
      <trkpt lat="47.15791" lon="6.52151">
        <ele>897</ele>
        <time>2016-08-17T15:51:54Z</time>
      </trkpt>
      <trkpt lat="47.1581" lon="6.52145">
        <ele>898</ele>
        <time>2016-08-17T15:51:58Z</time>
      </trkpt>
      <trkpt lat="47.1583" lon="6.52136">
        <ele>898</ele>
        <time>2016-08-17T15:52:02Z</time>
      </trkpt>
      <trkpt lat="47.15839" lon="6.5213">
        <ele>900</ele>
        <time>2016-08-17T15:52:04Z</time>
      </trkpt>
      <trkpt lat="47.15851" lon="6.52119">
        <ele>900</ele>
        <time>2016-08-17T15:52:06Z</time>
      </trkpt>
      <trkpt lat="47.15864" lon="6.52115">
        <ele>900</ele>
        <time>2016-08-17T15:52:08Z</time>
      </trkpt>
      <trkpt lat="47.15876" lon="6.52109">
        <ele>900</ele>
        <time>2016-08-17T15:52:10Z</time>
      </trkpt>
      <trkpt lat="47.15889" lon="6.521">
        <ele>900</ele>
        <time>2016-08-17T15:52:12Z</time>
      </trkpt>
      <trkpt lat="47.15901" lon="6.52091">
        <ele>899</ele>
        <time>2016-08-17T15:52:14Z</time>
      </trkpt>
      <trkpt lat="47.15915" lon="6.52085">
        <ele>898</ele>
        <time>2016-08-17T15:52:16Z</time>
      </trkpt>
      <trkpt lat="47.15927" lon="6.52083">
        <ele>899</ele>
        <time>2016-08-17T15:52:18Z</time>
      </trkpt>
      <trkpt lat="47.1594" lon="6.52081">
        <ele>900</ele>
        <time>2016-08-17T15:52:20Z</time>
      </trkpt>
      <trkpt lat="47.15952" lon="6.52076">
        <ele>901</ele>
        <time>2016-08-17T15:52:22Z</time>
      </trkpt>
      <trkpt lat="47.15961" lon="6.52065">
        <ele>901</ele>
        <time>2016-08-17T15:52:24Z</time>
      </trkpt>
      <trkpt lat="47.15957" lon="6.5205">
        <ele>901</ele>
        <time>2016-08-17T15:52:26Z</time>
      </trkpt>
      <trkpt lat="47.15953" lon="6.52035">
        <ele>901</ele>
        <time>2016-08-17T15:52:30Z</time>
      </trkpt>
      <trkpt lat="47.15944" lon="6.52021">
        <ele>901</ele>
        <time>2016-08-17T15:52:34Z</time>
      </trkpt>
      <trkpt lat="47.15939" lon="6.52005">
        <ele>901</ele>
        <time>2016-08-17T15:52:38Z</time>
      </trkpt>
      <trkpt lat="47.15933" lon="6.51992">
        <ele>901</ele>
        <time>2016-08-17T15:52:42Z</time>
      </trkpt>
      <trkpt lat="47.15922" lon="6.51967">
        <ele>901</ele>
        <time>2016-08-17T15:52:51Z</time>
      </trkpt>
      <trkpt lat="47.15915" lon="6.51959">
        <ele>901</ele>
        <time>2016-08-17T15:52:54Z</time>
      </trkpt>
      <trkpt lat="47.15912" lon="6.5194">
        <ele>902</ele>
        <time>2016-08-17T15:53:00Z</time>
      </trkpt>
      <trkpt lat="47.15918" lon="6.51926">
        <ele>903</ele>
        <time>2016-08-17T15:53:04Z</time>
      </trkpt>
      <trkpt lat="47.15922" lon="6.51905">
        <ele>901</ele>
        <time>2016-08-17T15:53:10Z</time>
      </trkpt>
      <trkpt lat="47.15916" lon="6.51892">
        <ele>904</ele>
        <time>2016-08-17T15:53:12Z</time>
      </trkpt>
      <trkpt lat="47.15913" lon="6.51869">
        <ele>903</ele>
        <time>2016-08-17T15:53:16Z</time>
      </trkpt>
      <trkpt lat="47.15911" lon="6.51856">
        <ele>903</ele>
        <time>2016-08-17T15:53:20Z</time>
      </trkpt>
      <trkpt lat="47.15907" lon="6.51838">
        <ele>902</ele>
        <time>2016-08-17T15:53:22Z</time>
      </trkpt>
      <trkpt lat="47.15902" lon="6.51824">
        <ele>902</ele>
        <time>2016-08-17T15:53:24Z</time>
      </trkpt>
      <trkpt lat="47.15898" lon="6.5181">
        <ele>903</ele>
        <time>2016-08-17T15:53:26Z</time>
      </trkpt>
      <trkpt lat="47.15888" lon="6.51788">
        <ele>903</ele>
        <time>2016-08-17T15:53:30Z</time>
      </trkpt>
      <trkpt lat="47.15882" lon="6.51776">
        <ele>903</ele>
        <time>2016-08-17T15:53:32Z</time>
      </trkpt>
      <trkpt lat="47.15876" lon="6.51766">
        <ele>903</ele>
        <time>2016-08-17T15:53:34Z</time>
      </trkpt>
      <trkpt lat="47.15867" lon="6.51753">
        <ele>904</ele>
        <time>2016-08-17T15:53:36Z</time>
      </trkpt>
      <trkpt lat="47.1586" lon="6.51741">
        <ele>901</ele>
        <time>2016-08-17T15:53:38Z</time>
      </trkpt>
      <trkpt lat="47.15855" lon="6.51727">
        <ele>901</ele>
        <time>2016-08-17T15:53:40Z</time>
      </trkpt>
      <trkpt lat="47.15851" lon="6.51714">
        <ele>900</ele>
        <time>2016-08-17T15:53:42Z</time>
      </trkpt>
      <trkpt lat="47.15846" lon="6.51703">
        <ele>900</ele>
        <time>2016-08-17T15:53:44Z</time>
      </trkpt>
      <trkpt lat="47.15838" lon="6.51681">
        <ele>900</ele>
        <time>2016-08-17T15:53:48Z</time>
      </trkpt>
      <trkpt lat="47.15834" lon="6.51657">
        <ele>899</ele>
        <time>2016-08-17T15:53:52Z</time>
      </trkpt>
      <trkpt lat="47.15831" lon="6.51641">
        <ele>904</ele>
        <time>2016-08-17T15:53:54Z</time>
      </trkpt>
      <trkpt lat="47.15826" lon="6.51625">
        <ele>905</ele>
        <time>2016-08-17T15:53:56Z</time>
      </trkpt>
      <trkpt lat="47.15819" lon="6.51614">
        <ele>905</ele>
        <time>2016-08-17T15:53:58Z</time>
      </trkpt>
      <trkpt lat="47.15807" lon="6.51596">
        <ele>905</ele>
        <time>2016-08-17T15:54:02Z</time>
      </trkpt>
      <trkpt lat="47.15801" lon="6.51581">
        <ele>903</ele>
        <time>2016-08-17T15:54:04Z</time>
      </trkpt>
      <trkpt lat="47.158" lon="6.51566">
        <ele>903</ele>
        <time>2016-08-17T15:54:08Z</time>
      </trkpt>
      <trkpt lat="47.15792" lon="6.5155">
        <ele>903</ele>
        <time>2016-08-17T15:54:14Z</time>
      </trkpt>
      <trkpt lat="47.1576" lon="6.51528">
        <ele>902</ele>
        <time>2016-08-17T15:54:18Z</time>
      </trkpt>
      <trkpt lat="47.15747" lon="6.51513">
        <ele>905</ele>
        <time>2016-08-17T15:54:20Z</time>
      </trkpt>
      <trkpt lat="47.15737" lon="6.51494">
        <ele>902</ele>
        <time>2016-08-17T15:54:24Z</time>
      </trkpt>
      <trkpt lat="47.15733" lon="6.51483">
        <ele>903</ele>
        <time>2016-08-17T15:54:28Z</time>
      </trkpt>
      <trkpt lat="47.1572" lon="6.51473">
        <ele>904</ele>
        <time>2016-08-17T15:54:30Z</time>
      </trkpt>
      <trkpt lat="47.15702" lon="6.51463">
        <ele>905</ele>
        <time>2016-08-17T15:54:34Z</time>
      </trkpt>
      <trkpt lat="47.15699" lon="6.5145">
        <ele>904</ele>
        <time>2016-08-17T15:54:40Z</time>
      </trkpt>
      <trkpt lat="47.15681" lon="6.51446">
        <ele>906</ele>
        <time>2016-08-17T15:54:44Z</time>
      </trkpt>
      <trkpt lat="47.15657" lon="6.51432">
        <ele>913</ele>
        <time>2016-08-17T15:54:48Z</time>
      </trkpt>
      <trkpt lat="47.15646" lon="6.51416">
        <ele>910</ele>
        <time>2016-08-17T15:54:52Z</time>
      </trkpt>
      <trkpt lat="47.15625" lon="6.51403">
        <ele>913</ele>
        <time>2016-08-17T15:54:58Z</time>
      </trkpt>
      <trkpt lat="47.15615" lon="6.51396">
        <ele>913</ele>
        <time>2016-08-17T15:55:02Z</time>
      </trkpt>
      <trkpt lat="47.156" lon="6.51391">
        <ele>914</ele>
        <time>2016-08-17T15:55:06Z</time>
      </trkpt>
      <trkpt lat="47.15588" lon="6.51388">
        <ele>915</ele>
        <time>2016-08-17T15:55:10Z</time>
      </trkpt>
      <trkpt lat="47.15575" lon="6.51389">
        <ele>921</ele>
        <time>2016-08-17T15:55:16Z</time>
      </trkpt>
      <trkpt lat="47.15565" lon="6.51389">
        <ele>921</ele>
        <time>2016-08-17T15:55:20Z</time>
      </trkpt>
      <trkpt lat="47.15556" lon="6.51383">
        <ele>921</ele>
        <time>2016-08-17T15:55:26Z</time>
      </trkpt>
      <trkpt lat="47.15543" lon="6.51378">
        <ele>922</ele>
        <time>2016-08-17T15:55:34Z</time>
      </trkpt>
      <trkpt lat="47.15534" lon="6.51379">
        <ele>922</ele>
        <time>2016-08-17T15:55:40Z</time>
      </trkpt>
      <trkpt lat="47.15525" lon="6.51384">
        <ele>923</ele>
        <time>2016-08-17T15:55:44Z</time>
      </trkpt>
      <trkpt lat="47.15515" lon="6.51379">
        <ele>923</ele>
        <time>2016-08-17T15:55:50Z</time>
      </trkpt>
      <trkpt lat="47.15505" lon="6.5138">
        <ele>924</ele>
        <time>2016-08-17T15:55:56Z</time>
      </trkpt>
      <trkpt lat="47.15495" lon="6.51381">
        <ele>929</ele>
        <time>2016-08-17T15:56:04Z</time>
      </trkpt>
      <trkpt lat="47.15485" lon="6.51379">
        <ele>930</ele>
        <time>2016-08-17T15:56:12Z</time>
      </trkpt>
      <trkpt lat="47.15474" lon="6.51377">
        <ele>930</ele>
        <time>2016-08-17T15:56:18Z</time>
      </trkpt>
      <trkpt lat="47.15464" lon="6.51382">
        <ele>931</ele>
        <time>2016-08-17T15:56:26Z</time>
      </trkpt>
      <trkpt lat="47.15453" lon="6.51384">
        <ele>931</ele>
        <time>2016-08-17T15:56:34Z</time>
      </trkpt>
      <trkpt lat="47.15444" lon="6.51386">
        <ele>932</ele>
        <time>2016-08-17T15:56:38Z</time>
      </trkpt>
      <trkpt lat="47.15432" lon="6.51384">
        <ele>933</ele>
        <time>2016-08-17T15:56:42Z</time>
      </trkpt>
      <trkpt lat="47.1542" lon="6.51382">
        <ele>933</ele>
        <time>2016-08-17T15:56:48Z</time>
      </trkpt>
      <trkpt lat="47.15411" lon="6.51381">
        <ele>939</ele>
        <time>2016-08-17T15:56:54Z</time>
      </trkpt>
      <trkpt lat="47.15401" lon="6.51382">
        <ele>940</ele>
        <time>2016-08-17T15:57:00Z</time>
      </trkpt>
      <trkpt lat="47.15391" lon="6.51379">
        <ele>940</ele>
        <time>2016-08-17T15:57:04Z</time>
      </trkpt>
      <trkpt lat="47.15377" lon="6.51381">
        <ele>941</ele>
        <time>2016-08-17T15:57:10Z</time>
      </trkpt>
      <trkpt lat="47.15366" lon="6.5138">
        <ele>942</ele>
        <time>2016-08-17T15:57:16Z</time>
      </trkpt>
      <trkpt lat="47.15356" lon="6.51386">
        <ele>943</ele>
        <time>2016-08-17T15:57:26Z</time>
      </trkpt>
      <trkpt lat="47.15342" lon="6.51386">
        <ele>943</ele>
        <time>2016-08-17T15:57:32Z</time>
      </trkpt>
      <trkpt lat="47.15329" lon="6.51384">
        <ele>949</ele>
        <time>2016-08-17T15:57:36Z</time>
      </trkpt>
      <trkpt lat="47.15319" lon="6.51384">
        <ele>950</ele>
        <time>2016-08-17T15:57:42Z</time>
      </trkpt>
      <trkpt lat="47.15308" lon="6.5138">
        <ele>950</ele>
        <time>2016-08-17T15:57:48Z</time>
      </trkpt>
      <trkpt lat="47.15295" lon="6.51375">
        <ele>950</ele>
        <time>2016-08-17T15:57:52Z</time>
      </trkpt>
      <trkpt lat="47.15282" lon="6.51377">
        <ele>951</ele>
        <time>2016-08-17T15:57:58Z</time>
      </trkpt>
      <trkpt lat="47.15268" lon="6.51372">
        <ele>952</ele>
        <time>2016-08-17T15:58:04Z</time>
      </trkpt>
      <trkpt lat="47.15256" lon="6.51369">
        <ele>952</ele>
        <time>2016-08-17T15:58:08Z</time>
      </trkpt>
      <trkpt lat="47.15245" lon="6.51368">
        <ele>958</ele>
        <time>2016-08-17T15:58:12Z</time>
      </trkpt>
      <trkpt lat="47.15236" lon="6.51373">
        <ele>959</ele>
        <time>2016-08-17T15:58:18Z</time>
      </trkpt>
      <trkpt lat="47.15227" lon="6.51378">
        <ele>959</ele>
        <time>2016-08-17T15:58:22Z</time>
      </trkpt>
      <trkpt lat="47.15218" lon="6.51381">
        <ele>960</ele>
        <time>2016-08-17T15:58:26Z</time>
      </trkpt>
      <trkpt lat="47.15205" lon="6.51383">
        <ele>961</ele>
        <time>2016-08-17T15:58:30Z</time>
      </trkpt>
      <trkpt lat="47.15194" lon="6.51388">
        <ele>962</ele>
        <time>2016-08-17T15:58:34Z</time>
      </trkpt>
      <trkpt lat="47.15181" lon="6.51397">
        <ele>964</ele>
        <time>2016-08-17T15:58:38Z</time>
      </trkpt>
      <trkpt lat="47.15174" lon="6.5141">
        <ele>967</ele>
        <time>2016-08-17T15:58:42Z</time>
      </trkpt>
      <trkpt lat="47.1517" lon="6.51424">
        <ele>968</ele>
        <time>2016-08-17T15:58:47Z</time>
      </trkpt>
      <trkpt lat="47.15163" lon="6.51439">
        <ele>970</ele>
        <time>2016-08-17T15:58:52Z</time>
      </trkpt>
      <trkpt lat="47.15159" lon="6.51455">
        <ele>970</ele>
        <time>2016-08-17T15:58:58Z</time>
      </trkpt>
      <trkpt lat="47.15155" lon="6.51471">
        <ele>970</ele>
        <time>2016-08-17T15:59:06Z</time>
      </trkpt>
      <trkpt lat="47.15152" lon="6.51485">
        <ele>971</ele>
        <time>2016-08-17T15:59:12Z</time>
      </trkpt>
      <trkpt lat="47.1515" lon="6.51498">
        <ele>971</ele>
        <time>2016-08-17T15:59:18Z</time>
      </trkpt>
      <trkpt lat="47.15148" lon="6.51515">
        <ele>972</ele>
        <time>2016-08-17T15:59:26Z</time>
      </trkpt>
      <trkpt lat="47.15155" lon="6.51525">
        <ele>972</ele>
        <time>2016-08-17T15:59:46Z</time>
      </trkpt>
      <trkpt lat="47.15162" lon="6.51533">
        <ele>972</ele>
        <time>2016-08-17T16:00:04Z</time>
      </trkpt>
      <trkpt lat="47.1517" lon="6.51544">
        <ele>963</ele>
        <time>2016-08-17T16:00:20Z</time>
      </trkpt>
      <trkpt lat="47.15179" lon="6.51551">
        <ele>962</ele>
        <time>2016-08-17T16:00:46Z</time>
      </trkpt>
      <trkpt lat="47.15186" lon="6.51561">
        <ele>962</ele>
        <time>2016-08-17T16:01:04Z</time>
      </trkpt>
      <trkpt lat="47.1518" lon="6.51549">
        <ele>962</ele>
        <time>2016-08-17T16:03:52Z</time>
      </trkpt>
      <trkpt lat="47.15172" lon="6.51537">
        <ele>963</ele>
        <time>2016-08-17T16:04:00Z</time>
      </trkpt>
      <trkpt lat="47.15161" lon="6.51529">
        <ele>972</ele>
        <time>2016-08-17T16:04:22Z</time>
      </trkpt>
      <trkpt lat="47.15159" lon="6.51509">
        <ele>972</ele>
        <time>2016-08-17T16:04:34Z</time>
      </trkpt>
      <trkpt lat="47.15164" lon="6.51481">
        <ele>971</ele>
        <time>2016-08-17T16:04:38Z</time>
      </trkpt>
      <trkpt lat="47.15168" lon="6.51461">
        <ele>965</ele>
        <time>2016-08-17T16:04:40Z</time>
      </trkpt>
      <trkpt lat="47.15174" lon="6.51443">
        <ele>965</ele>
        <time>2016-08-17T16:04:42Z</time>
      </trkpt>
      <trkpt lat="47.15178" lon="6.51426">
        <ele>966</ele>
        <time>2016-08-17T16:04:44Z</time>
      </trkpt>
      <trkpt lat="47.15182" lon="6.51413">
        <ele>965</ele>
        <time>2016-08-17T16:04:46Z</time>
      </trkpt>
      <trkpt lat="47.15178" lon="6.51399">
        <ele>964</ele>
        <time>2016-08-17T16:04:50Z</time>
      </trkpt>
      <trkpt lat="47.15174" lon="6.51385">
        <ele>963</ele>
        <time>2016-08-17T16:04:56Z</time>
      </trkpt>
      <trkpt lat="47.15176" lon="6.5137">
        <ele>962</ele>
        <time>2016-08-17T16:04:58Z</time>
      </trkpt>
      <trkpt lat="47.15165" lon="6.5135">
        <ele>964</ele>
        <time>2016-08-17T16:05:02Z</time>
      </trkpt>
      <trkpt lat="47.15169" lon="6.51336">
        <ele>962</ele>
        <time>2016-08-17T16:05:04Z</time>
      </trkpt>
      <trkpt lat="47.15168" lon="6.51307">
        <ele>958</ele>
        <time>2016-08-17T16:05:08Z</time>
      </trkpt>
      <trkpt lat="47.15164" lon="6.51288">
        <ele>961</ele>
        <time>2016-08-17T16:05:10Z</time>
      </trkpt>
      <trkpt lat="47.15171" lon="6.51269">
        <ele>957</ele>
        <time>2016-08-17T16:05:12Z</time>
      </trkpt>
      <trkpt lat="47.15172" lon="6.51247">
        <ele>956</ele>
        <time>2016-08-17T16:05:14Z</time>
      </trkpt>
      <trkpt lat="47.15172" lon="6.51228">
        <ele>953</ele>
        <time>2016-08-17T16:05:16Z</time>
      </trkpt>
      <trkpt lat="47.1518" lon="6.51207">
        <ele>950</ele>
        <time>2016-08-17T16:05:18Z</time>
      </trkpt>
      <trkpt lat="47.15184" lon="6.51183">
        <ele>949</ele>
        <time>2016-08-17T16:05:20Z</time>
      </trkpt>
      <trkpt lat="47.15183" lon="6.51167">
        <ele>949</ele>
        <time>2016-08-17T16:05:22Z</time>
      </trkpt>
      <trkpt lat="47.15184" lon="6.51147">
        <ele>943</ele>
        <time>2016-08-17T16:05:24Z</time>
      </trkpt>
      <trkpt lat="47.1519" lon="6.51131">
        <ele>942</ele>
        <time>2016-08-17T16:05:26Z</time>
      </trkpt>
      <trkpt lat="47.15197" lon="6.51111">
        <ele>940</ele>
        <time>2016-08-17T16:05:28Z</time>
      </trkpt>
      <trkpt lat="47.15201" lon="6.51091">
        <ele>939</ele>
        <time>2016-08-17T16:05:30Z</time>
      </trkpt>
      <trkpt lat="47.15204" lon="6.51071">
        <ele>933</ele>
        <time>2016-08-17T16:05:32Z</time>
      </trkpt>
      <trkpt lat="47.15208" lon="6.51049">
        <ele>932</ele>
        <time>2016-08-17T16:05:34Z</time>
      </trkpt>
      <trkpt lat="47.1521" lon="6.5103">
        <ele>930</ele>
        <time>2016-08-17T16:05:36Z</time>
      </trkpt>
      <trkpt lat="47.15213" lon="6.5101">
        <ele>929</ele>
        <time>2016-08-17T16:05:38Z</time>
      </trkpt>
      <trkpt lat="47.15215" lon="6.50991">
        <ele>923</ele>
        <time>2016-08-17T16:05:40Z</time>
      </trkpt>
      <trkpt lat="47.15217" lon="6.50971">
        <ele>922</ele>
        <time>2016-08-17T16:05:42Z</time>
      </trkpt>
      <trkpt lat="47.15216" lon="6.50954">
        <ele>921</ele>
        <time>2016-08-17T16:05:44Z</time>
      </trkpt>
      <trkpt lat="47.15219" lon="6.50935">
        <ele>920</ele>
        <time>2016-08-17T16:05:46Z</time>
      </trkpt>
      <trkpt lat="47.15219" lon="6.50917">
        <ele>920</ele>
        <time>2016-08-17T16:05:48Z</time>
      </trkpt>
      <trkpt lat="47.15217" lon="6.50902">
        <ele>914</ele>
        <time>2016-08-17T16:05:50Z</time>
      </trkpt>
      <trkpt lat="47.15228" lon="6.50881">
        <ele>913</ele>
        <time>2016-08-17T16:05:54Z</time>
      </trkpt>
      <trkpt lat="47.15234" lon="6.50872">
        <ele>912</ele>
        <time>2016-08-17T16:05:56Z</time>
      </trkpt>
      <trkpt lat="47.15241" lon="6.50861">
        <ele>911</ele>
        <time>2016-08-17T16:05:58Z</time>
      </trkpt>
      <trkpt lat="47.15251" lon="6.50849">
        <ele>904</ele>
        <time>2016-08-17T16:06:00Z</time>
      </trkpt>
      <trkpt lat="47.15255" lon="6.50836">
        <ele>904</ele>
        <time>2016-08-17T16:06:02Z</time>
      </trkpt>
      <trkpt lat="47.15267" lon="6.50826">
        <ele>897</ele>
        <time>2016-08-17T16:06:06Z</time>
      </trkpt>
      <trkpt lat="47.15267" lon="6.50807">
        <ele>894</ele>
        <time>2016-08-17T16:06:10Z</time>
      </trkpt>
      <trkpt lat="47.15262" lon="6.50779">
        <ele>891</ele>
        <time>2016-08-17T16:06:14Z</time>
      </trkpt>
      <trkpt lat="47.15258" lon="6.50765">
        <ele>891</ele>
        <time>2016-08-17T16:06:16Z</time>
      </trkpt>
      <trkpt lat="47.15251" lon="6.5075">
        <ele>890</ele>
        <time>2016-08-17T16:06:18Z</time>
      </trkpt>
      <trkpt lat="47.15242" lon="6.50735">
        <ele>892</ele>
        <time>2016-08-17T16:06:20Z</time>
      </trkpt>
      <trkpt lat="47.15246" lon="6.50713">
        <ele>892</ele>
        <time>2016-08-17T16:06:24Z</time>
      </trkpt>
      <trkpt lat="47.15258" lon="6.50705">
        <ele>884</ele>
        <time>2016-08-17T16:06:26Z</time>
      </trkpt>
      <trkpt lat="47.15264" lon="6.50652">
        <ele>881</ele>
        <time>2016-08-17T16:06:32Z</time>
      </trkpt>
      <trkpt lat="47.15272" lon="6.50632">
        <ele>879</ele>
        <time>2016-08-17T16:06:34Z</time>
      </trkpt>
      <trkpt lat="47.1528" lon="6.50614">
        <ele>877</ele>
        <time>2016-08-17T16:06:36Z</time>
      </trkpt>
      <trkpt lat="47.15282" lon="6.506">
        <ele>877</ele>
        <time>2016-08-17T16:06:38Z</time>
      </trkpt>
      <trkpt lat="47.15275" lon="6.50583">
        <ele>872</ele>
        <time>2016-08-17T16:06:40Z</time>
      </trkpt>
      <trkpt lat="47.15265" lon="6.50565">
        <ele>872</ele>
        <time>2016-08-17T16:06:42Z</time>
      </trkpt>
      <trkpt lat="47.15247" lon="6.50545">
        <ele>875</ele>
        <time>2016-08-17T16:06:44Z</time>
      </trkpt>
      <trkpt lat="47.15236" lon="6.5052">
        <ele>873</ele>
        <time>2016-08-17T16:06:46Z</time>
      </trkpt>
      <trkpt lat="47.15209" lon="6.50464">
        <ele>864</ele>
        <time>2016-08-17T16:06:50Z</time>
      </trkpt>
      <trkpt lat="47.15191" lon="6.50441">
        <ele>863</ele>
        <time>2016-08-17T16:06:52Z</time>
      </trkpt>
      <trkpt lat="47.15176" lon="6.50418">
        <ele>861</ele>
        <time>2016-08-17T16:06:54Z</time>
      </trkpt>
      <trkpt lat="47.15165" lon="6.50398">
        <ele>856</ele>
        <time>2016-08-17T16:06:56Z</time>
      </trkpt>
      <trkpt lat="47.15156" lon="6.50379">
        <ele>853</ele>
        <time>2016-08-17T16:06:58Z</time>
      </trkpt>
      <trkpt lat="47.15144" lon="6.50366">
        <ele>852</ele>
        <time>2016-08-17T16:07:00Z</time>
      </trkpt>
      <trkpt lat="47.15136" lon="6.50353">
        <ele>851</ele>
        <time>2016-08-17T16:07:04Z</time>
      </trkpt>
      <trkpt lat="47.15133" lon="6.5033">
        <ele>839</ele>
        <time>2016-08-17T16:07:46Z</time>
      </trkpt>
      <trkpt lat="47.15138" lon="6.50316">
        <ele>839</ele>
        <time>2016-08-17T16:07:48Z</time>
      </trkpt>
      <trkpt lat="47.15147" lon="6.50303">
        <ele>837</ele>
        <time>2016-08-17T16:07:50Z</time>
      </trkpt>
      <trkpt lat="47.15154" lon="6.50287">
        <ele>836</ele>
        <time>2016-08-17T16:07:52Z</time>
      </trkpt>
      <trkpt lat="47.15156" lon="6.50269">
        <ele>833</ele>
        <time>2016-08-17T16:07:54Z</time>
      </trkpt>
      <trkpt lat="47.1515" lon="6.50248">
        <ele>826</ele>
        <time>2016-08-17T16:07:56Z</time>
      </trkpt>
      <trkpt lat="47.15138" lon="6.50231">
        <ele>825</ele>
        <time>2016-08-17T16:07:58Z</time>
      </trkpt>
      <trkpt lat="47.15125" lon="6.50214">
        <ele>824</ele>
        <time>2016-08-17T16:08:00Z</time>
      </trkpt>
      <trkpt lat="47.1511" lon="6.50196">
        <ele>823</ele>
        <time>2016-08-17T16:08:02Z</time>
      </trkpt>
      <trkpt lat="47.15097" lon="6.50176">
        <ele>820</ele>
        <time>2016-08-17T16:08:04Z</time>
      </trkpt>
      <trkpt lat="47.15082" lon="6.50156">
        <ele>815</ele>
        <time>2016-08-17T16:08:06Z</time>
      </trkpt>
      <trkpt lat="47.15066" lon="6.50131">
        <ele>813</ele>
        <time>2016-08-17T16:08:08Z</time>
      </trkpt>
      <trkpt lat="47.15051" lon="6.50107">
        <ele>811</ele>
        <time>2016-08-17T16:08:10Z</time>
      </trkpt>
      <trkpt lat="47.15037" lon="6.50083">
        <ele>802</ele>
        <time>2016-08-17T16:08:12Z</time>
      </trkpt>
      <trkpt lat="47.15021" lon="6.50057">
        <ele>801</ele>
        <time>2016-08-17T16:08:14Z</time>
      </trkpt>
      <trkpt lat="47.15009" lon="6.50034">
        <ele>799</ele>
        <time>2016-08-17T16:08:16Z</time>
      </trkpt>
      <trkpt lat="47.14997" lon="6.50019">
        <ele>796</ele>
        <time>2016-08-17T16:08:18Z</time>
      </trkpt>
      <trkpt lat="47.14987" lon="6.50004">
        <ele>795</ele>
        <time>2016-08-17T16:08:20Z</time>
      </trkpt>
      <trkpt lat="47.1498" lon="6.49991">
        <ele>789</ele>
        <time>2016-08-17T16:08:22Z</time>
      </trkpt>
      <trkpt lat="47.14974" lon="6.49979">
        <ele>788</ele>
        <time>2016-08-17T16:08:24Z</time>
      </trkpt>
      <trkpt lat="47.14964" lon="6.49964">
        <ele>787</ele>
        <time>2016-08-17T16:08:28Z</time>
      </trkpt>
      <trkpt lat="47.14955" lon="6.49952">
        <ele>786</ele>
        <time>2016-08-17T16:08:34Z</time>
      </trkpt>
      <trkpt lat="47.14946" lon="6.49944">
        <ele>785</ele>
        <time>2016-08-17T16:08:38Z</time>
      </trkpt>
      <trkpt lat="47.14935" lon="6.49941">
        <ele>785</ele>
        <time>2016-08-17T16:08:44Z</time>
      </trkpt>
      <trkpt lat="47.14933" lon="6.49923">
        <ele>783</ele>
        <time>2016-08-17T16:09:20Z</time>
      </trkpt>
      <trkpt lat="47.14936" lon="6.4991">
        <ele>779</ele>
        <time>2016-08-17T16:09:22Z</time>
      </trkpt>
      <trkpt lat="47.14938" lon="6.49896">
        <ele>779</ele>
        <time>2016-08-17T16:09:24Z</time>
      </trkpt>
      <trkpt lat="47.1494" lon="6.49883">
        <ele>779</ele>
        <time>2016-08-17T16:09:26Z</time>
      </trkpt>
      <trkpt lat="47.14941" lon="6.49861">
        <ele>778</ele>
        <time>2016-08-17T16:09:30Z</time>
      </trkpt>
      <trkpt lat="47.14938" lon="6.49844">
        <ele>777</ele>
        <time>2016-08-17T16:09:32Z</time>
      </trkpt>
      <trkpt lat="47.14934" lon="6.49827">
        <ele>774</ele>
        <time>2016-08-17T16:09:34Z</time>
      </trkpt>
      <trkpt lat="47.14929" lon="6.49807">
        <ele>773</ele>
        <time>2016-08-17T16:09:36Z</time>
      </trkpt>
      <trkpt lat="47.14925" lon="6.49786">
        <ele>772</ele>
        <time>2016-08-17T16:09:38Z</time>
      </trkpt>
      <trkpt lat="47.14925" lon="6.49761">
        <ele>771</ele>
        <time>2016-08-17T16:09:40Z</time>
      </trkpt>
      <trkpt lat="47.14927" lon="6.49734">
        <ele>769</ele>
        <time>2016-08-17T16:09:42Z</time>
      </trkpt>
      <trkpt lat="47.1493" lon="6.49708">
        <ele>768</ele>
        <time>2016-08-17T16:09:44Z</time>
      </trkpt>
      <trkpt lat="47.14931" lon="6.49682">
        <ele>767</ele>
        <time>2016-08-17T16:09:46Z</time>
      </trkpt>
      <trkpt lat="47.14932" lon="6.49653">
        <ele>765</ele>
        <time>2016-08-17T16:09:48Z</time>
      </trkpt>
      <trkpt lat="47.14934" lon="6.49626">
        <ele>764</ele>
        <time>2016-08-17T16:09:50Z</time>
      </trkpt>
      <trkpt lat="47.14933" lon="6.49598">
        <ele>763</ele>
        <time>2016-08-17T16:09:52Z</time>
      </trkpt>
      <trkpt lat="47.14934" lon="6.49569">
        <ele>760</ele>
        <time>2016-08-17T16:09:54Z</time>
      </trkpt>
      <trkpt lat="47.14936" lon="6.49544">
        <ele>760</ele>
        <time>2016-08-17T16:09:56Z</time>
      </trkpt>
      <trkpt lat="47.14938" lon="6.49524">
        <ele>759</ele>
        <time>2016-08-17T16:09:58Z</time>
      </trkpt>
      <trkpt lat="47.14943" lon="6.49512">
        <ele>759</ele>
        <time>2016-08-17T16:10:00Z</time>
      </trkpt>
      <trkpt lat="47.14954" lon="6.49505">
        <ele>759</ele>
        <time>2016-08-17T16:10:02Z</time>
      </trkpt>
      <trkpt lat="47.14964" lon="6.49503">
        <ele>759</ele>
        <time>2016-08-17T16:10:04Z</time>
      </trkpt>
      <trkpt lat="47.14976" lon="6.49497">
        <ele>757</ele>
        <time>2016-08-17T16:10:06Z</time>
      </trkpt>
      <trkpt lat="47.14988" lon="6.49489">
        <ele>757</ele>
        <time>2016-08-17T16:10:08Z</time>
      </trkpt>
      <trkpt lat="47.14998" lon="6.49487">
        <ele>757</ele>
        <time>2016-08-17T16:10:10Z</time>
      </trkpt>
      <trkpt lat="47.1501" lon="6.49483">
        <ele>756</ele>
        <time>2016-08-17T16:10:12Z</time>
      </trkpt>
      <trkpt lat="47.15029" lon="6.49484">
        <ele>755</ele>
        <time>2016-08-17T16:10:14Z</time>
      </trkpt>
      <trkpt lat="47.15045" lon="6.49486">
        <ele>754</ele>
        <time>2016-08-17T16:10:16Z</time>
      </trkpt>
      <trkpt lat="47.15053" lon="6.49496">
        <ele>754</ele>
        <time>2016-08-17T16:10:18Z</time>
      </trkpt>
      <trkpt lat="47.15062" lon="6.49508">
        <ele>756</ele>
        <time>2016-08-17T16:10:20Z</time>
      </trkpt>
      <trkpt lat="47.15073" lon="6.49519">
        <ele>756</ele>
        <time>2016-08-17T16:10:22Z</time>
      </trkpt>
      <trkpt lat="47.15086" lon="6.49532">
        <ele>754</ele>
        <time>2016-08-17T16:10:24Z</time>
      </trkpt>
      <trkpt lat="47.15096" lon="6.49545">
        <ele>754</ele>
        <time>2016-08-17T16:10:26Z</time>
      </trkpt>
      <trkpt lat="47.15106" lon="6.49561">
        <ele>754</ele>
        <time>2016-08-17T16:10:28Z</time>
      </trkpt>
      <trkpt lat="47.15117" lon="6.49576">
        <ele>754</ele>
        <time>2016-08-17T16:10:30Z</time>
      </trkpt>
      <trkpt lat="47.15122" lon="6.49591">
        <ele>758</ele>
        <time>2016-08-17T16:10:32Z</time>
      </trkpt>
      <trkpt lat="47.1513" lon="6.49605">
        <ele>758</ele>
        <time>2016-08-17T16:10:34Z</time>
      </trkpt>
      <trkpt lat="47.15136" lon="6.49619">
        <ele>758</ele>
        <time>2016-08-17T16:10:36Z</time>
      </trkpt>
      <trkpt lat="47.15141" lon="6.49633">
        <ele>759</ele>
        <time>2016-08-17T16:10:38Z</time>
      </trkpt>
      <trkpt lat="47.15148" lon="6.49646">
        <ele>759</ele>
        <time>2016-08-17T16:10:40Z</time>
      </trkpt>
      <trkpt lat="47.15155" lon="6.49657">
        <ele>760</ele>
        <time>2016-08-17T16:10:42Z</time>
      </trkpt>
      <trkpt lat="47.15162" lon="6.49668">
        <ele>761</ele>
        <time>2016-08-17T16:10:44Z</time>
      </trkpt>
      <trkpt lat="47.15169" lon="6.49677">
        <ele>761</ele>
        <time>2016-08-17T16:10:46Z</time>
      </trkpt>
      <trkpt lat="47.15177" lon="6.49685">
        <ele>761</ele>
        <time>2016-08-17T16:10:48Z</time>
      </trkpt>
      <trkpt lat="47.15186" lon="6.4969">
        <ele>761</ele>
        <time>2016-08-17T16:10:50Z</time>
      </trkpt>
      <trkpt lat="47.15197" lon="6.49695">
        <ele>761</ele>
        <time>2016-08-17T16:10:52Z</time>
      </trkpt>
      <trkpt lat="47.15207" lon="6.497">
        <ele>761</ele>
        <time>2016-08-17T16:10:54Z</time>
      </trkpt>
      <trkpt lat="47.15215" lon="6.49705">
        <ele>761</ele>
        <time>2016-08-17T16:10:56Z</time>
      </trkpt>
      <trkpt lat="47.15229" lon="6.4971">
        <ele>761</ele>
        <time>2016-08-17T16:11:00Z</time>
      </trkpt>
      <trkpt lat="47.15246" lon="6.49705">
        <ele>760</ele>
        <time>2016-08-17T16:11:04Z</time>
      </trkpt>
      <trkpt lat="47.15255" lon="6.49692">
        <ele>757</ele>
        <time>2016-08-17T16:11:06Z</time>
      </trkpt>
      <trkpt lat="47.15259" lon="6.49678">
        <ele>757</ele>
        <time>2016-08-17T16:11:08Z</time>
      </trkpt>
      <trkpt lat="47.15262" lon="6.49664">
        <ele>755</ele>
        <time>2016-08-17T16:11:10Z</time>
      </trkpt>
      <trkpt lat="47.15265" lon="6.4965">
        <ele>754</ele>
        <time>2016-08-17T16:11:12Z</time>
      </trkpt>
      <trkpt lat="47.15274" lon="6.4964">
        <ele>752</ele>
        <time>2016-08-17T16:11:14Z</time>
      </trkpt>
      <trkpt lat="47.15283" lon="6.49632">
        <ele>752</ele>
        <time>2016-08-17T16:11:16Z</time>
      </trkpt>
      <trkpt lat="47.1529" lon="6.49623">
        <ele>751</ele>
        <time>2016-08-17T16:11:18Z</time>
      </trkpt>
      <trkpt lat="47.15302" lon="6.49618">
        <ele>750</ele>
        <time>2016-08-17T16:11:22Z</time>
      </trkpt>
      <trkpt lat="47.15317" lon="6.4961">
        <ele>749</ele>
        <time>2016-08-17T16:11:26Z</time>
      </trkpt>
      <trkpt lat="47.15325" lon="6.49598">
        <ele>748</ele>
        <time>2016-08-17T16:11:28Z</time>
      </trkpt>
      <trkpt lat="47.15332" lon="6.49586">
        <ele>746</ele>
        <time>2016-08-17T16:11:30Z</time>
      </trkpt>
      <trkpt lat="47.15343" lon="6.4957">
        <ele>744</ele>
        <time>2016-08-17T16:11:32Z</time>
      </trkpt>
      <trkpt lat="47.15364" lon="6.49561">
        <ele>743</ele>
        <time>2016-08-17T16:11:34Z</time>
      </trkpt>
      <trkpt lat="47.15379" lon="6.49544">
        <ele>742</ele>
        <time>2016-08-17T16:11:36Z</time>
      </trkpt>
      <trkpt lat="47.1539" lon="6.49523">
        <ele>741</ele>
        <time>2016-08-17T16:11:38Z</time>
      </trkpt>
      <trkpt lat="47.15401" lon="6.49502">
        <ele>740</ele>
        <time>2016-08-17T16:11:40Z</time>
      </trkpt>
      <trkpt lat="47.15414" lon="6.49479">
        <ele>739</ele>
        <time>2016-08-17T16:11:42Z</time>
      </trkpt>
      <trkpt lat="47.15445" lon="6.49415">
        <ele>735</ele>
        <time>2016-08-17T16:11:48Z</time>
      </trkpt>
      <trkpt lat="47.15455" lon="6.49397">
        <ele>734</ele>
        <time>2016-08-17T16:11:50Z</time>
      </trkpt>
      <trkpt lat="47.15467" lon="6.49383">
        <ele>734</ele>
        <time>2016-08-17T16:11:52Z</time>
      </trkpt>
      <trkpt lat="47.15482" lon="6.49367">
        <ele>734</ele>
        <time>2016-08-17T16:11:54Z</time>
      </trkpt>
      <trkpt lat="47.15497" lon="6.49354">
        <ele>733</ele>
        <time>2016-08-17T16:11:56Z</time>
      </trkpt>
      <trkpt lat="47.1551" lon="6.49338">
        <ele>731</ele>
        <time>2016-08-17T16:11:58Z</time>
      </trkpt>
      <trkpt lat="47.15528" lon="6.49317">
        <ele>730</ele>
        <time>2016-08-17T16:12:00Z</time>
      </trkpt>
      <trkpt lat="47.15542" lon="6.493">
        <ele>729</ele>
        <time>2016-08-17T16:12:02Z</time>
      </trkpt>
      <trkpt lat="47.15554" lon="6.49278">
        <ele>729</ele>
        <time>2016-08-17T16:12:04Z</time>
      </trkpt>
      <trkpt lat="47.15564" lon="6.49256">
        <ele>728</ele>
        <time>2016-08-17T16:12:06Z</time>
      </trkpt>
      <trkpt lat="47.15572" lon="6.4923">
        <ele>727</ele>
        <time>2016-08-17T16:12:08Z</time>
      </trkpt>
      <trkpt lat="47.15581" lon="6.49203">
        <ele>726</ele>
        <time>2016-08-17T16:12:10Z</time>
      </trkpt>
      <trkpt lat="47.1559" lon="6.49176">
        <ele>723</ele>
        <time>2016-08-17T16:12:12Z</time>
      </trkpt>
      <trkpt lat="47.15597" lon="6.49147">
        <ele>721</ele>
        <time>2016-08-17T16:12:14Z</time>
      </trkpt>
      <trkpt lat="47.15605" lon="6.49118">
        <ele>720</ele>
        <time>2016-08-17T16:12:16Z</time>
      </trkpt>
      <trkpt lat="47.15615" lon="6.49091">
        <ele>720</ele>
        <time>2016-08-17T16:12:18Z</time>
      </trkpt>
      <trkpt lat="47.15623" lon="6.49066">
        <ele>718</ele>
        <time>2016-08-17T16:12:20Z</time>
      </trkpt>
      <trkpt lat="47.15633" lon="6.4904">
        <ele>717</ele>
        <time>2016-08-17T16:12:22Z</time>
      </trkpt>
      <trkpt lat="47.15642" lon="6.49015">
        <ele>717</ele>
        <time>2016-08-17T16:12:24Z</time>
      </trkpt>
      <trkpt lat="47.15653" lon="6.48993">
        <ele>715</ele>
        <time>2016-08-17T16:12:26Z</time>
      </trkpt>
      <trkpt lat="47.15662" lon="6.48968">
        <ele>715</ele>
        <time>2016-08-17T16:12:28Z</time>
      </trkpt>
      <trkpt lat="47.15674" lon="6.48944">
        <ele>712</ele>
        <time>2016-08-17T16:12:30Z</time>
      </trkpt>
      <trkpt lat="47.15684" lon="6.48919">
        <ele>711</ele>
        <time>2016-08-17T16:12:32Z</time>
      </trkpt>
      <trkpt lat="47.1569" lon="6.48893">
        <ele>708</ele>
        <time>2016-08-17T16:12:34Z</time>
      </trkpt>
      <trkpt lat="47.15696" lon="6.48863">
        <ele>707</ele>
        <time>2016-08-17T16:12:36Z</time>
      </trkpt>
      <trkpt lat="47.15696" lon="6.4883">
        <ele>703</ele>
        <time>2016-08-17T16:12:38Z</time>
      </trkpt>
      <trkpt lat="47.157" lon="6.48799">
        <ele>702</ele>
        <time>2016-08-17T16:12:40Z</time>
      </trkpt>
      <trkpt lat="47.15702" lon="6.48767">
        <ele>700</ele>
        <time>2016-08-17T16:12:42Z</time>
      </trkpt>
      <trkpt lat="47.15703" lon="6.48733">
        <ele>696</ele>
        <time>2016-08-17T16:12:44Z</time>
      </trkpt>
      <trkpt lat="47.15701" lon="6.48699">
        <ele>695</ele>
        <time>2016-08-17T16:12:46Z</time>
      </trkpt>
      <trkpt lat="47.15695" lon="6.48666">
        <ele>692</ele>
        <time>2016-08-17T16:12:48Z</time>
      </trkpt>
      <trkpt lat="47.1569" lon="6.48633">
        <ele>692</ele>
        <time>2016-08-17T16:12:50Z</time>
      </trkpt>
      <trkpt lat="47.15686" lon="6.48599">
        <ele>691</ele>
        <time>2016-08-17T16:12:52Z</time>
      </trkpt>
      <trkpt lat="47.1568" lon="6.48564">
        <ele>690</ele>
        <time>2016-08-17T16:12:54Z</time>
      </trkpt>
      <trkpt lat="47.15676" lon="6.48532">
        <ele>690</ele>
        <time>2016-08-17T16:12:56Z</time>
      </trkpt>
      <trkpt lat="47.15671" lon="6.48501">
        <ele>688</ele>
        <time>2016-08-17T16:12:58Z</time>
      </trkpt>
      <trkpt lat="47.15663" lon="6.48469">
        <ele>690</ele>
        <time>2016-08-17T16:13:00Z</time>
      </trkpt>
      <trkpt lat="47.1566" lon="6.48441">
        <ele>690</ele>
        <time>2016-08-17T16:13:02Z</time>
      </trkpt>
      <trkpt lat="47.15658" lon="6.48417">
        <ele>689</ele>
        <time>2016-08-17T16:13:04Z</time>
      </trkpt>
      <trkpt lat="47.15655" lon="6.48396">
        <ele>689</ele>
        <time>2016-08-17T16:13:06Z</time>
      </trkpt>
      <trkpt lat="47.15653" lon="6.48377">
        <ele>690</ele>
        <time>2016-08-17T16:13:08Z</time>
      </trkpt>
      <trkpt lat="47.1565" lon="6.48359">
        <ele>690</ele>
        <time>2016-08-17T16:13:10Z</time>
      </trkpt>
      <trkpt lat="47.15651" lon="6.4834">
        <ele>691</ele>
        <time>2016-08-17T16:13:12Z</time>
      </trkpt>
      <trkpt lat="47.1565" lon="6.48323">
        <ele>691</ele>
        <time>2016-08-17T16:13:14Z</time>
      </trkpt>
      <trkpt lat="47.15647" lon="6.48304">
        <ele>691</ele>
        <time>2016-08-17T16:13:16Z</time>
      </trkpt>
      <trkpt lat="47.15648" lon="6.48291">
        <ele>691</ele>
        <time>2016-08-17T16:13:18Z</time>
      </trkpt>
      <trkpt lat="47.15648" lon="6.48277">
        <ele>692</ele>
        <time>2016-08-17T16:13:20Z</time>
      </trkpt>
      <trkpt lat="47.1565" lon="6.48252">
        <ele>693</ele>
        <time>2016-08-17T16:13:24Z</time>
      </trkpt>
      <trkpt lat="47.15651" lon="6.48239">
        <ele>694</ele>
        <time>2016-08-17T16:13:26Z</time>
      </trkpt>
      <trkpt lat="47.15655" lon="6.48214">
        <ele>693</ele>
        <time>2016-08-17T16:13:30Z</time>
      </trkpt>
      <trkpt lat="47.15658" lon="6.48192">
        <ele>694</ele>
        <time>2016-08-17T16:13:34Z</time>
      </trkpt>
      <trkpt lat="47.15662" lon="6.48168">
        <ele>697</ele>
        <time>2016-08-17T16:13:38Z</time>
      </trkpt>
      <trkpt lat="47.15668" lon="6.48145">
        <ele>700</ele>
        <time>2016-08-17T16:13:42Z</time>
      </trkpt>
      <trkpt lat="47.15676" lon="6.48123">
        <ele>700</ele>
        <time>2016-08-17T16:13:46Z</time>
      </trkpt>
      <trkpt lat="47.15684" lon="6.48107">
        <ele>700</ele>
        <time>2016-08-17T16:13:50Z</time>
      </trkpt>
      <trkpt lat="47.15695" lon="6.48091">
        <ele>700</ele>
        <time>2016-08-17T16:13:54Z</time>
      </trkpt>
      <trkpt lat="47.15707" lon="6.48077">
        <ele>698</ele>
        <time>2016-08-17T16:13:58Z</time>
      </trkpt>
      <trkpt lat="47.15722" lon="6.48069">
        <ele>699</ele>
        <time>2016-08-17T16:14:02Z</time>
      </trkpt>
      <trkpt lat="47.15735" lon="6.48061">
        <ele>700</ele>
        <time>2016-08-17T16:14:06Z</time>
      </trkpt>
      <trkpt lat="47.1575" lon="6.4805">
        <ele>699</ele>
        <time>2016-08-17T16:14:10Z</time>
      </trkpt>
      <trkpt lat="47.15766" lon="6.48039">
        <ele>704</ele>
        <time>2016-08-17T16:14:14Z</time>
      </trkpt>
      <trkpt lat="47.15781" lon="6.48032">
        <ele>704</ele>
        <time>2016-08-17T16:14:18Z</time>
      </trkpt>
      <trkpt lat="47.15799" lon="6.4803">
        <ele>704</ele>
        <time>2016-08-17T16:14:22Z</time>
      </trkpt>
      <trkpt lat="47.15813" lon="6.48029">
        <ele>705</ele>
        <time>2016-08-17T16:14:26Z</time>
      </trkpt>
      <trkpt lat="47.15822" lon="6.48024">
        <ele>705</ele>
        <time>2016-08-17T16:14:28Z</time>
      </trkpt>
      <trkpt lat="47.15831" lon="6.4802">
        <ele>705</ele>
        <time>2016-08-17T16:14:30Z</time>
      </trkpt>
      <trkpt lat="47.1584" lon="6.48017">
        <ele>707</ele>
        <time>2016-08-17T16:14:32Z</time>
      </trkpt>
      <trkpt lat="47.15849" lon="6.48012">
        <ele>707</ele>
        <time>2016-08-17T16:14:34Z</time>
      </trkpt>
      <trkpt lat="47.15858" lon="6.48009">
        <ele>708</ele>
        <time>2016-08-17T16:14:36Z</time>
      </trkpt>
      <trkpt lat="47.15866" lon="6.48006">
        <ele>709</ele>
        <time>2016-08-17T16:14:38Z</time>
      </trkpt>
      <trkpt lat="47.15883" lon="6.47993">
        <ele>704</ele>
        <time>2016-08-17T16:14:42Z</time>
      </trkpt>
      <trkpt lat="47.15899" lon="6.47973">
        <ele>704</ele>
        <time>2016-08-17T16:14:46Z</time>
      </trkpt>
      <trkpt lat="47.15908" lon="6.47964">
        <ele>704</ele>
        <time>2016-08-17T16:14:48Z</time>
      </trkpt>
      <trkpt lat="47.15917" lon="6.47956">
        <ele>707</ele>
        <time>2016-08-17T16:14:50Z</time>
      </trkpt>
      <trkpt lat="47.15927" lon="6.47945">
        <ele>707</ele>
        <time>2016-08-17T16:14:52Z</time>
      </trkpt>
      <trkpt lat="47.15935" lon="6.47936">
        <ele>706</ele>
        <time>2016-08-17T16:14:54Z</time>
      </trkpt>
      <trkpt lat="47.15943" lon="6.47925">
        <ele>706</ele>
        <time>2016-08-17T16:14:56Z</time>
      </trkpt>
      <trkpt lat="47.15951" lon="6.47916">
        <ele>703</ele>
        <time>2016-08-17T16:14:58Z</time>
      </trkpt>
      <trkpt lat="47.15961" lon="6.47904">
        <ele>704</ele>
        <time>2016-08-17T16:15:00Z</time>
      </trkpt>
      <trkpt lat="47.1597" lon="6.47892">
        <ele>704</ele>
        <time>2016-08-17T16:15:02Z</time>
      </trkpt>
      <trkpt lat="47.15978" lon="6.47881">
        <ele>704</ele>
        <time>2016-08-17T16:15:04Z</time>
      </trkpt>
      <trkpt lat="47.15988" lon="6.47868">
        <ele>703</ele>
        <time>2016-08-17T16:15:06Z</time>
      </trkpt>
      <trkpt lat="47.15997" lon="6.47855">
        <ele>703</ele>
        <time>2016-08-17T16:15:08Z</time>
      </trkpt>
      <trkpt lat="47.16004" lon="6.47841">
        <ele>705</ele>
        <time>2016-08-17T16:15:10Z</time>
      </trkpt>
      <trkpt lat="47.16012" lon="6.47829">
        <ele>704</ele>
        <time>2016-08-17T16:15:12Z</time>
      </trkpt>
      <trkpt lat="47.16021" lon="6.47817">
        <ele>705</ele>
        <time>2016-08-17T16:15:14Z</time>
      </trkpt>
      <trkpt lat="47.16029" lon="6.47805">
        <ele>705</ele>
        <time>2016-08-17T16:15:16Z</time>
      </trkpt>
      <trkpt lat="47.16037" lon="6.47791">
        <ele>705</ele>
        <time>2016-08-17T16:15:18Z</time>
      </trkpt>
      <trkpt lat="47.16044" lon="6.47779">
        <ele>705</ele>
        <time>2016-08-17T16:15:20Z</time>
      </trkpt>
      <trkpt lat="47.16051" lon="6.47766">
        <ele>705</ele>
        <time>2016-08-17T16:15:22Z</time>
      </trkpt>
      <trkpt lat="47.1606" lon="6.47753">
        <ele>706</ele>
        <time>2016-08-17T16:15:24Z</time>
      </trkpt>
      <trkpt lat="47.16068" lon="6.47742">
        <ele>704</ele>
        <time>2016-08-17T16:15:26Z</time>
      </trkpt>
      <trkpt lat="47.16076" lon="6.4773">
        <ele>704</ele>
        <time>2016-08-17T16:15:28Z</time>
      </trkpt>
      <trkpt lat="47.16082" lon="6.47718">
        <ele>703</ele>
        <time>2016-08-17T16:15:30Z</time>
      </trkpt>
      <trkpt lat="47.16095" lon="6.47699">
        <ele>709</ele>
        <time>2016-08-17T16:15:34Z</time>
      </trkpt>
      <trkpt lat="47.16102" lon="6.4769">
        <ele>709</ele>
        <time>2016-08-17T16:15:36Z</time>
      </trkpt>
      <trkpt lat="47.16109" lon="6.47679">
        <ele>709</ele>
        <time>2016-08-17T16:15:38Z</time>
      </trkpt>
      <trkpt lat="47.16117" lon="6.47671">
        <ele>709</ele>
        <time>2016-08-17T16:15:40Z</time>
      </trkpt>
      <trkpt lat="47.16127" lon="6.4765">
        <ele>709</ele>
        <time>2016-08-17T16:15:44Z</time>
      </trkpt>
      <trkpt lat="47.16134" lon="6.4764">
        <ele>709</ele>
        <time>2016-08-17T16:15:46Z</time>
      </trkpt>
      <trkpt lat="47.16139" lon="6.47627">
        <ele>709</ele>
        <time>2016-08-17T16:15:48Z</time>
      </trkpt>
      <trkpt lat="47.16141" lon="6.47614">
        <ele>709</ele>
        <time>2016-08-17T16:15:50Z</time>
      </trkpt>
      <trkpt lat="47.16147" lon="6.4759">
        <ele>710</ele>
        <time>2016-08-17T16:15:54Z</time>
      </trkpt>
      <trkpt lat="47.16149" lon="6.47575">
        <ele>710</ele>
        <time>2016-08-17T16:15:56Z</time>
      </trkpt>
      <trkpt lat="47.1615" lon="6.47562">
        <ele>710</ele>
        <time>2016-08-17T16:15:58Z</time>
      </trkpt>
      <trkpt lat="47.16149" lon="6.47549">
        <ele>710</ele>
        <time>2016-08-17T16:16:00Z</time>
      </trkpt>
      <trkpt lat="47.16149" lon="6.47535">
        <ele>710</ele>
        <time>2016-08-17T16:16:02Z</time>
      </trkpt>
      <trkpt lat="47.1615" lon="6.47509">
        <ele>711</ele>
        <time>2016-08-17T16:16:06Z</time>
      </trkpt>
      <trkpt lat="47.16151" lon="6.47485">
        <ele>712</ele>
        <time>2016-08-17T16:16:10Z</time>
      </trkpt>
      <trkpt lat="47.16152" lon="6.47461">
        <ele>711</ele>
        <time>2016-08-17T16:16:14Z</time>
      </trkpt>
      <trkpt lat="47.16155" lon="6.47439">
        <ele>712</ele>
        <time>2016-08-17T16:16:18Z</time>
      </trkpt>
      <trkpt lat="47.16162" lon="6.47422">
        <ele>714</ele>
        <time>2016-08-17T16:16:22Z</time>
      </trkpt>
      <trkpt lat="47.16172" lon="6.47407">
        <ele>715</ele>
        <time>2016-08-17T16:16:26Z</time>
      </trkpt>
      <trkpt lat="47.16186" lon="6.47393">
        <ele>716</ele>
        <time>2016-08-17T16:16:30Z</time>
      </trkpt>
      <trkpt lat="47.16194" lon="6.47385">
        <ele>716</ele>
        <time>2016-08-17T16:16:32Z</time>
      </trkpt>
      <trkpt lat="47.16207" lon="6.47373">
        <ele>716</ele>
        <time>2016-08-17T16:16:36Z</time>
      </trkpt>
      <trkpt lat="47.16221" lon="6.47359">
        <ele>716</ele>
        <time>2016-08-17T16:16:40Z</time>
      </trkpt>
      <trkpt lat="47.16234" lon="6.47342">
        <ele>716</ele>
        <time>2016-08-17T16:16:44Z</time>
      </trkpt>
      <trkpt lat="47.16247" lon="6.47324">
        <ele>716</ele>
        <time>2016-08-17T16:16:48Z</time>
      </trkpt>
      <trkpt lat="47.16256" lon="6.47304">
        <ele>718</ele>
        <time>2016-08-17T16:16:52Z</time>
      </trkpt>
      <trkpt lat="47.16264" lon="6.47283">
        <ele>718</ele>
        <time>2016-08-17T16:16:56Z</time>
      </trkpt>
      <trkpt lat="47.16271" lon="6.47266">
        <ele>718</ele>
        <time>2016-08-17T16:17:00Z</time>
      </trkpt>
      <trkpt lat="47.16279" lon="6.47252">
        <ele>718</ele>
        <time>2016-08-17T16:17:08Z</time>
      </trkpt>
      <trkpt lat="47.16279" lon="6.47228">
        <ele>718</ele>
        <time>2016-08-17T16:17:12Z</time>
      </trkpt>
      <trkpt lat="47.1628" lon="6.47213">
        <ele>718</ele>
        <time>2016-08-17T16:17:14Z</time>
      </trkpt>
      <trkpt lat="47.1628" lon="6.47197">
        <ele>718</ele>
        <time>2016-08-17T16:17:16Z</time>
      </trkpt>
      <trkpt lat="47.1628" lon="6.47179">
        <ele>718</ele>
        <time>2016-08-17T16:17:18Z</time>
      </trkpt>
      <trkpt lat="47.16279" lon="6.47158">
        <ele>717</ele>
        <time>2016-08-17T16:17:20Z</time>
      </trkpt>
      <trkpt lat="47.1628" lon="6.47138">
        <ele>716</ele>
        <time>2016-08-17T16:17:22Z</time>
      </trkpt>
      <trkpt lat="47.16281" lon="6.47117">
        <ele>716</ele>
        <time>2016-08-17T16:17:24Z</time>
      </trkpt>
      <trkpt lat="47.16285" lon="6.47097">
        <ele>716</ele>
        <time>2016-08-17T16:17:26Z</time>
      </trkpt>
      <trkpt lat="47.16289" lon="6.47077">
        <ele>715</ele>
        <time>2016-08-17T16:17:28Z</time>
      </trkpt>
      <trkpt lat="47.16292" lon="6.47058">
        <ele>715</ele>
        <time>2016-08-17T16:17:30Z</time>
      </trkpt>
      <trkpt lat="47.16295" lon="6.47041">
        <ele>715</ele>
        <time>2016-08-17T16:17:32Z</time>
      </trkpt>
      <trkpt lat="47.16298" lon="6.47023">
        <ele>715</ele>
        <time>2016-08-17T16:17:34Z</time>
      </trkpt>
      <trkpt lat="47.163" lon="6.47005">
        <ele>715</ele>
        <time>2016-08-17T16:17:36Z</time>
      </trkpt>
      <trkpt lat="47.16304" lon="6.46989">
        <ele>715</ele>
        <time>2016-08-17T16:17:38Z</time>
      </trkpt>
      <trkpt lat="47.16306" lon="6.46974">
        <ele>715</ele>
        <time>2016-08-17T16:17:40Z</time>
      </trkpt>
      <trkpt lat="47.1631" lon="6.46958">
        <ele>715</ele>
        <time>2016-08-17T16:17:42Z</time>
      </trkpt>
      <trkpt lat="47.16322" lon="6.46896">
        <ele>716</ele>
        <time>2016-08-17T16:17:50Z</time>
      </trkpt>
      <trkpt lat="47.16327" lon="6.46871">
        <ele>717</ele>
        <time>2016-08-17T16:17:53Z</time>
      </trkpt>
      <trkpt lat="47.16329" lon="6.46858">
        <ele>717</ele>
        <time>2016-08-17T16:17:55Z</time>
      </trkpt>
      <trkpt lat="47.16333" lon="6.46833">
        <ele>719</ele>
        <time>2016-08-17T16:17:59Z</time>
      </trkpt>
      <trkpt lat="47.16337" lon="6.4681">
        <ele>720</ele>
        <time>2016-08-17T16:18:03Z</time>
      </trkpt>
      <trkpt lat="47.1634" lon="6.46795">
        <ele>720</ele>
        <time>2016-08-17T16:18:05Z</time>
      </trkpt>
      <trkpt lat="47.16347" lon="6.46771">
        <ele>720</ele>
        <time>2016-08-17T16:18:09Z</time>
      </trkpt>
      <trkpt lat="47.1635" lon="6.46758">
        <ele>720</ele>
        <time>2016-08-17T16:18:11Z</time>
      </trkpt>
      <trkpt lat="47.16354" lon="6.46736">
        <ele>721</ele>
        <time>2016-08-17T16:18:15Z</time>
      </trkpt>
      <trkpt lat="47.1636" lon="6.46715">
        <ele>721</ele>
        <time>2016-08-17T16:18:19Z</time>
      </trkpt>
      <trkpt lat="47.16367" lon="6.46694">
        <ele>721</ele>
        <time>2016-08-17T16:18:23Z</time>
      </trkpt>
      <trkpt lat="47.16375" lon="6.46672">
        <ele>722</ele>
        <time>2016-08-17T16:18:27Z</time>
      </trkpt>
      <trkpt lat="47.16383" lon="6.46649">
        <ele>722</ele>
        <time>2016-08-17T16:18:31Z</time>
      </trkpt>
      <trkpt lat="47.1639" lon="6.46625">
        <ele>722</ele>
        <time>2016-08-17T16:18:35Z</time>
      </trkpt>
      <trkpt lat="47.16397" lon="6.46607">
        <ele>722</ele>
        <time>2016-08-17T16:18:38Z</time>
      </trkpt>
      <trkpt lat="47.16403" lon="6.46595">
        <ele>722</ele>
        <time>2016-08-17T16:18:40Z</time>
      </trkpt>
      <trkpt lat="47.16407" lon="6.46582">
        <ele>722</ele>
        <time>2016-08-17T16:18:42Z</time>
      </trkpt>
      <trkpt lat="47.16411" lon="6.46569">
        <ele>722</ele>
        <time>2016-08-17T16:18:44Z</time>
      </trkpt>
      <trkpt lat="47.16416" lon="6.46556">
        <ele>722</ele>
        <time>2016-08-17T16:18:46Z</time>
      </trkpt>
      <trkpt lat="47.16421" lon="6.46544">
        <ele>724</ele>
        <time>2016-08-17T16:18:48Z</time>
      </trkpt>
      <trkpt lat="47.16426" lon="6.46531">
        <ele>724</ele>
        <time>2016-08-17T16:18:50Z</time>
      </trkpt>
      <trkpt lat="47.16431" lon="6.46517">
        <ele>723</ele>
        <time>2016-08-17T16:18:52Z</time>
      </trkpt>
      <trkpt lat="47.16435" lon="6.46504">
        <ele>723</ele>
        <time>2016-08-17T16:18:54Z</time>
      </trkpt>
      <trkpt lat="47.16441" lon="6.46491">
        <ele>723</ele>
        <time>2016-08-17T16:18:56Z</time>
      </trkpt>
      <trkpt lat="47.16447" lon="6.46475">
        <ele>723</ele>
        <time>2016-08-17T16:18:58Z</time>
      </trkpt>
      <trkpt lat="47.16453" lon="6.46461">
        <ele>723</ele>
        <time>2016-08-17T16:19:00Z</time>
      </trkpt>
      <trkpt lat="47.16458" lon="6.46445">
        <ele>723</ele>
        <time>2016-08-17T16:19:02Z</time>
      </trkpt>
      <trkpt lat="47.16464" lon="6.46429">
        <ele>723</ele>
        <time>2016-08-17T16:19:04Z</time>
      </trkpt>
      <trkpt lat="47.16469" lon="6.46412">
        <ele>722</ele>
        <time>2016-08-17T16:19:06Z</time>
      </trkpt>
      <trkpt lat="47.16475" lon="6.46396">
        <ele>723</ele>
        <time>2016-08-17T16:19:08Z</time>
      </trkpt>
      <trkpt lat="47.16483" lon="6.46374">
        <ele>722</ele>
        <time>2016-08-17T16:19:11Z</time>
      </trkpt>
      <trkpt lat="47.16489" lon="6.46358">
        <ele>722</ele>
        <time>2016-08-17T16:19:13Z</time>
      </trkpt>
      <trkpt lat="47.16495" lon="6.46343">
        <ele>723</ele>
        <time>2016-08-17T16:19:15Z</time>
      </trkpt>
      <trkpt lat="47.16501" lon="6.46327">
        <ele>724</ele>
        <time>2016-08-17T16:19:17Z</time>
      </trkpt>
      <trkpt lat="47.16507" lon="6.46314">
        <ele>725</ele>
        <time>2016-08-17T16:19:19Z</time>
      </trkpt>
      <trkpt lat="47.16512" lon="6.46299">
        <ele>726</ele>
        <time>2016-08-17T16:19:21Z</time>
      </trkpt>
      <trkpt lat="47.16517" lon="6.46284">
        <ele>726</ele>
        <time>2016-08-17T16:19:23Z</time>
      </trkpt>
      <trkpt lat="47.16522" lon="6.46271">
        <ele>726</ele>
        <time>2016-08-17T16:19:25Z</time>
      </trkpt>
      <trkpt lat="47.16526" lon="6.46256">
        <ele>726</ele>
        <time>2016-08-17T16:19:27Z</time>
      </trkpt>
      <trkpt lat="47.16532" lon="6.46241">
        <ele>727</ele>
        <time>2016-08-17T16:19:29Z</time>
      </trkpt>
      <trkpt lat="47.16538" lon="6.46225">
        <ele>728</ele>
        <time>2016-08-17T16:19:31Z</time>
      </trkpt>
      <trkpt lat="47.16543" lon="6.46209">
        <ele>728</ele>
        <time>2016-08-17T16:19:33Z</time>
      </trkpt>
      <trkpt lat="47.16548" lon="6.46193">
        <ele>728</ele>
        <time>2016-08-17T16:19:35Z</time>
      </trkpt>
      <trkpt lat="47.16553" lon="6.4618">
        <ele>729</ele>
        <time>2016-08-17T16:19:37Z</time>
      </trkpt>
      <trkpt lat="47.16559" lon="6.46166">
        <ele>728</ele>
        <time>2016-08-17T16:19:39Z</time>
      </trkpt>
      <trkpt lat="47.16565" lon="6.46153">
        <ele>728</ele>
        <time>2016-08-17T16:19:41Z</time>
      </trkpt>
      <trkpt lat="47.16571" lon="6.4614">
        <ele>728</ele>
        <time>2016-08-17T16:19:43Z</time>
      </trkpt>
      <trkpt lat="47.16574" lon="6.46128">
        <ele>727</ele>
        <time>2016-08-17T16:19:45Z</time>
      </trkpt>
      <trkpt lat="47.16579" lon="6.46114">
        <ele>726</ele>
        <time>2016-08-17T16:19:47Z</time>
      </trkpt>
      <trkpt lat="47.16586" lon="6.46101">
        <ele>730</ele>
        <time>2016-08-17T16:19:49Z</time>
      </trkpt>
      <trkpt lat="47.16591" lon="6.46086">
        <ele>728</ele>
        <time>2016-08-17T16:19:51Z</time>
      </trkpt>
      <trkpt lat="47.16599" lon="6.46071">
        <ele>727</ele>
        <time>2016-08-17T16:19:53Z</time>
      </trkpt>
      <trkpt lat="47.16604" lon="6.46053">
        <ele>727</ele>
        <time>2016-08-17T16:19:55Z</time>
      </trkpt>
      <trkpt lat="47.1661" lon="6.46034">
        <ele>727</ele>
        <time>2016-08-17T16:19:57Z</time>
      </trkpt>
      <trkpt lat="47.16616" lon="6.46016">
        <ele>727</ele>
        <time>2016-08-17T16:19:59Z</time>
      </trkpt>
      <trkpt lat="47.1662" lon="6.45995">
        <ele>724</ele>
        <time>2016-08-17T16:20:01Z</time>
      </trkpt>
      <trkpt lat="47.16622" lon="6.45971">
        <ele>723</ele>
        <time>2016-08-17T16:20:03Z</time>
      </trkpt>
      <trkpt lat="47.16624" lon="6.45946">
        <ele>723</ele>
        <time>2016-08-17T16:20:05Z</time>
      </trkpt>
      <trkpt lat="47.16625" lon="6.45918">
        <ele>722</ele>
        <time>2016-08-17T16:20:07Z</time>
      </trkpt>
      <trkpt lat="47.16628" lon="6.45893">
        <ele>718</ele>
        <time>2016-08-17T16:20:09Z</time>
      </trkpt>
      <trkpt lat="47.16632" lon="6.45867">
        <ele>717</ele>
        <time>2016-08-17T16:20:11Z</time>
      </trkpt>
      <trkpt lat="47.16637" lon="6.45846">
        <ele>717</ele>
        <time>2016-08-17T16:20:13Z</time>
      </trkpt>
      <trkpt lat="47.16641" lon="6.45823">
        <ele>715</ele>
        <time>2016-08-17T16:20:15Z</time>
      </trkpt>
      <trkpt lat="47.16647" lon="6.45797">
        <ele>715</ele>
        <time>2016-08-17T16:20:17Z</time>
      </trkpt>
      <trkpt lat="47.16651" lon="6.45778">
        <ele>716</ele>
        <time>2016-08-17T16:20:19Z</time>
      </trkpt>
      <trkpt lat="47.16657" lon="6.45755">
        <ele>717</ele>
        <time>2016-08-17T16:20:21Z</time>
      </trkpt>
      <trkpt lat="47.16661" lon="6.45732">
        <ele>717</ele>
        <time>2016-08-17T16:20:23Z</time>
      </trkpt>
      <trkpt lat="47.16665" lon="6.45711">
        <ele>715</ele>
        <time>2016-08-17T16:20:25Z</time>
      </trkpt>
      <trkpt lat="47.16669" lon="6.45687">
        <ele>718</ele>
        <time>2016-08-17T16:20:27Z</time>
      </trkpt>
      <trkpt lat="47.16673" lon="6.45663">
        <ele>715</ele>
        <time>2016-08-17T16:20:29Z</time>
      </trkpt>
      <trkpt lat="47.16677" lon="6.4564">
        <ele>715</ele>
        <time>2016-08-17T16:20:31Z</time>
      </trkpt>
      <trkpt lat="47.16681" lon="6.45615">
        <ele>714</ele>
        <time>2016-08-17T16:20:33Z</time>
      </trkpt>
      <trkpt lat="47.16686" lon="6.45593">
        <ele>712</ele>
        <time>2016-08-17T16:20:35Z</time>
      </trkpt>
      <trkpt lat="47.1669" lon="6.45569">
        <ele>712</ele>
        <time>2016-08-17T16:20:37Z</time>
      </trkpt>
      <trkpt lat="47.16694" lon="6.45546">
        <ele>712</ele>
        <time>2016-08-17T16:20:39Z</time>
      </trkpt>
      <trkpt lat="47.16698" lon="6.45523">
        <ele>712</ele>
        <time>2016-08-17T16:20:41Z</time>
      </trkpt>
      <trkpt lat="47.16702" lon="6.455">
        <ele>710</ele>
        <time>2016-08-17T16:20:43Z</time>
      </trkpt>
      <trkpt lat="47.16707" lon="6.45479">
        <ele>711</ele>
        <time>2016-08-17T16:20:45Z</time>
      </trkpt>
      <trkpt lat="47.16711" lon="6.45457">
        <ele>710</ele>
        <time>2016-08-17T16:20:47Z</time>
      </trkpt>
      <trkpt lat="47.16717" lon="6.45437">
        <ele>710</ele>
        <time>2016-08-17T16:20:49Z</time>
      </trkpt>
      <trkpt lat="47.16718" lon="6.45415">
        <ele>706</ele>
        <time>2016-08-17T16:20:51Z</time>
      </trkpt>
      <trkpt lat="47.16724" lon="6.45394">
        <ele>706</ele>
        <time>2016-08-17T16:20:53Z</time>
      </trkpt>
      <trkpt lat="47.16729" lon="6.45377">
        <ele>705</ele>
        <time>2016-08-17T16:20:55Z</time>
      </trkpt>
      <trkpt lat="47.16736" lon="6.45358">
        <ele>705</ele>
        <time>2016-08-17T16:20:57Z</time>
      </trkpt>
      <trkpt lat="47.16745" lon="6.4534">
        <ele>704</ele>
        <time>2016-08-17T16:20:59Z</time>
      </trkpt>
      <trkpt lat="47.16753" lon="6.45322">
        <ele>705</ele>
        <time>2016-08-17T16:21:01Z</time>
      </trkpt>
      <trkpt lat="47.16762" lon="6.45306">
        <ele>705</ele>
        <time>2016-08-17T16:21:03Z</time>
      </trkpt>
      <trkpt lat="47.1677" lon="6.45289">
        <ele>705</ele>
        <time>2016-08-17T16:21:05Z</time>
      </trkpt>
      <trkpt lat="47.16778" lon="6.45271">
        <ele>705</ele>
        <time>2016-08-17T16:21:07Z</time>
      </trkpt>
      <trkpt lat="47.16787" lon="6.45254">
        <ele>705</ele>
        <time>2016-08-17T16:21:09Z</time>
      </trkpt>
      <trkpt lat="47.16795" lon="6.45237">
        <ele>704</ele>
        <time>2016-08-17T16:21:11Z</time>
      </trkpt>
      <trkpt lat="47.16805" lon="6.45223">
        <ele>704</ele>
        <time>2016-08-17T16:21:13Z</time>
      </trkpt>
      <trkpt lat="47.16814" lon="6.45208">
        <ele>704</ele>
        <time>2016-08-17T16:21:15Z</time>
      </trkpt>
      <trkpt lat="47.16822" lon="6.45191">
        <ele>704</ele>
        <time>2016-08-17T16:21:17Z</time>
      </trkpt>
      <trkpt lat="47.1683" lon="6.45179">
        <ele>704</ele>
        <time>2016-08-17T16:21:19Z</time>
      </trkpt>
      <trkpt lat="47.16838" lon="6.45166">
        <ele>704</ele>
        <time>2016-08-17T16:21:21Z</time>
      </trkpt>
      <trkpt lat="47.16846" lon="6.45155">
        <ele>704</ele>
        <time>2016-08-17T16:21:23Z</time>
      </trkpt>
      <trkpt lat="47.16856" lon="6.45147">
        <ele>704</ele>
        <time>2016-08-17T16:21:25Z</time>
      </trkpt>
      <trkpt lat="47.16866" lon="6.45137">
        <ele>704</ele>
        <time>2016-08-17T16:21:27Z</time>
      </trkpt>
      <trkpt lat="47.16878" lon="6.45128">
        <ele>704</ele>
        <time>2016-08-17T16:21:29Z</time>
      </trkpt>
      <trkpt lat="47.16891" lon="6.45121">
        <ele>704</ele>
        <time>2016-08-17T16:21:31Z</time>
      </trkpt>
      <trkpt lat="47.16907" lon="6.45113">
        <ele>704</ele>
        <time>2016-08-17T16:21:34Z</time>
      </trkpt>
      <trkpt lat="47.16919" lon="6.45105">
        <ele>704</ele>
        <time>2016-08-17T16:21:35Z</time>
      </trkpt>
      <trkpt lat="47.16931" lon="6.45097">
        <ele>704</ele>
        <time>2016-08-17T16:21:37Z</time>
      </trkpt>
      <trkpt lat="47.16943" lon="6.45085">
        <ele>704</ele>
        <time>2016-08-17T16:21:39Z</time>
      </trkpt>
      <trkpt lat="47.16955" lon="6.45073">
        <ele>702</ele>
        <time>2016-08-17T16:21:41Z</time>
      </trkpt>
      <trkpt lat="47.16967" lon="6.4506">
        <ele>702</ele>
        <time>2016-08-17T16:21:43Z</time>
      </trkpt>
      <trkpt lat="47.16978" lon="6.45041">
        <ele>701</ele>
        <time>2016-08-17T16:21:45Z</time>
      </trkpt>
      <trkpt lat="47.17013" lon="6.44964">
        <ele>701</ele>
        <time>2016-08-17T16:21:54Z</time>
      </trkpt>
      <trkpt lat="47.17018" lon="6.44949">
        <ele>701</ele>
        <time>2016-08-17T16:21:55Z</time>
      </trkpt>
      <trkpt lat="47.17024" lon="6.44933">
        <ele>702</ele>
        <time>2016-08-17T16:21:57Z</time>
      </trkpt>
      <trkpt lat="47.1703" lon="6.44921">
        <ele>702</ele>
        <time>2016-08-17T16:21:59Z</time>
      </trkpt>
      <trkpt lat="47.17035" lon="6.44906">
        <ele>702</ele>
        <time>2016-08-17T16:22:01Z</time>
      </trkpt>
      <trkpt lat="47.17047" lon="6.44882">
        <ele>703</ele>
        <time>2016-08-17T16:22:05Z</time>
      </trkpt>
      <trkpt lat="47.17056" lon="6.44864">
        <ele>703</ele>
        <time>2016-08-17T16:22:09Z</time>
      </trkpt>
      <trkpt lat="47.17063" lon="6.44844">
        <ele>703</ele>
        <time>2016-08-17T16:22:13Z</time>
      </trkpt>
      <trkpt lat="47.1707" lon="6.44826">
        <ele>704</ele>
        <time>2016-08-17T16:22:17Z</time>
      </trkpt>
      <trkpt lat="47.17077" lon="6.44809">
        <ele>705</ele>
        <time>2016-08-17T16:22:21Z</time>
      </trkpt>
      <trkpt lat="47.17086" lon="6.44793">
        <ele>707</ele>
        <time>2016-08-17T16:22:25Z</time>
      </trkpt>
      <trkpt lat="47.17092" lon="6.44777">
        <ele>707</ele>
        <time>2016-08-17T16:22:29Z</time>
      </trkpt>
      <trkpt lat="47.17099" lon="6.44761">
        <ele>708</ele>
        <time>2016-08-17T16:22:33Z</time>
      </trkpt>
      <trkpt lat="47.17105" lon="6.44743">
        <ele>710</ele>
        <time>2016-08-17T16:22:37Z</time>
      </trkpt>
      <trkpt lat="47.17112" lon="6.44727">
        <ele>710</ele>
        <time>2016-08-17T16:22:41Z</time>
      </trkpt>
      <trkpt lat="47.17121" lon="6.44704">
        <ele>711</ele>
        <time>2016-08-17T16:22:47Z</time>
      </trkpt>
      <trkpt lat="47.17127" lon="6.44689">
        <ele>711</ele>
        <time>2016-08-17T16:22:51Z</time>
      </trkpt>
      <trkpt lat="47.17134" lon="6.44674">
        <ele>711</ele>
        <time>2016-08-17T16:22:55Z</time>
      </trkpt>
      <trkpt lat="47.17141" lon="6.44661">
        <ele>713</ele>
        <time>2016-08-17T16:22:59Z</time>
      </trkpt>
      <trkpt lat="47.17147" lon="6.44644">
        <ele>713</ele>
        <time>2016-08-17T16:23:03Z</time>
      </trkpt>
      <trkpt lat="47.17155" lon="6.44627">
        <ele>714</ele>
        <time>2016-08-17T16:23:07Z</time>
      </trkpt>
      <trkpt lat="47.17162" lon="6.44611">
        <ele>715</ele>
        <time>2016-08-17T16:23:11Z</time>
      </trkpt>
      <trkpt lat="47.17164" lon="6.44592">
        <ele>716</ele>
        <time>2016-08-17T16:23:15Z</time>
      </trkpt>
      <trkpt lat="47.17169" lon="6.44573">
        <ele>718</ele>
        <time>2016-08-17T16:23:19Z</time>
      </trkpt>
      <trkpt lat="47.17178" lon="6.44558">
        <ele>719</ele>
        <time>2016-08-17T16:23:23Z</time>
      </trkpt>
      <trkpt lat="47.17185" lon="6.44542">
        <ele>720</ele>
        <time>2016-08-17T16:23:27Z</time>
      </trkpt>
      <trkpt lat="47.17192" lon="6.44529">
        <ele>720</ele>
        <time>2016-08-17T16:23:31Z</time>
      </trkpt>
      <trkpt lat="47.17196" lon="6.44515">
        <ele>720</ele>
        <time>2016-08-17T16:23:35Z</time>
      </trkpt>
      <trkpt lat="47.17203" lon="6.44501">
        <ele>721</ele>
        <time>2016-08-17T16:24:05Z</time>
      </trkpt>
      <trkpt lat="47.17209" lon="6.44482">
        <ele>721</ele>
        <time>2016-08-17T16:24:09Z</time>
      </trkpt>
      <trkpt lat="47.17218" lon="6.44461">
        <ele>722</ele>
        <time>2016-08-17T16:24:13Z</time>
      </trkpt>
      <trkpt lat="47.17229" lon="6.44441">
        <ele>722</ele>
        <time>2016-08-17T16:24:17Z</time>
      </trkpt>
      <trkpt lat="47.17235" lon="6.44431">
        <ele>723</ele>
        <time>2016-08-17T16:24:19Z</time>
      </trkpt>
      <trkpt lat="47.17247" lon="6.44414">
        <ele>724</ele>
        <time>2016-08-17T16:24:23Z</time>
      </trkpt>
      <trkpt lat="47.17253" lon="6.44404">
        <ele>724</ele>
        <time>2016-08-17T16:24:25Z</time>
      </trkpt>
      <trkpt lat="47.17259" lon="6.44395">
        <ele>724</ele>
        <time>2016-08-17T16:24:27Z</time>
      </trkpt>
      <trkpt lat="47.17266" lon="6.44385">
        <ele>723</ele>
        <time>2016-08-17T16:24:29Z</time>
      </trkpt>
      <trkpt lat="47.17274" lon="6.44375">
        <ele>723</ele>
        <time>2016-08-17T16:24:31Z</time>
      </trkpt>
      <trkpt lat="47.17281" lon="6.44365">
        <ele>723</ele>
        <time>2016-08-17T16:24:33Z</time>
      </trkpt>
      <trkpt lat="47.17288" lon="6.44356">
        <ele>723</ele>
        <time>2016-08-17T16:24:35Z</time>
      </trkpt>
      <trkpt lat="47.17294" lon="6.44346">
        <ele>723</ele>
        <time>2016-08-17T16:24:37Z</time>
      </trkpt>
      <trkpt lat="47.17301" lon="6.44335">
        <ele>723</ele>
        <time>2016-08-17T16:24:39Z</time>
      </trkpt>
      <trkpt lat="47.1731" lon="6.44324">
        <ele>721</ele>
        <time>2016-08-17T16:24:41Z</time>
      </trkpt>
      <trkpt lat="47.17318" lon="6.44313">
        <ele>721</ele>
        <time>2016-08-17T16:24:43Z</time>
      </trkpt>
      <trkpt lat="47.17327" lon="6.44301">
        <ele>720</ele>
        <time>2016-08-17T16:24:45Z</time>
      </trkpt>
      <trkpt lat="47.17335" lon="6.44288">
        <ele>722</ele>
        <time>2016-08-17T16:24:47Z</time>
      </trkpt>
      <trkpt lat="47.17343" lon="6.44277">
        <ele>722</ele>
        <time>2016-08-17T16:24:49Z</time>
      </trkpt>
      <trkpt lat="47.17352" lon="6.44264">
        <ele>721</ele>
        <time>2016-08-17T16:24:51Z</time>
      </trkpt>
      <trkpt lat="47.17359" lon="6.44251">
        <ele>721</ele>
        <time>2016-08-17T16:24:53Z</time>
      </trkpt>
      <trkpt lat="47.17366" lon="6.44239">
        <ele>719</ele>
        <time>2016-08-17T16:24:55Z</time>
      </trkpt>
      <trkpt lat="47.17373" lon="6.44228">
        <ele>719</ele>
        <time>2016-08-17T16:24:57Z</time>
      </trkpt>
      <trkpt lat="47.17382" lon="6.44218">
        <ele>719</ele>
        <time>2016-08-17T16:24:59Z</time>
      </trkpt>
      <trkpt lat="47.17388" lon="6.44208">
        <ele>719</ele>
        <time>2016-08-17T16:25:01Z</time>
      </trkpt>
      <trkpt lat="47.17397" lon="6.44198">
        <ele>719</ele>
        <time>2016-08-17T16:25:03Z</time>
      </trkpt>
      <trkpt lat="47.17404" lon="6.44189">
        <ele>719</ele>
        <time>2016-08-17T16:25:05Z</time>
      </trkpt>
      <trkpt lat="47.17411" lon="6.4418">
        <ele>720</ele>
        <time>2016-08-17T16:25:07Z</time>
      </trkpt>
      <trkpt lat="47.17422" lon="6.44162">
        <ele>720</ele>
        <time>2016-08-17T16:25:11Z</time>
      </trkpt>
      <trkpt lat="47.1743" lon="6.44149">
        <ele>721</ele>
        <time>2016-08-17T16:25:15Z</time>
      </trkpt>
      <trkpt lat="47.17437" lon="6.44132">
        <ele>721</ele>
        <time>2016-08-17T16:25:19Z</time>
      </trkpt>
      <trkpt lat="47.17445" lon="6.44117">
        <ele>722</ele>
        <time>2016-08-17T16:25:23Z</time>
      </trkpt>
      <trkpt lat="47.17454" lon="6.44108">
        <ele>722</ele>
        <time>2016-08-17T16:25:27Z</time>
      </trkpt>
      <trkpt lat="47.17465" lon="6.44096">
        <ele>723</ele>
        <time>2016-08-17T16:25:31Z</time>
      </trkpt>
      <trkpt lat="47.17473" lon="6.44088">
        <ele>723</ele>
        <time>2016-08-17T16:25:35Z</time>
      </trkpt>
      <trkpt lat="47.17484" lon="6.44079">
        <ele>725</ele>
        <time>2016-08-17T16:25:39Z</time>
      </trkpt>
      <trkpt lat="47.17494" lon="6.4407">
        <ele>725</ele>
        <time>2016-08-17T16:25:43Z</time>
      </trkpt>
      <trkpt lat="47.17504" lon="6.44062">
        <ele>727</ele>
        <time>2016-08-17T16:25:47Z</time>
      </trkpt>
      <trkpt lat="47.1751" lon="6.44052">
        <ele>728</ele>
        <time>2016-08-17T16:25:51Z</time>
      </trkpt>
      <trkpt lat="47.1752" lon="6.44043">
        <ele>728</ele>
        <time>2016-08-17T16:25:55Z</time>
      </trkpt>
      <trkpt lat="47.17528" lon="6.44035">
        <ele>728</ele>
        <time>2016-08-17T16:25:59Z</time>
      </trkpt>
      <trkpt lat="47.17537" lon="6.44023">
        <ele>729</ele>
        <time>2016-08-17T16:26:05Z</time>
      </trkpt>
      <trkpt lat="47.17547" lon="6.44015">
        <ele>729</ele>
        <time>2016-08-17T16:26:09Z</time>
      </trkpt>
      <trkpt lat="47.17554" lon="6.44003">
        <ele>729</ele>
        <time>2016-08-17T16:26:13Z</time>
      </trkpt>
      <trkpt lat="47.17561" lon="6.43993">
        <ele>731</ele>
        <time>2016-08-17T16:26:17Z</time>
      </trkpt>
      <trkpt lat="47.17572" lon="6.43982">
        <ele>731</ele>
        <time>2016-08-17T16:26:23Z</time>
      </trkpt>
      <trkpt lat="47.17581" lon="6.43974">
        <ele>731</ele>
        <time>2016-08-17T16:26:27Z</time>
      </trkpt>
      <trkpt lat="47.1759" lon="6.4396">
        <ele>736</ele>
        <time>2016-08-17T16:26:33Z</time>
      </trkpt>
      <trkpt lat="47.17599" lon="6.43951">
        <ele>736</ele>
        <time>2016-08-17T16:26:39Z</time>
      </trkpt>
      <trkpt lat="47.17609" lon="6.43939">
        <ele>737</ele>
        <time>2016-08-17T16:26:45Z</time>
      </trkpt>
      <trkpt lat="47.17621" lon="6.43927">
        <ele>737</ele>
        <time>2016-08-17T16:26:52Z</time>
      </trkpt>
      <trkpt lat="47.17632" lon="6.43918">
        <ele>739</ele>
        <time>2016-08-17T16:26:57Z</time>
      </trkpt>
      <trkpt lat="47.17645" lon="6.43914">
        <ele>741</ele>
        <time>2016-08-17T16:27:03Z</time>
      </trkpt>
      <trkpt lat="47.17654" lon="6.43909">
        <ele>742</ele>
        <time>2016-08-17T16:27:07Z</time>
      </trkpt>
      <trkpt lat="47.17663" lon="6.43904">
        <ele>742</ele>
        <time>2016-08-17T16:27:11Z</time>
      </trkpt>
      <trkpt lat="47.17674" lon="6.43898">
        <ele>747</ele>
        <time>2016-08-17T16:27:17Z</time>
      </trkpt>
      <trkpt lat="47.17685" lon="6.43893">
        <ele>748</ele>
        <time>2016-08-17T16:27:23Z</time>
      </trkpt>
      <trkpt lat="47.17696" lon="6.43889">
        <ele>748</ele>
        <time>2016-08-17T16:27:29Z</time>
      </trkpt>
      <trkpt lat="47.17708" lon="6.43884">
        <ele>749</ele>
        <time>2016-08-17T16:27:35Z</time>
      </trkpt>
      <trkpt lat="47.17716" lon="6.43875">
        <ele>750</ele>
        <time>2016-08-17T16:27:39Z</time>
      </trkpt>
      <trkpt lat="47.17697" lon="6.43731">
        <ele>753</ele>
        <time>2016-08-17T16:28:19Z</time>
      </trkpt>
      <trkpt lat="47.1769" lon="6.43715">
        <ele>753</ele>
        <time>2016-08-17T16:28:25Z</time>
      </trkpt>
      <trkpt lat="47.17686" lon="6.43703">
        <ele>753</ele>
        <time>2016-08-17T16:28:29Z</time>
      </trkpt>
      <trkpt lat="47.17682" lon="6.43691">
        <ele>754</ele>
        <time>2016-08-17T16:28:33Z</time>
      </trkpt>
      <trkpt lat="47.17677" lon="6.43678">
        <ele>754</ele>
        <time>2016-08-17T16:28:37Z</time>
      </trkpt>
      <trkpt lat="47.17672" lon="6.43666">
        <ele>755</ele>
        <time>2016-08-17T16:28:41Z</time>
      </trkpt>
      <trkpt lat="47.17668" lon="6.43653">
        <ele>756</ele>
        <time>2016-08-17T16:28:45Z</time>
      </trkpt>
      <trkpt lat="47.17662" lon="6.4364">
        <ele>755</ele>
        <time>2016-08-17T16:28:49Z</time>
      </trkpt>
      <trkpt lat="47.17659" lon="6.43626">
        <ele>756</ele>
        <time>2016-08-17T16:28:53Z</time>
      </trkpt>
      <trkpt lat="47.17656" lon="6.43611">
        <ele>756</ele>
        <time>2016-08-17T16:28:57Z</time>
      </trkpt>
      <trkpt lat="47.1765" lon="6.43597">
        <ele>757</ele>
        <time>2016-08-17T16:29:01Z</time>
      </trkpt>
      <trkpt lat="47.17646" lon="6.43584">
        <ele>757</ele>
        <time>2016-08-17T16:29:05Z</time>
      </trkpt>
      <trkpt lat="47.17642" lon="6.43572">
        <ele>760</ele>
        <time>2016-08-17T16:29:09Z</time>
      </trkpt>
      <trkpt lat="47.17637" lon="6.43559">
        <ele>760</ele>
        <time>2016-08-17T16:29:13Z</time>
      </trkpt>
      <trkpt lat="47.17632" lon="6.43547">
        <ele>760</ele>
        <time>2016-08-17T16:29:17Z</time>
      </trkpt>
      <trkpt lat="47.17628" lon="6.43534">
        <ele>761</ele>
        <time>2016-08-17T16:29:21Z</time>
      </trkpt>
      <trkpt lat="47.17624" lon="6.43521">
        <ele>761</ele>
        <time>2016-08-17T16:29:25Z</time>
      </trkpt>
      <trkpt lat="47.17621" lon="6.43507">
        <ele>761</ele>
        <time>2016-08-17T16:29:29Z</time>
      </trkpt>
      <trkpt lat="47.17617" lon="6.43495">
        <ele>765</ele>
        <time>2016-08-17T16:29:33Z</time>
      </trkpt>
      <trkpt lat="47.17613" lon="6.43477">
        <ele>766</ele>
        <time>2016-08-17T16:29:39Z</time>
      </trkpt>
      <trkpt lat="47.17608" lon="6.43464">
        <ele>767</ele>
        <time>2016-08-17T16:29:43Z</time>
      </trkpt>
      <trkpt lat="47.17601" lon="6.43449">
        <ele>768</ele>
        <time>2016-08-17T16:29:49Z</time>
      </trkpt>
      <trkpt lat="47.176" lon="6.4343">
        <ele>769</ele>
        <time>2016-08-17T16:29:55Z</time>
      </trkpt>
      <trkpt lat="47.17595" lon="6.43416">
        <ele>772</ele>
        <time>2016-08-17T16:29:59Z</time>
      </trkpt>
      <trkpt lat="47.17592" lon="6.43402">
        <ele>773</ele>
        <time>2016-08-17T16:30:03Z</time>
      </trkpt>
      <trkpt lat="47.17588" lon="6.43387">
        <ele>775</ele>
        <time>2016-08-17T16:30:07Z</time>
      </trkpt>
      <trkpt lat="47.17583" lon="6.43372">
        <ele>771</ele>
        <time>2016-08-17T16:30:13Z</time>
      </trkpt>
      <trkpt lat="47.17579" lon="6.4336">
        <ele>772</ele>
        <time>2016-08-17T16:30:17Z</time>
      </trkpt>
      <trkpt lat="47.17577" lon="6.43347">
        <ele>774</ele>
        <time>2016-08-17T16:30:21Z</time>
      </trkpt>
      <trkpt lat="47.17573" lon="6.43334">
        <ele>775</ele>
        <time>2016-08-17T16:30:25Z</time>
      </trkpt>
      <trkpt lat="47.1757" lon="6.4332">
        <ele>776</ele>
        <time>2016-08-17T16:30:29Z</time>
      </trkpt>
      <trkpt lat="47.17573" lon="6.43302">
        <ele>776</ele>
        <time>2016-08-17T16:30:35Z</time>
      </trkpt>
      <trkpt lat="47.17577" lon="6.43288">
        <ele>776</ele>
        <time>2016-08-17T16:30:39Z</time>
      </trkpt>
      <trkpt lat="47.17585" lon="6.43274">
        <ele>781</ele>
        <time>2016-08-17T16:30:45Z</time>
      </trkpt>
      <trkpt lat="47.17598" lon="6.43266">
        <ele>781</ele>
        <time>2016-08-17T16:30:51Z</time>
      </trkpt>
      <trkpt lat="47.17607" lon="6.4326">
        <ele>782</ele>
        <time>2016-08-17T16:30:55Z</time>
      </trkpt>
      <trkpt lat="47.17621" lon="6.43248">
        <ele>781</ele>
        <time>2016-08-17T16:31:01Z</time>
      </trkpt>
      <trkpt lat="47.17636" lon="6.43236">
        <ele>781</ele>
        <time>2016-08-17T16:31:05Z</time>
      </trkpt>
      <trkpt lat="47.17648" lon="6.43228">
        <ele>782</ele>
        <time>2016-08-17T16:31:09Z</time>
      </trkpt>
      <trkpt lat="47.17656" lon="6.4322">
        <ele>781</ele>
        <time>2016-08-17T16:31:11Z</time>
      </trkpt>
      <trkpt lat="47.17669" lon="6.43217">
        <ele>783</ele>
        <time>2016-08-17T16:31:13Z</time>
      </trkpt>
      <trkpt lat="47.17684" lon="6.43211">
        <ele>783</ele>
        <time>2016-08-17T16:31:17Z</time>
      </trkpt>
      <trkpt lat="47.17694" lon="6.43203">
        <ele>783</ele>
        <time>2016-08-17T16:31:21Z</time>
      </trkpt>
      <trkpt lat="47.17707" lon="6.43201">
        <ele>783</ele>
        <time>2016-08-17T16:31:25Z</time>
      </trkpt>
      <trkpt lat="47.17717" lon="6.43191">
        <ele>783</ele>
        <time>2016-08-17T16:31:29Z</time>
      </trkpt>
      <trkpt lat="47.17732" lon="6.43188">
        <ele>783</ele>
        <time>2016-08-17T16:31:33Z</time>
      </trkpt>
      <trkpt lat="47.17748" lon="6.43181">
        <ele>783</ele>
        <time>2016-08-17T16:31:37Z</time>
      </trkpt>
      <trkpt lat="47.17764" lon="6.43171">
        <ele>783</ele>
        <time>2016-08-17T16:31:41Z</time>
      </trkpt>
      <trkpt lat="47.17778" lon="6.43164">
        <ele>780</ele>
        <time>2016-08-17T16:31:43Z</time>
      </trkpt>
      <trkpt lat="47.17787" lon="6.43159">
        <ele>780</ele>
        <time>2016-08-17T16:31:45Z</time>
      </trkpt>
      <trkpt lat="47.17796" lon="6.43153">
        <ele>780</ele>
        <time>2016-08-17T16:31:47Z</time>
      </trkpt>
      <trkpt lat="47.17803" lon="6.43142">
        <ele>779</ele>
        <time>2016-08-17T16:31:49Z</time>
      </trkpt>
      <trkpt lat="47.1781" lon="6.4313">
        <ele>779</ele>
        <time>2016-08-17T16:31:51Z</time>
      </trkpt>
      <trkpt lat="47.17817" lon="6.43117">
        <ele>779</ele>
        <time>2016-08-17T16:31:53Z</time>
      </trkpt>
      <trkpt lat="47.17825" lon="6.43103">
        <ele>778</ele>
        <time>2016-08-17T16:31:55Z</time>
      </trkpt>
      <trkpt lat="47.1783" lon="6.4309">
        <ele>777</ele>
        <time>2016-08-17T16:31:57Z</time>
      </trkpt>
      <trkpt lat="47.17839" lon="6.43075">
        <ele>775</ele>
        <time>2016-08-17T16:31:59Z</time>
      </trkpt>
      <trkpt lat="47.17846" lon="6.43062">
        <ele>775</ele>
        <time>2016-08-17T16:32:01Z</time>
      </trkpt>
      <trkpt lat="47.17853" lon="6.43048">
        <ele>775</ele>
        <time>2016-08-17T16:32:03Z</time>
      </trkpt>
      <trkpt lat="47.17858" lon="6.43032">
        <ele>775</ele>
        <time>2016-08-17T16:32:05Z</time>
      </trkpt>
      <trkpt lat="47.17864" lon="6.43016">
        <ele>775</ele>
        <time>2016-08-17T16:32:07Z</time>
      </trkpt>
      <trkpt lat="47.1787" lon="6.42999">
        <ele>777</ele>
        <time>2016-08-17T16:32:09Z</time>
      </trkpt>
      <trkpt lat="47.17874" lon="6.42986">
        <ele>777</ele>
        <time>2016-08-17T16:32:11Z</time>
      </trkpt>
      <trkpt lat="47.17881" lon="6.42971">
        <ele>776</ele>
        <time>2016-08-17T16:32:13Z</time>
      </trkpt>
      <trkpt lat="47.17886" lon="6.42957">
        <ele>776</ele>
        <time>2016-08-17T16:32:15Z</time>
      </trkpt>
      <trkpt lat="47.17891" lon="6.42939">
        <ele>776</ele>
        <time>2016-08-17T16:32:17Z</time>
      </trkpt>
      <trkpt lat="47.17897" lon="6.42923">
        <ele>775</ele>
        <time>2016-08-17T16:32:19Z</time>
      </trkpt>
      <trkpt lat="47.17903" lon="6.42907">
        <ele>775</ele>
        <time>2016-08-17T16:32:21Z</time>
      </trkpt>
      <trkpt lat="47.17908" lon="6.42889">
        <ele>776</ele>
        <time>2016-08-17T16:32:23Z</time>
      </trkpt>
      <trkpt lat="47.17918" lon="6.42868">
        <ele>771</ele>
        <time>2016-08-17T16:32:25Z</time>
      </trkpt>
      <trkpt lat="47.17927" lon="6.42852">
        <ele>771</ele>
        <time>2016-08-17T16:32:27Z</time>
      </trkpt>
      <trkpt lat="47.17935" lon="6.42835">
        <ele>771</ele>
        <time>2016-08-17T16:32:29Z</time>
      </trkpt>
      <trkpt lat="47.17947" lon="6.42824">
        <ele>771</ele>
        <time>2016-08-17T16:32:31Z</time>
      </trkpt>
      <trkpt lat="47.17965" lon="6.42813">
        <ele>769</ele>
        <time>2016-08-17T16:32:33Z</time>
      </trkpt>
      <trkpt lat="47.17981" lon="6.42803">
        <ele>768</ele>
        <time>2016-08-17T16:32:35Z</time>
      </trkpt>
      <trkpt lat="47.17997" lon="6.42793">
        <ele>768</ele>
        <time>2016-08-17T16:32:37Z</time>
      </trkpt>
      <trkpt lat="47.18012" lon="6.42781">
        <ele>764</ele>
        <time>2016-08-17T16:32:39Z</time>
      </trkpt>
      <trkpt lat="47.18026" lon="6.42772">
        <ele>764</ele>
        <time>2016-08-17T16:32:41Z</time>
      </trkpt>
      <trkpt lat="47.18042" lon="6.42759">
        <ele>764</ele>
        <time>2016-08-17T16:32:43Z</time>
      </trkpt>
      <trkpt lat="47.18055" lon="6.42747">
        <ele>764</ele>
        <time>2016-08-17T16:32:45Z</time>
      </trkpt>
      <trkpt lat="47.1807" lon="6.42734">
        <ele>764</ele>
        <time>2016-08-17T16:32:47Z</time>
      </trkpt>
      <trkpt lat="47.18084" lon="6.42723">
        <ele>764</ele>
        <time>2016-08-17T16:32:49Z</time>
      </trkpt>
      <trkpt lat="47.18098" lon="6.42714">
        <ele>764</ele>
        <time>2016-08-17T16:32:51Z</time>
      </trkpt>
      <trkpt lat="47.18114" lon="6.42706">
        <ele>764</ele>
        <time>2016-08-17T16:32:53Z</time>
      </trkpt>
      <trkpt lat="47.1813" lon="6.42699">
        <ele>764</ele>
        <time>2016-08-17T16:32:55Z</time>
      </trkpt>
      <trkpt lat="47.1815" lon="6.42684">
        <ele>763</ele>
        <time>2016-08-17T16:32:57Z</time>
      </trkpt>
      <trkpt lat="47.18162" lon="6.42664">
        <ele>762</ele>
        <time>2016-08-17T16:32:59Z</time>
      </trkpt>
      <trkpt lat="47.18171" lon="6.42634">
        <ele>758</ele>
        <time>2016-08-17T16:33:01Z</time>
      </trkpt>
      <trkpt lat="47.18182" lon="6.42601">
        <ele>757</ele>
        <time>2016-08-17T16:33:03Z</time>
      </trkpt>
      <trkpt lat="47.18191" lon="6.42569">
        <ele>753</ele>
        <time>2016-08-17T16:33:05Z</time>
      </trkpt>
      <trkpt lat="47.18201" lon="6.42536">
        <ele>751</ele>
        <time>2016-08-17T16:33:07Z</time>
      </trkpt>
      <trkpt lat="47.18199" lon="6.42501">
        <ele>750</ele>
        <time>2016-08-17T16:33:09Z</time>
      </trkpt>
      <trkpt lat="47.18193" lon="6.42468">
        <ele>745</ele>
        <time>2016-08-17T16:33:11Z</time>
      </trkpt>
      <trkpt lat="47.18184" lon="6.42437">
        <ele>743</ele>
        <time>2016-08-17T16:33:13Z</time>
      </trkpt>
      <trkpt lat="47.18169" lon="6.42407">
        <ele>740</ele>
        <time>2016-08-17T16:33:15Z</time>
      </trkpt>
      <trkpt lat="47.18147" lon="6.42382">
        <ele>739</ele>
        <time>2016-08-17T16:33:17Z</time>
      </trkpt>
      <trkpt lat="47.18126" lon="6.42358">
        <ele>737</ele>
        <time>2016-08-17T16:33:19Z</time>
      </trkpt>
      <trkpt lat="47.18112" lon="6.42328">
        <ele>728</ele>
        <time>2016-08-17T16:33:21Z</time>
      </trkpt>
      <trkpt lat="47.18108" lon="6.42292">
        <ele>726</ele>
        <time>2016-08-17T16:33:23Z</time>
      </trkpt>
      <trkpt lat="47.18106" lon="6.42254">
        <ele>724</ele>
        <time>2016-08-17T16:33:25Z</time>
      </trkpt>
      <trkpt lat="47.18107" lon="6.42216">
        <ele>717</ele>
        <time>2016-08-17T16:33:27Z</time>
      </trkpt>
      <trkpt lat="47.18108" lon="6.42176">
        <ele>715</ele>
        <time>2016-08-17T16:33:29Z</time>
      </trkpt>
      <trkpt lat="47.18111" lon="6.42136">
        <ele>710</ele>
        <time>2016-08-17T16:33:31Z</time>
      </trkpt>
      <trkpt lat="47.18113" lon="6.42095">
        <ele>708</ele>
        <time>2016-08-17T16:33:33Z</time>
      </trkpt>
      <trkpt lat="47.18117" lon="6.42053">
        <ele>704</ele>
        <time>2016-08-17T16:33:35Z</time>
      </trkpt>
      <trkpt lat="47.1812" lon="6.42012">
        <ele>703</ele>
        <time>2016-08-17T16:33:37Z</time>
      </trkpt>
      <trkpt lat="47.18124" lon="6.4197">
        <ele>700</ele>
        <time>2016-08-17T16:33:39Z</time>
      </trkpt>
      <trkpt lat="47.18123" lon="6.4193">
        <ele>699</ele>
        <time>2016-08-17T16:33:41Z</time>
      </trkpt>
      <trkpt lat="47.18126" lon="6.41889">
        <ele>696</ele>
        <time>2016-08-17T16:33:43Z</time>
      </trkpt>
      <trkpt lat="47.18127" lon="6.41848">
        <ele>695</ele>
        <time>2016-08-17T16:33:45Z</time>
      </trkpt>
      <trkpt lat="47.18128" lon="6.41808">
        <ele>693</ele>
        <time>2016-08-17T16:33:47Z</time>
      </trkpt>
      <trkpt lat="47.18129" lon="6.41773">
        <ele>692</ele>
        <time>2016-08-17T16:33:49Z</time>
      </trkpt>
      <trkpt lat="47.18129" lon="6.41734">
        <ele>689</ele>
        <time>2016-08-17T16:33:51Z</time>
      </trkpt>
      <trkpt lat="47.1813" lon="6.41697">
        <ele>688</ele>
        <time>2016-08-17T16:33:53Z</time>
      </trkpt>
      <trkpt lat="47.18145" lon="6.41665">
        <ele>686</ele>
        <time>2016-08-17T16:33:55Z</time>
      </trkpt>
      <trkpt lat="47.18153" lon="6.41631">
        <ele>686</ele>
        <time>2016-08-17T16:33:57Z</time>
      </trkpt>
      <trkpt lat="47.18162" lon="6.41596">
        <ele>685</ele>
        <time>2016-08-17T16:33:59Z</time>
      </trkpt>
      <trkpt lat="47.18164" lon="6.41564">
        <ele>684</ele>
        <time>2016-08-17T16:34:01Z</time>
      </trkpt>
      <trkpt lat="47.1817" lon="6.41536">
        <ele>681</ele>
        <time>2016-08-17T16:34:03Z</time>
      </trkpt>
      <trkpt lat="47.18177" lon="6.41508">
        <ele>681</ele>
        <time>2016-08-17T16:34:05Z</time>
      </trkpt>
      <trkpt lat="47.18187" lon="6.41481">
        <ele>680</ele>
        <time>2016-08-17T16:34:07Z</time>
      </trkpt>
      <trkpt lat="47.18196" lon="6.41454">
        <ele>679</ele>
        <time>2016-08-17T16:34:09Z</time>
      </trkpt>
      <trkpt lat="47.18202" lon="6.41424">
        <ele>679</ele>
        <time>2016-08-17T16:34:11Z</time>
      </trkpt>
      <trkpt lat="47.18208" lon="6.41402">
        <ele>678</ele>
        <time>2016-08-17T16:34:13Z</time>
      </trkpt>
      <trkpt lat="47.18216" lon="6.41379">
        <ele>678</ele>
        <time>2016-08-17T16:34:15Z</time>
      </trkpt>
      <trkpt lat="47.18225" lon="6.41356">
        <ele>677</ele>
        <time>2016-08-17T16:34:17Z</time>
      </trkpt>
      <trkpt lat="47.18234" lon="6.41332">
        <ele>676</ele>
        <time>2016-08-17T16:34:19Z</time>
      </trkpt>
      <trkpt lat="47.18243" lon="6.4131">
        <ele>676</ele>
        <time>2016-08-17T16:34:21Z</time>
      </trkpt>
      <trkpt lat="47.18253" lon="6.4129">
        <ele>674</ele>
        <time>2016-08-17T16:34:23Z</time>
      </trkpt>
      <trkpt lat="47.18262" lon="6.4127">
        <ele>674</ele>
        <time>2016-08-17T16:34:25Z</time>
      </trkpt>
      <trkpt lat="47.18273" lon="6.41247">
        <ele>673</ele>
        <time>2016-08-17T16:34:27Z</time>
      </trkpt>
      <trkpt lat="47.18282" lon="6.41224">
        <ele>673</ele>
        <time>2016-08-17T16:34:29Z</time>
      </trkpt>
      <trkpt lat="47.18294" lon="6.41206">
        <ele>673</ele>
        <time>2016-08-17T16:34:31Z</time>
      </trkpt>
      <trkpt lat="47.18309" lon="6.41189">
        <ele>672</ele>
        <time>2016-08-17T16:34:33Z</time>
      </trkpt>
      <trkpt lat="47.1832" lon="6.41173">
        <ele>672</ele>
        <time>2016-08-17T16:34:35Z</time>
      </trkpt>
      <trkpt lat="47.18335" lon="6.41157">
        <ele>671</ele>
        <time>2016-08-17T16:34:37Z</time>
      </trkpt>
      <trkpt lat="47.18348" lon="6.41138">
        <ele>670</ele>
        <time>2016-08-17T16:34:39Z</time>
      </trkpt>
      <trkpt lat="47.18361" lon="6.41121">
        <ele>670</ele>
        <time>2016-08-17T16:34:41Z</time>
      </trkpt>
      <trkpt lat="47.18372" lon="6.41106">
        <ele>669</ele>
        <time>2016-08-17T16:34:43Z</time>
      </trkpt>
      <trkpt lat="47.18388" lon="6.411">
        <ele>669</ele>
        <time>2016-08-17T16:34:45Z</time>
      </trkpt>
      <trkpt lat="47.18403" lon="6.41094">
        <ele>669</ele>
        <time>2016-08-17T16:34:47Z</time>
      </trkpt>
      <trkpt lat="47.18415" lon="6.41085">
        <ele>668</ele>
        <time>2016-08-17T16:34:49Z</time>
      </trkpt>
      <trkpt lat="47.18407" lon="6.41064">
        <ele>669</ele>
        <time>2016-08-17T16:34:51Z</time>
      </trkpt>
      <trkpt lat="47.18403" lon="6.41041">
        <ele>669</ele>
        <time>2016-08-17T16:34:53Z</time>
      </trkpt>
      <trkpt lat="47.18405" lon="6.41016">
        <ele>669</ele>
        <time>2016-08-17T16:34:55Z</time>
      </trkpt>
      <trkpt lat="47.18409" lon="6.40993">
        <ele>669</ele>
        <time>2016-08-17T16:34:57Z</time>
      </trkpt>
      <trkpt lat="47.18413" lon="6.4097">
        <ele>668</ele>
        <time>2016-08-17T16:34:59Z</time>
      </trkpt>
      <trkpt lat="47.18415" lon="6.40947">
        <ele>668</ele>
        <time>2016-08-17T16:35:01Z</time>
      </trkpt>
      <trkpt lat="47.18421" lon="6.40923">
        <ele>667</ele>
        <time>2016-08-17T16:35:03Z</time>
      </trkpt>
      <trkpt lat="47.18427" lon="6.409">
        <ele>667</ele>
        <time>2016-08-17T16:35:05Z</time>
      </trkpt>
      <trkpt lat="47.1843" lon="6.40878">
        <ele>666</ele>
        <time>2016-08-17T16:35:07Z</time>
      </trkpt>
      <trkpt lat="47.18434" lon="6.40855">
        <ele>666</ele>
        <time>2016-08-17T16:35:09Z</time>
      </trkpt>
      <trkpt lat="47.18438" lon="6.40832">
        <ele>666</ele>
        <time>2016-08-17T16:35:11Z</time>
      </trkpt>
      <trkpt lat="47.18443" lon="6.40809">
        <ele>666</ele>
        <time>2016-08-17T16:35:13Z</time>
      </trkpt>
      <trkpt lat="47.18446" lon="6.40787">
        <ele>666</ele>
        <time>2016-08-17T16:35:15Z</time>
      </trkpt>
      <trkpt lat="47.18449" lon="6.40767">
        <ele>665</ele>
        <time>2016-08-17T16:35:17Z</time>
      </trkpt>
      <trkpt lat="47.18454" lon="6.40743">
        <ele>665</ele>
        <time>2016-08-17T16:35:19Z</time>
      </trkpt>
      <trkpt lat="47.18457" lon="6.40719">
        <ele>665</ele>
        <time>2016-08-17T16:35:21Z</time>
      </trkpt>
      <trkpt lat="47.1846" lon="6.40698">
        <ele>665</ele>
        <time>2016-08-17T16:35:23Z</time>
      </trkpt>
      <trkpt lat="47.18466" lon="6.40678">
        <ele>665</ele>
        <time>2016-08-17T16:35:25Z</time>
      </trkpt>
      <trkpt lat="47.1847" lon="6.40658">
        <ele>665</ele>
        <time>2016-08-17T16:35:27Z</time>
      </trkpt>
      <trkpt lat="47.18473" lon="6.4064">
        <ele>665</ele>
        <time>2016-08-17T16:35:29Z</time>
      </trkpt>
      <trkpt lat="47.18476" lon="6.40622">
        <ele>665</ele>
        <time>2016-08-17T16:35:31Z</time>
      </trkpt>
      <trkpt lat="47.1848" lon="6.40605">
        <ele>665</ele>
        <time>2016-08-17T16:35:33Z</time>
      </trkpt>
      <trkpt lat="47.18481" lon="6.40587">
        <ele>664</ele>
        <time>2016-08-17T16:35:35Z</time>
      </trkpt>
      <trkpt lat="47.18485" lon="6.40571">
        <ele>665</ele>
        <time>2016-08-17T16:35:37Z</time>
      </trkpt>
      <trkpt lat="47.18487" lon="6.40556">
        <ele>665</ele>
        <time>2016-08-17T16:35:39Z</time>
      </trkpt>
      <trkpt lat="47.18489" lon="6.40541">
        <ele>665</ele>
        <time>2016-08-17T16:35:41Z</time>
      </trkpt>
      <trkpt lat="47.18492" lon="6.40525">
        <ele>665</ele>
        <time>2016-08-17T16:35:43Z</time>
      </trkpt>
      <trkpt lat="47.18496" lon="6.40508">
        <ele>665</ele>
        <time>2016-08-17T16:35:45Z</time>
      </trkpt>
      <trkpt lat="47.18498" lon="6.40494">
        <ele>665</ele>
        <time>2016-08-17T16:35:47Z</time>
      </trkpt>
      <trkpt lat="47.18501" lon="6.40475">
        <ele>664</ele>
        <time>2016-08-17T16:35:49Z</time>
      </trkpt>
      <trkpt lat="47.18505" lon="6.40457">
        <ele>664</ele>
        <time>2016-08-17T16:35:51Z</time>
      </trkpt>
      <trkpt lat="47.18508" lon="6.40438">
        <ele>664</ele>
        <time>2016-08-17T16:35:53Z</time>
      </trkpt>
      <trkpt lat="47.18511" lon="6.40421">
        <ele>664</ele>
        <time>2016-08-17T16:35:55Z</time>
      </trkpt>
      <trkpt lat="47.18509" lon="6.40402">
        <ele>663</ele>
        <time>2016-08-17T16:35:57Z</time>
      </trkpt>
      <trkpt lat="47.18506" lon="6.40384">
        <ele>663</ele>
        <time>2016-08-17T16:35:59Z</time>
      </trkpt>
      <trkpt lat="47.18502" lon="6.40367">
        <ele>663</ele>
        <time>2016-08-17T16:36:01Z</time>
      </trkpt>
      <trkpt lat="47.18496" lon="6.40351">
        <ele>663</ele>
        <time>2016-08-17T16:36:03Z</time>
      </trkpt>
      <trkpt lat="47.1849" lon="6.40341">
        <ele>663</ele>
        <time>2016-08-17T16:36:05Z</time>
      </trkpt>
      <trkpt lat="47.18479" lon="6.40329">
        <ele>661</ele>
        <time>2016-08-17T16:36:07Z</time>
      </trkpt>
      <trkpt lat="47.1847" lon="6.40317">
        <ele>661</ele>
        <time>2016-08-17T16:36:09Z</time>
      </trkpt>
      <trkpt lat="47.18458" lon="6.40316">
        <ele>661</ele>
        <time>2016-08-17T16:36:11Z</time>
      </trkpt>
      <trkpt lat="47.18449" lon="6.40328">
        <ele>661</ele>
        <time>2016-08-17T16:36:13Z</time>
      </trkpt>
      <trkpt lat="47.18444" lon="6.40341">
        <ele>663</ele>
        <time>2016-08-17T16:36:15Z</time>
      </trkpt>
      <trkpt lat="47.18437" lon="6.40351">
        <ele>663</ele>
        <time>2016-08-17T16:36:17Z</time>
      </trkpt>
      <trkpt lat="47.18425" lon="6.40363">
        <ele>663</ele>
        <time>2016-08-17T16:36:21Z</time>
      </trkpt>
      <trkpt lat="47.18415" lon="6.4036">
        <ele>663</ele>
        <time>2016-08-17T16:36:27Z</time>
      </trkpt>
    </trkseg>
  </trk>
</gpx>